     2              OBSERVATION DATA    GPS                 RINEX VERSION / TYPE
teqc 2000Jul20 Karen Wendt 20030613 20:59:51UTC             PGM / RUN BY / DATE
                                                            COMMENT
L2: 1 -> 1; 150 -> 5; 250 -> 9                              COMMENT
L2: 1 -> 1; 150 -> 5; 250 -> 9                              COMMENT
L2: 1 -> 1; 150 -> 5; 250 -> 9                              COMMENT
L2: 1 -> 1; 150 -> 5; 250 -> 9                              COMMENT
L2: 1 -> 1; 150 -> 5; 250 -> 9                              COMMENT
L2: 1 -> 1; 150 -> 5; 250 -> 9                              COMMENT
L2: 1 -> 1; 150 -> 5; 250 -> 9                              COMMENT
L2: 1 -> 1; 150 -> 5; 250 -> 9                              COMMENT
L2: 1 -> 1; 150 -> 5; 250 -> 9                              COMMENT
L2: 1 -> 1; 150 -> 5; 250 -> 9                              COMMENT
L2: 1 -> 1; 150 -> 5; 250 -> 9                              COMMENT
L2: 1 -> 1; 150 -> 5; 250 -> 9                              COMMENT
L2: 1 -> 1; 150 -> 5; 250 -> 9                              COMMENT
L2: 1 -> 1; 150 -> 5; 250 -> 9                              COMMENT
Original Marker Name: p16x P_16_Reset_1978_NGS              COMMENT
Campaign Name: USGS Death Valley 2003                       COMMENT
4-Character Station Name: P16X                              COMMENT
6-Character Antenna Code: DMRCHT                            COMMENT
Vertical Measurement Point: BCR                             COMMENT
Vertical Offset to Rinex Ref. Point: 0.0348                 COMMENT
Radial Measurement Point: ECF                               COMMENT
Radial Offset to Rinex Ref. Point: 0.1897                   COMMENT
Antenna Height from Field Measurement: 1.3540 m             COMMENT
Additional Antenna Identification Info.:                    COMMENT
Turborogue and Ashtech Choke Ring                           COMMENT
Original XYZ: -2300634.3273 -4565223.6480 3802679.9483      COMMENT
New XYZ position is based on association with SCEC monument COMMENT
E1G0F5Y1+0011. Position of that monument is believed to be  COMMENT
valid to within 1 m horizontally; vertical accuracy         COMMENT
should be no worse than 3-times this value.                 COMMENT
                                                            COMMENT
Revised Rinex header created by UCSD GPS archive for        COMMENT
GSAC on 20-Apr-2005 (2005:110) 16:33:00 GMT                 COMMENT
For assistance contact dagnew@ucsd.edu                      COMMENT
or anderson@python.ucsd.edu                                 COMMENT
                                                            COMMENT
P16 RESET 1978                                              MARKER NAME
JMS US GEOLOGICAL SURVEY                                    OBSERVER / AGENCY
04582 ASHTECH Z-XII3 CD00                                   REC # / TYPE / VERS
CR620022601 DORNE-MARGOL. TYPE T                            ANT # / TYPE
 -2300655.0000 -4565209.0000  3802677.0000                  APPROX POSITION XYZ
        1.3058        0.0000        0.0000                  ANTENNA: DELTA H/E/N
     1     1     0                                          WAVELENGTH FACT L1/2
     5    C1    L1    L2    P1    P2                        # / TYPES OF OBSERV
    30                                                      INTERVAL
  2003     6     8    15    42    0.000000                  TIME OF FIRST OBS
  2003     6     8    22    30   30.000000                  TIME OF LAST OBS
                                                            END OF HEADER
 03  6  8 15 42  0.0000000  0  5G21G 6G30G29G10
  22448942.570     -184284.38349   -130375.46646  22448942.241
  22448948.775     -145657.11949   -103443.30243
  21751245.155      146407.69649    100268.80647  21751245.516
  21751252.450     -198209.49049   -141446.48345                  24070098.034
  21477299.932      116042.34049     80862.80647  21477299.075    21477306.668
 03  6  8 15 42 29.9990000  0  7G24G21G17G 6G30G29G10
                    160978.41749    108310.23143                  22134871.256
                   -259323.54649   -188847.52047  22134870.378    22134876.931
  21291080.510     -177239.21049   -106130.30247  21291080.142    21291088.099
                   -201450.03849    -17147.02346                  20664090.435
  21463026.573      207227.57749    147660.86747  21463026.776    21463033.682
  23754834.213     -279457.79149   -204756.77845  23754835.599    23754844.931
  21185318.414      157087.42449    112845.97047  21185317.290    21185324.863
 03  6  8 15 43  0.0000000  0  7G24G21G17G 6G30G29G10
                  -1040040.92249   -827549.12444  24660110.904    22179262.407
                  -1601466.04649  -1234672.82147  22179261.677    22179268.173
  21339929.123    -1495957.45849  -1133702.95347  21339928.855    21339936.812
  20712153.066    -1524261.00049  -1047908.81247  20712153.305    20712160.352
  21533310.422     -998849.04249   -792139.15147  21533310.539    21533317.451
  23798049.034    -1627783.05649  -1255399.78545  23798050.413    23798059.652
  21251858.807    -1068659.35649   -842281.41147  21251857.895    21251865.489
 03  6  8 15 43 30.0000000  0  8G24G21G17G 6G30G29G26G10
  24675368.204     -959804.37149   -765027.23245  24675368.838    24675378.998
  22167723.323    -1662103.53049  -1281922.78647  22167722.765    22167729.231
  21332853.521    -1533140.71549  -1162676.91247  21332853.153    21332861.085
  20704309.324    -1565481.01649  -1080028.30147  20704309.425    20704316.431
  21547701.399     -923223.81449   -733210.45647  21547701.557    21547708.506
  23785339.672    -1694573.75549  -1307444.42845  23785340.552    23785349.789
                  -1599258.79049  -1221440.15643
  21262526.761    -1012598.39249   -798597.55747  21262525.940    21262533.556
 03  6  8 15 44  0.0000000  0  8G24G21G17G 6G30G29G26G10
  24690629.443     -879608.02949   -702536.66245  24690630.043    24690640.101
  22156223.420    -1722535.78349  -1329012.82647  22156222.926    22156229.380
  21325822.628    -1570088.49949  -1191467.38547  21325822.220    21325830.156
  20696521.277    -1606407.68749  -1111919.20948  20696521.346    20696528.324
  21562169.074     -847195.56749   -673967.72147  21562169.281    21562176.269
  23772675.111    -1761127.00849  -1359304.04045  23772675.739    23772685.153
                  -1694464.67049  -1031736.25943
  21273291.568     -956028.60049   -754517.21647  21273290.787    21273298.467
 03  6  8 15 44 30.0000000  0  8G24G21G17G 6G30G29G26G10
  24705882.627     -799453.42649   -640078.60645  24705882.603    24705892.891
  22144762.327    -1782764.28749  -1375944.11047  22144761.850    22144768.250
  21318836.221    -1606802.33449  -1220075.56147  21318835.817    21318843.764
  20688789.126    -1647040.83349  -1143581.39648  20688789.139    20688796.117
  21576712.717     -770768.26349   -614414.02447  21576712.943    21576719.969
  23760056.014    -1827441.18749  -1410977.38245  23760056.555    23760065.823
                  -1789641.65049  -1105899.11243
  21284152.534     -898953.79549   -710043.36247  21284151.778    21284159.495
 03  6  8 15 45  0.0000000  0  8G24G21G17G 6G30G29G26G10
  24721128.164     -719338.29349   -577651.34445  24721128.199    24721138.261
  22133340.648    -1842785.62949  -1422713.96447  22133340.197    22133346.582
  21311894.854    -1643279.47449  -1248499.30447  21311894.432    21311902.419
  20681113.730    -1687375.29949  -1175010.84448  20681113.743    20681120.720
  21591332.383     -693941.42749   -554549.01147  21591332.631    21591339.665
  23747483.729    -1893510.08949  -1462459.60645  23747484.089    23747493.324
                  -1884782.79149  -1180034.30443
  21295109.814     -841373.22249   -665175.40847  21295109.033    21295116.795
 03  6  8 15 45 30.0000000  0  8G24G21G17G 6G30G29G26G10
  24736365.978     -639264.29349   -515256.11145  24736366.060    24736375.675
  22121958.081    -1902601.37249  -1469323.61747  22121957.657    22121964.014
  21304998.181    -1679521.83649  -1276740.08747  21304997.767    21305005.753
  20673495.214    -1727411.08449  -1206207.55548  20673495.187    20673502.166
  21606027.325     -616719.09549   -494375.80547  21606027.618    21606034.646
  23734958.371    -1959332.33049  -1513749.62145  23734958.590    23734967.804
                  -1979886.57249   -984059.84343
  21306162.512     -783290.73349   -619916.34647  21306161.761    21306169.574
 03  6  8 15 46  0.0000000  0  8G24G21G17G 6G30G29G26G10
  24751596.071     -559231.06849   -452892.67345  24751596.086    24751605.751
  22110614.851    -1962210.52049  -1515772.28747  22110614.420    22110620.776
  21298146.339    -1715528.82549  -1304797.48147  21298145.910    21298153.889
  20665934.024    -1767145.54649  -1237169.47748  20665934.012    20665940.986
  21620797.229     -539103.05049   -433895.82447  21620797.503    21620804.562
  23722480.601    -2024903.96049  -1564844.35545  23722480.758    23722489.890
                  -2074948.54549  -1058135.04243
  21317310.552     -724707.59349   -574267.17547  21317309.803    21317317.642
 03  6  8 15 46 30.0000000  0  8G24G21G17G 6G30G29G26G10
  24766818.444     -479238.31349   -390560.81045  24766818.288    24766828.043
  22099311.015    -2021612.51649  -1562059.53747  22099310.576    22099317.001
  21291339.240    -1751300.25649  -1332671.30947  21291338.813    21291346.804
  20658430.641    -1806576.34349  -1267894.77148  20658430.606    20658437.574
  21635641.562     -461095.54249   -373110.80547  21635641.847    21635648.957
  23710051.007    -2090221.68349  -1615741.23145  23710051.163    23710060.401
                  -2169964.82049  -1132173.76643
  21328553.566     -665625.59749   -528229.28747  21328552.790    21328560.597
 03  6  8 15 47  0.0000000  0  8G24G21G17G 6G30G29G26G10
  24782032.917     -399286.29249   -328260.63245  24782032.645    24782042.586
  22088046.538    -2080807.36649  -1608185.37547  22088046.124    22088052.630
  21284577.002    -1786836.37149  -1360361.78147  21284576.564    21284584.528
  20650985.356    -1845701.66249  -1298382.03348  20650985.310    20650992.309
  21650559.972     -382699.00049   -312022.65047  21650560.279    21650567.410
  23697670.207    -2155282.41349  -1666437.85645  23697670.305    23697679.751
                  -2264931.98249  -1206173.78844                  24019204.241
  21339891.006     -606047.24649   -481804.62547  21339890.241    21339897.994
 03  6  8 15 47 30.0000000  0  8G24G21G17G 6G30G29G26G10
  24797239.506     -319375.40049   -265992.50145  24797239.359    24797249.240
  22076821.450    -2139795.33249  -1654149.98247  22076821.035    22076827.620
  21277859.512    -1822137.12649  -1387868.85847  21277859.045    21277867.042
  20643598.521    -1884519.78149  -1328629.90948  20643598.484    20643605.484
  21665551.867     -303916.31449   -250633.60247  21665552.180    21665559.321
  23685338.950    -2220083.23249  -1716931.95045  23685338.981    23685348.515
  24001129.285    -2359846.58649  -1280133.06445  24001129.724    24001140.708
  21351322.367     -545975.01349   -434995.12247  21351321.657    21351329.374
 03  6  8 15 48  0.0000000  0  8G24G21G17G 6G30G29G26G10
  24812438.206     -239506.48849   -203757.05645  24812438.097    24812448.024
  22065635.792    -2198576.25049  -1699953.29047  22065635.398    22065641.952
  21271186.584    -1857203.92949  -1415193.64047  21271186.104    21271194.042
  20636270.415    -1923029.13649  -1358637.21448  20636270.347    20636277.373
  21680616.757     -224750.33749   -188945.91247  21680617.041    21680624.195
  23673057.733    -2284621.45749  -1767221.41745  23673057.783    23673067.335
  23983078.129    -2454705.59849  -1354049.01245  23983078.720    23983089.493
  21362847.271     -485411.78049   -387803.00747  21362846.529    21362854.208
 03  6  8 15 48 30.0000000  0  9G18G24G21G17G 6G30G29G26G10
  24771947.620    -2699329.91149  -2086240.77345  24771947.198    24771957.028
  24827628.027     -159684.14349   -141557.98745  24827627.970    24827637.974
  22054488.771    -2257154.41149  -1745598.56847  22054488.365    22054494.881
  21264557.404    -1892040.64949  -1442339.12847  21264556.884    21264564.830
  20629000.538    -1961232.69649  -1388406.21748  20629000.490    20629007.538
  21695753.252     -145208.03249   -126964.93947  21695753.532    21695760.656
  23660826.306    -2348898.47849  -1817307.36145  23660826.301    23660835.704
  23965037.401    -2549509.95649  -1427922.37645  23965037.450    23965048.922
  21374464.333     -424363.87949   -340233.25047  21374463.557    21374471.224
 03  6  8 15 49  0.0000000  0  9G18G24G21G17G 6G30G29G26G10
  24750815.851    -2810377.99649  -2172771.62345  24750815.427    24750825.379
  24842809.652      -79904.70049    -79392.28145  24842809.560    24842819.590
  22043381.084    -2315526.17749  -1791083.04947  22043380.655    22043387.103
  21257972.566    -1926644.14949  -1469302.88547  21257972.092    21257980.030
  20621789.905    -1999124.87649  -1417932.59148  20621789.842    20621796.896
  21710961.492      -65288.44049    -64689.98447  21710961.774    21710968.892
  23648645.818    -2412907.67249  -1867184.60845  23648645.823    23648655.069
  23947008.430    -2644252.31049  -1501747.42345  23947008.371    23947020.077
  21386173.775     -362830.17849   -292284.93647  21386173.040    21386180.738
 03  6  8 15 49 30.0000000  0  9G18G24G21G17G 6G30G29G26G10
  24729695.247    -2921367.08549  -2259256.48145  24729694.919    24729704.785
  24857983.340        -166.37849    -17258.68345  24857983.286    24857993.432
  22032313.068    -2373689.31149  -1836404.96147  22032312.608    22032319.001
  21251432.459    -1961012.75449  -1496083.61347  21251431.970    21251439.875
  20614639.312    -2036701.57449  -1447213.13648  20614639.252    20614646.297
  21726241.463       15008.01949     -2121.37847  21726241.736    21726248.875
  23636517.334    -2476643.88749  -1916849.15145  23636517.259    23636526.440
  23928992.327    -2738927.15449  -1575519.87145  23928992.383    23929003.964
  21397975.747     -300810.70949   -243958.10647  21397974.990    21397982.732
 03  6  8 15 50  0.0000000  0  9G18G24G21G17G 6G30G29G26G10
  24708586.131    -3032296.04949  -2345694.49945  24708585.682    24708595.695
  24873149.050       79529.26549     44841.72345  24873149.016    24873158.991
  22021284.490    -2431644.96949  -1881565.20147  22021284.052    22021290.365
  21244936.833    -1995147.70949  -1522682.27047  21244936.356    21244944.274
  20607548.893    -2073962.39449  -1476247.54048  20607548.821    20607555.839
  21741592.437       95677.34049     60737.76947  21741592.718    21741599.835
  23624441.036    -2540105.36049  -1966299.58245  23624440.960    23624450.106
  23910989.599    -2833532.29149  -1649238.00045  23910989.656    23911001.080
  21409869.438     -238309.40549   -195255.81847  21409868.646    21409876.393
 03  6  8 15 50 30.0000000  0  8G18G21G17G 6G30G29G26G10
  24687488.535    -3143164.23749  -2432085.16045  24687488.148    24687498.082
  22010295.047    -2489394.85049  -1926565.09347  22010294.610    22010300.928
  21238485.398    -2029050.61049  -1549100.11447  21238484.903    21238492.799
  20600518.567    -2110907.23949  -1505035.73348  20600518.488    20600525.480
  21757013.524      176715.23749    123884.11147  21757013.803    21757020.926
  23612417.151    -2603290.85449  -2015534.96245  23612417.134    23612426.280
  23893000.357    -2928065.86849  -1722900.36745  23893000.460    23893011.793
  21421853.998     -175330.15549   -146181.10847  21421853.250    21421861.003
 03  6  8 15 51  0.0000000  0  8G18G21G17G 6G30G29G26G10
  24666403.086    -3253968.04349  -2518425.64745  24666402.764    24666412.716
  21999345.045    -2546937.33349  -1971403.36747  21999344.641    21999351.001
  21232078.167    -2062720.79249  -1575336.61247  21232077.678    21232085.605
  20593549.030    -2147532.78349  -1533575.11848  20593548.943    20593555.890
  21772504.473      258120.40049    187316.63747  21772504.758    21772511.898
  23600446.663    -2666195.84149  -2064551.77345  23600446.711    23600455.802
  23875025.755    -3022522.71949  -1796502.95145  23875025.873    23875037.160
  21433929.300     -111874.13049    -96734.88447  21433928.580    21433936.334
 03  6  8 15 51 30.0000000  0  8G18G21G17G 6G30G29G26G10
  24645330.488    -3364704.84349  -2604713.94545  24645330.223    24645339.922
  21988434.544    -2604272.28049  -2016079.92447  21988434.144    21988440.549
  21225715.323    -2096157.98249  -1601391.56347  21225714.813    21225722.749
  20586640.690    -2183836.70649  -1561863.89048  20586640.575    20586647.512
  21788064.890      339890.56749    251033.58847  21788065.156    21788072.343
  23588530.197    -2728817.29849  -2113347.65145  23588530.230    23588539.364
  23857066.453    -3116899.27449  -1870042.97645  23857066.657    23857077.820
  21446095.013      -47943.44649    -46918.80147  21446094.248    21446101.991
 03  6  8 15 52  0.0000000  0  8G18G21G17G 6G30G29G26G10
  24624270.956    -3475373.50449  -2690949.14045  24624270.523    24624280.311
  21977563.438    -2661400.40749  -2060595.32447  21977563.020    21977569.462
  21219396.542    -2129363.45949  -1627265.95147  21219396.038    21219403.978
  20579793.635    -2219818.40849  -1589901.57848  20579793.525    20579800.451
  21803694.024      422021.85249    315031.92447  21803694.286    21803701.517
  23576668.125    -2791153.08849  -2161920.93545  23576668.102    23576677.195
  23839122.676    -3211193.09949  -1943518.49445  23839122.910    23839134.145
  21458350.345       16458.37749      3264.40647  21458349.554    21458357.308
 03  6  8 15 52 30.0000000  0  8G18G21G17G 6G30G29G26G10
  24603224.777    -3585971.72849  -2777129.42545  24603224.382    24603234.106
  21966731.673    -2718321.98049  -2104949.78047  21966731.228    21966737.665
  21213121.699    -2162338.10749  -1652960.47847  21213121.202    21213129.122
  20573008.185    -2255476.35749  -1617686.99348  20573008.063    20573014.994
  21819391.347      504511.41949    379309.44547  21819391.629    21819398.863
  23564860.864    -2853200.64949  -2210269.62645  23564860.836    23564869.945
  23821195.462    -3305400.85549  -2016926.96745  23821195.610    23821206.829
  21470694.791       81328.81849     53812.77347  21470694.028    21470701.783
 03  6  8 15 53  0.0000000  0  8G18G21G17G 6G30G29G26G10
  24582192.297    -3696497.70749  -2863253.42545  24582191.963    24582201.603
  21955939.220    -2775036.94849  -2149143.24247  21955938.790    21955945.136
  21206890.844    -2195081.60349  -1678474.88347  21206890.335    21206898.276
  20566284.586    -2290809.24249  -1645219.10448  20566284.477    20566291.430
  21835156.310      587356.34649    443863.86847  21835156.585    21835163.817
  23553108.927    -2914957.09449  -2258391.47745  23553108.902    23553118.082
  23803285.268    -3399518.94349  -2090265.57045  23803285.329    23803296.729
  21483127.904      146665.13449    104724.15547  21483127.131    21483134.903
 03  6  8 15 53 30.0000000  0  8G18G21G17G 6G30G29G26G10
  24561173.988    -3806949.12349  -2949319.36245  24561173.594    24561183.087
  21945186.045    -2831545.37549  -2193175.76247  21945185.624    21945191.909
  21200703.881    -2227594.39249  -1703809.52147  21200703.398    21200711.301
  20559623.185    -2325815.09449  -1672496.39048  20559623.079    20559630.052
  21850988.376      670553.94849    508693.10447  21850988.665    21850995.880
  23541413.012    -2976419.52249  -2306284.20645  23541412.959    23541422.107
  23785392.641    -3493544.13249  -2163531.78645  23785392.775    23785404.223
  21495649.278      212464.82149    155996.60447  21495648.482    21495656.253
 03  6  8 15 54  0.0000000  0  8G18G21G17G 6G30G29G26G10
  24540170.381    -3917323.73449  -3035325.41045  24540170.014    24540179.337
  21934472.154    -2887847.41849  -2237047.46247  21934471.741    21934477.999
  21194560.711    -2259877.34449  -1728965.06547  21194560.211    21194568.070
  20553024.340    -2360492.54649  -1699517.78048  20553024.227    20553031.186
  21866886.973      754101.18849    573794.78747  21866887.259    21866894.451
  23529773.463    -3037585.59049  -2353946.02745  23529773.417    23529782.431
  23767518.501    -3587472.97749  -2236722.92845  23767518.650    23767529.972
  21508258.241      278725.19849    207628.03347  21508257.473    21508265.234
 03  6  8 15 54 30.0000000  0  8G18G21G17G 6G30G29G26G10
  24519181.461    -4027620.09349  -3121270.44445  24519181.085    24519190.461
  21923797.570    -2943942.66549  -2280757.80047  21923797.141    21923803.422
  21188461.224    -2291930.26849  -1753941.14347  21188460.714    21188468.645
  20546488.233    -2394840.03349  -1726282.05448  20546488.122    20546495.079
  21882851.677      837996.05649    639167.55947  21882851.957    21882859.215
  23518191.088    -3098451.36649  -2401373.62545  23518191.035    23518199.930
  23749663.470    -3681301.27549  -2309835.48245  23749663.690    23749674.784
  21520954.286      345443.49449    259616.28347  21520953.554    21520961.362
 03  6  8 15 55  0.0000000  0  8G18G21G17G 6G30G29G26G10
  24498208.202    -4137835.56549  -3207152.55345  24498207.723    24498217.293
  21913161.970    -2999832.77649  -2324308.52347  21913161.544    21913167.810
  21182405.194    -2323754.66449  -1778739.37447  21182404.697    21182412.620
  20540015.305    -2428855.51049  -1752787.62148  20540015.213    20540022.152
  21898881.568      922233.81949    704807.30647  21898881.879    21898889.164
  23506666.070    -3159015.99049  -2448566.79645  23506666.003    23506674.883
  23731827.861    -3775027.41649  -2382868.69045  23731828.108    23731839.120
  21533737.101      412617.35549    311959.51047  21533736.364    21533744.198
 03  6  8 15 55 30.0000000  0  8G18G21G17G 6G30G29G26G10
  24477250.758    -4247967.55049  -3292969.57145  24477250.233    24477259.532
  21902565.694    -3055516.03849  -2367698.06247  21902565.280    21902571.629
  21176392.799    -2355349.65049  -1803358.83947  21176392.329    21176400.266
  20533605.947    -2462536.70649  -1779032.70448  20533605.860    20533612.788
  21914976.546     1006813.36949    770713.37947  21914976.847    21914984.128
  23495199.157    -3219274.83349  -2495521.67245  23495199.073    23495207.966
  23714012.717    -3868646.35949  -2455818.35745  23714012.891    23714023.790
  21546606.176      480244.80849    364656.18747  21546605.435    21546613.326
 03  6  8 15 56  0.0000000  0  8G18G21G17G 6G30G29G26G10
  24456309.577    -4358013.44749  -3378719.46045  24456309.080    24456318.382
  21892008.894    -3110992.18249  -2410926.22347  21892008.488    21892014.826
  21170424.142    -2386715.14549  -1827799.48747  21170423.651    21170431.598
  20527260.583    -2495881.85649  -1805015.93348  20527260.493    20527267.436
  21931136.106     1091732.03149    836883.69747  21931136.410    21931143.660
  23483790.980    -3279224.93049  -2542235.98045  23483790.880    23483799.807
  23696218.622    -3962154.15949  -2528681.40945  23696218.760    23696229.732
  21559561.038      548323.30449    417704.32747  21559560.327    21559568.293
 03  6  8 15 56 30.0000000  0  8G18G21G17G 6G30G29G26G10
  24435385.102    -4467971.86749  -3464401.23145  24435384.625    24435393.800
  21881491.449    -3166261.85249  -2453993.48847  21881491.019    21881497.344
  21164498.860    -2417852.62149  -1852062.46147  21164498.383    21164506.308
  20520979.325    -2528890.11149  -1830736.65648  20520979.242    20520986.193
  21947359.476     1176986.28649    903315.51347  21947359.789    21947367.050
  23472441.808    -3338864.46349  -2588708.28245  23472441.767    23472450.747
  23678446.164    -4055548.34649  -2601455.92445  23678446.362    23678457.150
  21572601.188      616849.51749    471101.33147  21572600.469    21572608.478
 03  6  8 15 57  0.0000000  0  8G18G21G17G 6G30G29G26G10
  24414477.657    -4577840.87049  -3550013.32745  24414477.219    24414486.372
  21871013.100    -3221325.72249  -2496900.39647  21871012.693    21871018.975
  21158616.955    -2448762.21449  -1876147.86247  21158616.485    21158624.440
  20514762.520    -2561559.88049  -1856193.62448  20514762.425    20514769.369
  21963646.154     1262573.02849    970006.40147  21963646.454    21963653.756
  23461152.325    -3398190.49949  -2634936.31245  23461152.273    23461161.250
  23660695.918    -4148825.46549  -2674139.20445  23660696.152    23660706.946
  21585725.998      685820.58349    524844.97747  21585725.263    21585733.263
 03  6  8 15 57 30.0000000  0  8G18G21G17G 6G30G29G26G10
  24393587.643    -4687617.92049  -3635553.75445  24393587.311    24393596.602
  21860574.103    -3276183.13049  -2539646.41547  21860573.690    21860579.954
  21152778.393    -2479443.96749  -1900055.72647  21152777.936    21152785.881
  20508610.492    -2593889.02049  -1881385.16348  20508610.394    20508617.337
  21979995.658     1348489.89049   1036954.53247  21979995.965    21980003.262
  23449923.191    -3457199.94749  -2680917.65845  23449923.076    23449932.034
  23642968.704    -4241981.61049  -2746728.22045  23642968.944    23642979.702
  21598935.133      755234.41849    578933.63647  21598934.359    21598942.356
 03  6  8 15 58  0.0000000  0  8G18G21G17G 6G30G29G26G10
  24372715.598    -4797301.20949  -3721021.13745  24372715.271    24372724.499
  21850174.262    -3330834.57149  -2582231.95147  21850173.830    21850180.084
  21146983.159    -2509898.44449  -1923786.48847  21146982.698    21146990.585
  20502523.538    -2625876.30649  -1906310.32548  20502523.458    20502530.373
  21996407.355     1434733.50249   1104157.27647  21996407.664    21996414.974
  23438754.834    -3515890.45549  -2726650.46945  23438754.668    23438763.430
  23625265.103    -4335013.86049  -2819220.67445  23625265.259    23625276.248
  21612227.863      825087.94849    633364.91947  21612227.126    21612235.068
 03  6  8 15 58 30.0000000  0  8G18G21G17G 6G30G29G26G10
  24351861.750    -4906888.31349  -3806413.57845  24351861.507    24351870.617
  21839813.675    -3385279.79749  -2624656.78747  21839813.252    21839819.502
  21141231.075    -2540126.11849  -1947340.52047  21141230.600    21141238.486
  20496502.015    -2657519.94849  -1930967.70948  20496501.917    20496508.809
  22012880.714     1521301.23349   1171612.57947  22012881.029    22012888.370
  23427647.717    -3574259.20149  -2772132.56345  23427647.537    23427656.188
  23607585.951    -4427918.35949  -2891613.63445  23607586.098    23607596.966
  21625603.799      895378.73449    688136.91447  21625603.086    21625610.992
 03  6  8 15 59  0.0000000  0  8G18G21G17G 6G30G29G26G10
  24331026.629    -5016376.95849  -3891729.31245  24331026.381    24331035.578
  21829492.256    -3439519.02549  -2666921.10147  21829491.867    21829498.119
  21135522.017    -2570127.28949  -1970718.05747  21135521.563    21135529.439
  20490546.153    -2688818.25849  -1955356.00248  20490546.070    20490552.945
  22029415.179     1608190.05849   1239318.08647  22029415.483    22029422.852
  23416602.209    -3632303.48949  -2817361.84745  23416602.073    23416610.801
  23589931.617    -4520691.69849  -2963904.38145  23589931.821    23589942.673
  21639062.497      966103.96349    743247.43947  21639061.729    21639069.624
 03  6  8 15 59 30.0000000  0  8G18G21G17G 6G30G29G26G10
  24310210.506    -5125765.20649  -3976966.80145  24310210.253    24310219.570
  21819210.139    -3493552.10049  -2709024.78847  21819209.745    21819215.995
  21129856.011    -2599902.30549  -1993919.37747  21129855.565    21129863.466
  20484656.373    -2719769.40349  -1979473.78448  20484656.278    20484663.144
  22046010.177     1695397.33349   1307271.72947  22046010.494    22046017.900
  23405619.057    -3690020.27349  -2862335.89545  23405618.888    23405627.617
  23572302.938    -4613330.15749  -3036090.02745  23572303.204    23572314.010
  21652603.279     1037261.08649    798694.50447  21652602.505    21652610.422
 03  6  8 16  0  0.0000000  0  8G18G21G17G 6G30G29G26G10
  24289414.009    -5235050.86449  -4062124.35045  24289413.839    24289423.282
  21808967.201    -3547379.20949  -2750967.97647  21808966.786    21808973.047
  21124232.968    -2629451.57249  -2016944.78647  21124232.528    21124240.436
  20478832.946    -2750371.72849  -2003319.75748  20478832.849    20478839.748
  22062665.323     1782920.15349   1375471.26247  22062665.624    22062672.956
  23394698.734    -3747406.70649  -2907052.55145  23394698.607    23394707.321
  23554700.717    -4705830.27649  -3108167.90345  23554700.771    23554711.718
  21666225.692     1108847.55549    854476.12347  21666224.984    21666232.921
 03  6  8 16  2  0.0000000  0  8G30G29G21G18G17G 6G26G10
  22183889.050      167740.97349    121260.63447  22183889.333    22183896.808
  23405669.977     -250131.29249   -180756.56045  23405670.112    23405678.668
  21822401.445     -242499.26849   -174212.82547  21822400.966    21822407.239
  24260446.101     -402853.30749   -290491.55845  24260445.793    24260454.602
                   -168520.73049   -122178.86643
  20510223.335     -168980.69549   -124810.36848  20510223.238    20510230.158
  23538582.257     -353192.36149   -255233.76845  23538581.949    23538592.521
  21775536.091      131859.98649     94882.74647  21775535.580    21775543.603
 03  6  8 16  2 30.0000000  0  8G30G29G21G18G17G 6G26G10
  22194986.679      226058.21249    166702.55947  22194986.760    22194994.240
  23389222.364     -336565.82049   -248108.09146  23389221.969    23389230.848
  21806504.811     -326036.48249   -239306.74947  21806504.341    21806510.633
  24233905.326     -542332.75949   -399176.75945  24233903.038    24233912.668
                   -227685.55049    -28307.85843
  20498886.802     -228553.76549   -171230.95148  20498886.866    20498893.813
  23515271.740     -475687.61549   -350684.50145  23515272.526    23515282.502
  21783710.265      174813.05349    128352.60947  21783709.312    21783717.332
 03  6  8 16  3  0.0000000  0  8G30G29G21G18G17G 6G26G10
  22163825.489       62305.56749     39103.01847  22163825.703    22163833.192
  23330524.862     -645022.60849   -488463.98046  23330524.554    23330533.408
  21748331.978     -631736.54349   -477514.56647  21748331.543    21748337.844
  24165069.421     -904065.59449   -681046.42145  24165068.291    24165077.239
                   -508995.23049   -248016.64543
  20445303.466     -510136.67249   -390646.20848  20445303.451    20445310.415
  23449676.836     -820392.20149   -619285.35945  23449677.326    23449687.218
  21749647.428       -4188.83349    -11129.42347  21749646.453    21749654.470
 03  6  8 16  3 30.0000000  0  8G30G29G21G18G17G 6G26G10
  22180885.286      151955.77749    108960.23847  22180885.563    22180893.154
  23320058.693     -700021.84049   -531320.46746  23320058.550    23320067.321
  21738363.233     -684122.30649   -518334.62547  21738362.855    21738369.154
  24144420.992    -1012571.80149   -765596.63145  24144420.166    24144429.206
                   -536972.90949   -270361.65443
  20439953.532     -538250.96749   -412553.45648  20439953.495    20439960.453
  23432277.724     -911825.09349   -690531.64645  23432278.062    23432288.209
  21763827.366       70327.51249     46935.21347  21763826.466    21763834.489
 03  6  8 16  4  0.0000000  0  8G30G29G21G18G17G 6G26G10
  22198000.642      241897.73949    179044.80147  22198000.984    22198008.616
  23309659.432     -754669.87449   -573903.30146  23309659.279    23309668.096
  21728433.629     -736302.70349   -558994.65847  21728433.249    21728439.559
  24123795.511    -1120958.63149   -850053.82045  24123794.924    24123803.701
                   -564728.17149   -149510.61747                  21080795.401
  20434672.358     -566003.89349   -434179.12448  20434672.301    20434679.235
  23414910.219    -1003091.78949   -761648.42545  23414910.475    23414920.578
  21778084.786      145251.17949    105317.24747  21778083.966    21778092.000
 03  6  8 16  4 30.0000000  0  8G30G29G21G18G17G 6G26G10
  22215171.129      332128.90449    249354.72147  22215171.467    22215179.125
  23299327.650     -808963.54649   -616210.00246  23299327.551    23299336.345
  21718543.162     -788277.54849   -599494.51547  21718542.776    21718549.092
  24103193.321    -1229223.36849   -934415.86645  24103192.737    24103201.579
  21075548.500     -592260.38849   -170964.30347  21075548.212    21075556.096
  20429460.294     -593393.38449   -455521.58748  20429460.259    20429467.174
  23397575.108    -1094188.35549   -832632.64845  23397575.266    23397585.380
  21792419.415      220579.97849    164014.97247  21792418.583    21792426.606
 03  6  8 16  5  0.0000000  0  8G30G29G21G18G17G 6G26G10
  22232396.018      422645.89549    319887.36947  22232396.372    22232403.980
  23289063.646     -862900.82449   -658239.00046  23289063.597    23289072.381
  21708691.653     -840047.41549   -639834.65347  21708691.276    21708697.580
  24082614.615    -1337364.42249  -1018681.56645  24082614.233    24082622.836
  21070351.531     -619570.67249   -192245.05147  21070351.239    21070359.144
  20424317.695     -620418.19149   -476579.88448  20424317.639    20424324.541
  23380272.794    -1185111.75749   -903481.92345  23380273.004    23380283.247
  21806830.448      296310.53549    223025.74547  21806829.646    21806837.646
 03  6  8 16  5 30.0000000  0  8G30G29G21G18G17G 6G26G10
  22249675.094      513447.33049    390641.65147  22249675.450    22249682.992
  23278868.338     -916477.28049   -699986.85046  23278868.305    23278877.068
  21698879.534     -891610.45449   -680013.62147  21698879.158    21698885.484
  24062060.067    -1445378.17849  -1102848.07145  24062059.733    24062068.498
  21065197.067     -646657.88549   -213351.97747  21065196.748    21065204.647
  20419245.102     -647075.08049   -497351.49748  20419245.051    20419251.922
  23363004.538    -1275856.72849   -974192.19145  23363004.778    23363014.990
  21821317.683      372441.45649    282348.49847  21821316.927    21821324.949
 03  6  8 16  6  0.0000000  0  8G30G29G21G18G17G 6G26G10
  22267007.511      604529.30449    461614.54646  22267007.861    22267015.382
  23268742.018     -969691.47149   -741452.40846  23268741.955    23268750.707
  21689106.584     -942967.80749   -720032.32247  21689106.184    21689112.474
  24041529.951    -1553263.37749  -1186914.37345  24041529.775    24041538.444
  21060084.754     -673523.41249   -234286.16147  21060084.407    21060092.315
  20414242.569     -673363.62249   -517836.08548  20414242.504    20414249.402
  23345770.761    -1366420.84749  -1044761.53345  23345770.909    23345781.063
  21835880.441      448969.06149    341980.34247  21835879.695    21835887.700
 03  6  8 16  6 30.0000000  0  9G30G29G21G18G17G 6G15G26G10
  22284390.724      695878.21649    532795.44346  22284391.057    22284398.639
  23258683.165    -1022551.22949   -782641.79246  23258683.129    23258691.825
  21679370.628     -994130.33949   -759899.21647  21679370.254    21679376.534
  24021022.881    -1661028.45649  -1270887.11945  24021022.692    24021031.471
  21055012.576     -700177.90849   -255055.90347  21055012.228    21055020.139
  20409308.424     -699292.75549   -538040.60748  20409308.380    20409315.283
  24733615.786    -1118411.35849   -853749.11945  24733615.294    24733626.499
  23328570.002    -1456811.13549  -1115195.40745  23328570.227    23328580.347
  21850516.170      525880.22049    401911.06647  21850515.433    21850523.426
 03  6  8 16  7  0.0000000  0  9G30G29G21G18G17G 6G15G26G10
  22301826.671      787504.41649    604192.40046  22301827.016    22301834.631
  23248694.739    -1075040.80549   -823542.71046  23248694.714    23248703.366
  21669674.330    -1045084.66349   -799603.87447  21669673.987    21669680.254
  24000541.635    -1768657.93449  -1354754.18045  24000541.441    24000550.261
  21049982.995     -726608.67049   -275651.30847  21049982.620    21049990.530
  20404445.548     -724847.46449   -557953.37548  20404445.486    20404452.390
  24717687.467    -1202116.22549   -918973.69845  24717687.021    24717697.962
  23311405.574    -1547010.70849  -1185480.68945  23311405.750    23311415.906
  21865226.860      603185.35949    462148.78347  21865226.169    21865234.171
 03  6  8 16  7 30.0000000  0 10G30G29G21G18G17G 6G16G15G26G10
  22319314.754      879404.52149    675802.78746  22319315.080    22319322.778
  23238777.060    -1127158.15749   -864153.60146  23238777.010    23238785.681
  21660017.414    -1095832.01549   -839147.24847  21660017.052    21660023.321
  23980086.511    -1876150.38949  -1438514.49745  23980086.341    23980095.189
  21044995.823     -752816.55349   -296073.03847  21044995.443    21045003.358
  20399654.115     -750026.75849   -577573.61348  20399654.053    20399660.963
  24750643.213    -2547454.95649  -1964603.78245  24750642.786    24750650.750
  24701775.583    -1285734.05349   -984130.44845  24701775.026    24701785.750
  23294277.978    -1637016.52649  -1255614.99345  23294278.087    23294288.253
  21880011.946      680881.46649    522691.14347  21880011.273    21880019.292
 03  6  8 16  8  0.0000000  0 10G30G29G21G18G17G 6G16G15G26G10
  22336853.606      971571.67849    747621.26546  22336853.968    22336861.710
  23228929.946    -1178904.47749   -904475.35246  23228929.916    23228938.665
  21650399.403    -1146375.19149   -878531.52947  21650399.031    21650405.291
  23959657.170    -1983507.28749  -1522169.15645  23959656.925    23959665.871
  21040050.344     -778805.30349   -316324.01447  21040049.946    21040057.881
  20394933.699     -774832.77849   -596902.99148  20394933.641    20394940.518
  24734848.930    -2630453.91049  -2029278.31245  24734848.641    24734856.333
  24685879.345    -1369268.49749  -1049222.18045  24685878.903    24685889.630
  23277187.240    -1726828.75049  -1325598.45745  23277187.388    23277197.499
  21894870.238      758961.92349    583533.00547  21894869.567    21894877.578
 03  6  8 16  8 30.0000000  0 10G30G29G21G18G17G 6G16G15G26G10
  22354443.776     1064008.61649    819649.95146  22354444.150    22354452.001
  23219155.018    -1230271.52649   -944501.57946  23219154.994    23219163.794
  21640821.083    -1196709.54449   -917753.09047  21640820.711    21640826.953
  23939255.063    -2090721.02149  -1605712.27545  23939254.788    23939263.822
  21035147.465     -804570.19949   -336400.56347  21035147.071    21035155.003
  20390285.661     -799258.40549   -615935.95448  20390285.599    20390292.465
  24719119.365    -2713112.64649  -2093687.74045  24719119.010    24719126.829
  24670000.142    -1452713.73049  -1114244.40745  24669999.704    24670010.734
  23260135.144    -1816438.20249  -1395423.92845  23260135.203    23260145.362
  21909802.224      837429.38249    644676.42447  21909801.550    21909809.497
 03  6  8 16  9  0.0000000  0 10G30G29G21G18G17G 6G16G15G26G10
  22372084.119     1156708.78549    891883.69846  22372084.488    22372092.339
  23209452.118    -1281260.43549   -984233.24046  23209452.110    23209460.857
  21631281.971    -1246838.02649   -956814.28247  21631281.595    21631287.819
  23918880.045    -2197793.03649  -1689145.04445  23918879.734    23918888.712
  21030286.459     -830115.02549   -356305.67547  21030286.076    21030293.985
  20385709.671     -823305.47849   -634673.98648  20385709.617    20385716.498
  24703454.430    -2795432.41349  -2157833.10445  24703454.124    24703461.968
  24654137.388    -1536073.24849  -1179199.93845  24654136.857    24654147.961
  23243121.538    -1905844.90649  -1465091.51645  23243121.672    23243131.770
  21924806.623      916277.54449    706116.43447  21924805.912    21924813.840
 03  6  8 16  9 30.0000000  0 10G30G29G21G18G17G 6G16G15G26G10
  22389773.954     1249668.75949    964319.84046  22389774.302    22389782.172
  23199821.687    -1331868.93649  -1023668.52846  23199821.678    23199830.334
  21621782.015    -1296760.75849   -995715.17547  21621781.642    21621787.836
  23898532.352    -2304721.49049  -1772466.04545  23898532.040    23898540.800
  21025467.240     -855440.41449   -376039.82647  21025466.862    21025474.729
  20381205.967     -846972.74749   -653116.08648  20381205.925    20381212.790
  24687854.318    -2877411.02149  -2221712.75945  24687853.944    24687862.175
  24638290.935    -1619347.10349  -1244088.87845  24638290.426    24638301.566
  23226147.068    -1995045.76249  -1534598.76845  23226147.243    23226157.166
  21939882.815      995503.33549    767850.67247  21939882.126    21939890.094
 03  6  8 16 10  0.0000000  0 10G30G29G21G18G17G 6G16G15G26G10
  22407512.834     1342886.68949   1036957.05546  22407513.191    22407521.059
  23190264.312    -1382093.45649  -1062804.54346  23190264.314    23190273.012
  21612321.297    -1346477.44949  -1034455.47847  21612320.902    21612327.091
  23878212.489    -2411503.25049  -1855672.64445  23878212.208    23878220.983
  21020689.880     -880545.95449   -395602.62647  21020689.479    21020697.352
  20376775.026     -870257.76749   -671260.29248  20376774.982    20376781.847
  24672320.018    -2959044.89249  -2285323.72445  24672319.679    24672327.783
  24622461.203    -1702534.01749  -1308910.03645  24622460.624    24622471.658
  23209212.809    -2084035.91449  -1603941.76345  23209213.005    23209222.875
  21955030.559     1075104.90649    829877.77347  21955029.879    21955037.926
 03  6  8 16 10 30.0000000  0 10G30G29G21G18G17G 6G16G15G26G10
  22425299.857     1436357.65849   1109791.52246  22425300.217    22425308.104
  23180780.183    -1431933.37049  -1101640.75046  23180780.070    23180788.791
  21602899.452    -1395989.71749  -1073036.42247  21602899.044    21602905.237
  23857920.501    -2518138.00049  -1938764.53645  23857920.246    23857929.077
  21015953.922     -905433.74049   -414995.69047  21015953.508    21015961.392
  20372416.701     -893160.99249   -689106.94748  20372416.649    20372423.538
  24656851.287    -3040333.47849  -2348665.29845  24656851.047    24656858.891
  24606647.664    -1785635.58349  -1373664.34445  24606647.062    24606657.747
  23192318.985    -2172813.84749  -1673119.23745  23192319.192    23192328.971
  21970248.980     1155077.85849    892194.33847  21970248.294    21970256.445
 03  6  8 16 11  0.0000000  0 10G30G29G21G18G17G 6G16G15G26G10
  22443134.637     1530079.60449   1182821.52246  22443134.991    22443142.902
  23171369.693    -1481385.20649  -1140174.60646  23171369.665    23171378.437
  21593516.562    -1445297.19949  -1111457.82647  21593516.170    21593522.406
  23837657.013    -2624622.93049  -2021739.75345  23837656.784    23837665.611
  21011259.523     -930103.13649   -434218.60147  21011259.098    21011266.991
  20368131.533     -915679.77049   -706654.05248  20368131.496    20368138.409
  24641448.870    -3121273.70949  -2411735.57845  24641448.610    24641456.645
  24590850.463    -1868650.79849  -1438351.50445  24590849.879    24590860.635
  23175466.324    -2261374.94549  -1742127.79545  23175466.549    23175476.272
  21985537.572     1235420.13049    954798.65947  21985536.939    21985545.161
 03  6  8 16 11 30.0000000  0 10G30G29G21G18G17G 6G16G15G26G10
  22461016.661     1624049.63649   1256044.84746  22461016.991    22461024.897
  23162033.627    -1530446.50449  -1178404.14046  23162033.588    23162042.350
  21584172.705    -1494399.27849  -1149719.16447  21584172.338    21584178.610
  23817422.443    -2730955.64749  -2104596.32645  23817422.292    23817431.191
  21006606.657     -954554.24349   -453271.41047  21006606.229    21006614.119
  20363919.804     -937812.57249   -723900.39748  20363919.772    20363926.713
  24626113.242    -3201863.08549  -2474532.43145  24626113.007    24626121.107
  24575069.716    -1951579.37749  -1502971.17845  24575069.193    24575079.881
  23158655.500    -2349715.84749  -1810964.78445  23158655.766    23158665.459
  22000896.063     1316129.16549   1017688.77047  22000895.407    22000903.695
 03  6  8 16 12  0.0000000  0 10G30G29G21G18G17G 6G16G15G26G10
  22478945.360     1718265.18349   1329459.47346  22478945.720    22478953.655
  23152772.362    -1579114.45749  -1216327.18346  23152772.359    23152781.047
  21574867.940    -1543296.27949  -1187820.71047  21574867.580    21574873.868
  23797217.433    -2837133.59749  -2187332.35445  23797217.239    23797226.181
  21001995.256     -978787.22149   -472154.24847  21001994.822    21002002.732
  20359781.926     -959557.45049   -740844.46048  20359781.886    20359788.798
  24610844.889    -3282098.69549  -2537053.63445  24610844.827    24610853.026
  24559305.434    -2034420.99949  -1567523.07345  24559304.967    24559315.534
  23141887.472    -2437832.15849  -1879626.76045  23141887.785    23141897.368
  22016323.871     1397202.55449   1080862.78647  22016323.216    22016331.559
 03  6  8 16 12 30.0000000  0 10G30G29G21G18G17G 6G16G15G26G10
  22496919.964     1812722.18449   1403062.24946  22496920.335    22496928.290
  23143586.406    -1627387.72549  -1253942.67246  23143586.348    23143594.927
  21565602.136    -1591988.45849  -1225762.66447  21565601.765    21565608.067
  23777041.989    -2943155.93149  -2269947.08145  23777041.766    23777050.734
  20997425.184    -1002803.19149   -490867.99947  20997424.765    20997432.712
  20355717.987     -980913.86349   -757485.82948  20355717.940    20355724.852
  24595644.255    -3361979.32949  -2599298.21145  24595644.239    24595652.170
  24543557.686    -2117176.51649  -1632007.86445  24543557.109    24543567.692
  23125162.547    -2525721.65749  -1948111.98745  23125162.813    23125172.489
  22031820.276     1478636.37449   1144317.66147  22031819.619    22031827.983
 03  6  8 16 13  0.0000000  0 10G30G29G21G18G17G 6G16G15G26G10
  22514939.863     1907417.08449   1476850.39846  22514940.242    22514948.244
  23134475.891    -1675264.23149  -1291249.00246  23134475.795    23134484.313
  21556375.133    -1640476.76849  -1263545.74147  21556374.752    21556381.052
  23756896.444    -3049021.05949  -2352439.32445  23756896.233    23756905.184
  20992896.157    -1026603.14249   -509413.41647  20992895.751    20992903.743
  20351728.087    -1001880.93249   -773823.80948  20351728.042    20351734.969
  24580511.379    -3441503.17449  -2661264.77545  24580511.386    24580519.307
  24527826.220    -2199846.25649  -1696425.82045  24527825.739    24527836.364
  23108481.395    -2613381.17849  -2016418.01745  23108481.621    23108491.305
  22047384.626     1560427.24449   1208050.76147  22047383.954    22047392.288
 03  6  8 16 13 30.0000000  0 10G30G29G21G18G17G 6G16G15G26G10
  22533004.716     2002347.97449   1550822.43146  22533005.095    22533013.084
  23125441.386    -1722740.53149  -1328243.48346  23125441.360    23125449.832
  21547187.055    -1688760.49449  -1301169.41847  21547186.663    21547192.946
  23736781.370    -3154725.83949  -2434806.62745  23736781.218    23736790.062
  20988408.408    -1050186.62149   -527790.15747  20988407.997    20988415.990
  20347812.766    -1022456.02249   -789856.35248  20347812.732    20347819.697
  24565447.137    -3520666.74949  -2722950.59845  24565446.985    24565454.995
  24512111.298    -2282428.79049  -1760775.83845  24512110.889    24512121.403
  23091844.951    -2700806.17049  -2084541.29745  23091845.148    23091854.833
  22063016.599     1642573.41849   1272060.71547  22063015.942    22063024.205
 03  6  8 16 14  0.0000000  0 10G30G29G21G18G17G 6G16G15G26G10
  22551113.963     2097512.33149   1624976.38446  22551114.338    22551122.351
  23116483.574    -1769813.95049  -1364924.02046  23116483.601    23116492.037
  21538038.000    -1736838.96649  -1338633.14947  21538037.607    21538043.918
  23716697.398    -3260267.84149  -2517047.07545  23716697.212    23716706.075
  20983961.925    -1073553.27549   -545997.94447  20983961.516    20983969.494
  20343972.374    -1042637.32949   -805582.04948  20343972.331    20343979.350
  24550451.891    -3599467.19949  -2784353.46345  24550451.676    24550459.669
  24496413.080    -2364923.78449  -1825057.63145  24496412.586    24496423.158
  23075253.885    -2787992.71749  -2152478.76245  23075254.094    23075263.768
  22078715.752     1725072.55949   1336345.71547  22078715.103    22078723.297
 03  6  8 16 14 30.0000000  0 10G30G29G21G18G17G 6G16G15G26G10
  22569267.004     2192906.68449   1699309.54146  22569267.361    22569275.328
  23107602.874    -1816482.29449  -1401288.93446  23107602.849    23107611.266
  21528927.945    -1784712.71049  -1375937.36447  21528927.574    21528933.862
  23696644.702    -3365645.27549  -2599159.30545  23696644.465    23696653.292
  20979556.561    -1096703.82549   -564037.34147  20979556.145    20979564.084
  20340207.162    -1062423.68849   -821000.00348  20340207.148    20340214.143
  24535526.104    -3677902.60249  -2845471.90045  24535525.839    24535534.099
  24480731.348    -2447331.48649  -1889271.40945  24480730.843    24480741.446
  23058708.788    -2874937.48149  -2220227.83845  23058709.018    23058718.624
  22094481.492     1807921.52849   1400903.29647  22094480.799    22094488.987
 03  6  8 16 15  0.0000000  0 10G30G29G21G18G17G 6G16G15G26G10
  22587463.100     2288527.39549   1773819.10146  22587463.434    22587471.437
  23098799.451    -1862744.00949  -1437336.97846  23098799.464    23098807.887
  21519856.635    -1832382.66049  -1413082.76647  21519856.244    21519862.551
  23676623.626    -3470856.70249  -2681142.15345  23676623.335    23676632.192
  20975192.112    -1119639.23049   -581909.08647  20975191.707    20975199.670
  20336517.275    -1081814.30649   -836109.57748  20336517.272    20336524.212
  24520670.176    -3755971.10949  -2906304.41545  24520669.883    24520678.056
  24465066.080    -2529652.69049  -1953417.76345  24465065.598    24465076.227
  23042210.234    -2961637.63749  -2287786.31245  23042210.500    23042220.153
  22110313.015     1891116.69549   1465730.65447  22110312.339    22110320.546
 03  6  8 16 15 30.0000000  0 10G30G29G21G18G17G 6G16G15G26G10
  22605701.865     2384372.23849   1848503.31446  22605702.208    22605710.187
  23090074.191    -1908595.71349  -1473065.53846  23090074.164    23090082.589
  21510824.331    -1879847.79849  -1450068.57447  21510823.946    21510830.214
  23656634.627    -3575899.15949  -2762993.34845  23656634.393    23656643.328
  20970868.696    -1142359.09749   -599612.88047  20970868.290    20970876.220
  20332903.206    -1100806.76349   -850908.90148  20332903.184    20332910.091
  24505884.577    -3833669.61449  -2966848.64545  24505884.290    24505892.649
  24449417.441    -2611886.07249  -2017495.69945  24449417.100    24449427.610
  23025759.094    -3048088.69249  -2355150.67345  23025759.339    23025769.002
  22126210.065     1974656.25749   1530826.36747  22126209.434    22126217.619
 03  6  8 16 16  0.0000000  0 10G30G29G21G18G17G 6G16G15G26G10
  22623982.705     2480438.34049   1923359.91946  22623983.052    22623991.004
  23081427.217    -1954035.23749  -1508472.92146  23081427.290    23081435.668
  21501831.016    -1927107.92149  -1486894.63847  21501830.652    21501836.873
  23636678.260    -3680770.73849  -2844711.41645  23636678.038    23636686.791
  20966586.234    -1164863.77949   -617149.00447  20966585.835    20966593.752
  20329365.100    -1119399.59549   -865396.83448  20329365.073    20329372.000
  24491169.883    -3910995.83349  -3027102.80045  24491169.535    24491177.966
  24433785.633    -2694031.28349  -2081504.93845  24433785.323    24433795.937
  23009356.036    -3134287.11049  -2422318.19045  23009356.284    23009365.877
  22142172.241     2058537.71249   1596188.49246  22142171.574    22142179.767
 03  6  8 16 16 30.0000000  0 10G30G29G21G18G17G 6G16G15G26G10
  22642304.877     2576721.74649   1998385.86346  22642305.248    22642313.215
  23072859.144    -1999061.09349  -1543557.96246  23072859.212    23072867.512
  21492876.468    -1974164.50749  -1523562.09747  21492876.101    21492882.280
  23616754.623    -3785470.29749  -2926295.41545  23616754.381    23616763.055
  20962344.394    -1187154.77449   -634518.60647  20962343.961    20962351.902
  20325903.127    -1137592.36249   -879573.01748  20325903.100    20325910.057
  24476526.310    -3987948.50449  -3087065.84945  24476526.044    24476534.453
  24418170.514    -2776089.26949  -2145446.17645  24418170.132    24418180.910
  22993001.589    -3220230.36249  -2489286.84446  22993001.816    22993011.366
  22158198.679     2142756.96249   1661813.83946  22158197.988    22158206.191
 03  6  8 16 17  0.0000000  0 10G30G29G21G18G17G 6G16G15G26G10
  22660668.027     2673220.19049   2073579.37746  22660668.395    22660676.369
  23064370.373    -2043670.11449  -1578318.20546  23064370.399    23064378.681
  21483960.801    -2021016.76549  -1560070.33747  21483960.434    21483966.556
  23596864.268    -3889994.93949  -3007743.12645  23596863.981    23596872.613
  20958143.432    -1209231.07349   -651720.92147  20958143.000    20958150.953
  20322517.771    -1155382.69349   -893435.62048  20322517.734    20322524.667
  24461954.322    -4064524.30749  -3146735.25345  24461954.022    24461962.575
  24402572.158    -2858059.50349  -2209319.05245  24402571.731    24402582.301
  22976696.437    -3305914.03349  -2556053.21846  22976696.644    22976706.246
  22174288.961     2227311.91749   1727700.77046  22174288.319    22174296.520
 03  6  8 16 17 30.0000000  0 10G30G29G21G18G17G 6G16G15G26G10
  22679071.542     2769930.66049   2148938.09746  22679071.945    22679079.854
  23055961.225    -2087860.07149  -1612751.90446  23055961.280    23055969.597
  21475084.003    -2067664.62549  -1596419.30547  21475083.629    21475089.766
  23577007.546    -3994342.61049  -3089052.93345  23577007.297    23577015.777
  20953983.219    -1231093.13049   -668756.28647  20953982.799    20953990.725
  20319209.338    -1172768.98049   -906983.38248  20319209.284    20319216.169
  24447454.522    -4140721.26349  -3206109.45445  24447454.169    24447462.679
  24386990.609    -2939941.41349  -2273123.11245  24386990.268    24387000.890
  22960441.317    -3391334.66749  -2622614.65146  22960441.588    22960451.178
  22190442.705     2312199.87449   1793847.18546  22190442.016    22190450.210
 03  6  8 16 18  0.0000000  0 10G30G29G21G18G17G 6G16G15G26G10
  22697514.848     2866850.30649   2224459.80246  22697515.247    22697523.139
  23047632.278    -2131628.50849  -1646857.14746  23047632.346    23047640.700
  21466246.034    -2114108.62849  -1632609.43147  21466245.647    21466251.787
  23557184.969    -4098511.06449  -3170223.10845  23557184.591    23557193.175
  20949863.700    -1252741.53549   -685625.17947  20949863.261    20949871.171
  20315978.036    -1189749.81049   -920215.21348  20315977.971    20315984.852
  24433027.187    -4216536.57149  -3265186.28845  24433026.908    24433035.418
  24371425.768    -3021734.74849  -2336858.14445  24371425.383    24371436.021
  22944237.097    -3476488.29449  -2688968.03245  22944237.295    22944246.895
  22206659.327     2397418.35949   1860251.15646  22206658.640    22206666.838
 03  6  8 16 18 30.0000000  0 10G30G29G21G18G17G 6G16G15G26G10
  22715997.316     2963975.90949   2300141.99246  22715997.692    22716005.681
  23039384.058    -2174973.10649  -1680632.12846  23039384.106    23039392.451
  21457447.058    -2160347.84949  -1668639.98947  21457446.659    21457452.761
  23537396.797    -4202498.32949  -3251252.09845  23537396.459    23537405.004
  20945784.714    -1274176.80249   -702327.99047  20945784.285    20945792.163
  20312824.055    -1206323.91649   -933130.11248  20312824.005    20312830.923
  24418672.959    -4291968.07749  -3323964.07545  24418672.655    24418681.222
  24355877.806    -3103439.66049  -2400524.24445  24355877.436    24355888.094
  22928084.248    -3561371.68649  -2755110.84345  22928084.437    22928093.973
  22222938.216     2482963.96549   1926910.02146  22222937.520    22222945.745
 03  6  8 16 19  0.0000000  0 10G30G29G21G18G17G 6G16G15G26G10
  22734518.265     3061303.75449   2375981.77946  22734518.660    22734526.699
  23031216.710    -2217892.74949  -1714075.96046  23031216.731    23031225.124
  21448686.737    -2206383.67849  -1704512.04747  21448686.313    21448692.431
  23517643.315    -4306303.21049  -3332138.93745  23517642.955    23517651.559
  20941746.165    -1295399.61449   -718865.24747  20941745.731    20941753.584
  20309747.679    -1222490.53349   -945727.48748  20309747.634    20309754.558
  24404392.043    -4367014.59049  -3382441.84645  24404391.711    24404400.149
  24340346.540    -3185056.74549  -2464121.92345  24340346.179    24340356.741
  22911983.392    -3645981.99949  -2821040.85745  22911983.524    22911993.000
  22239278.707     2568833.44849   1993821.26646  22239277.978    22239286.195
 03  6  8 16 19 30.0000000  0 10G30G29G21G18G17G 6G16G15G26G10
  22753077.180     3158831.17649   2451977.08046  22753077.562    22753085.627
  23023130.872    -2260384.55349  -1747186.42046  23023130.858    23023139.249
  21439965.195    -2252215.47549  -1740225.11447  21439964.791    21439970.934
  23497925.067    -4409923.38049  -3412881.85845  23497924.705    23497933.212
  20937748.026    -1316410.24949   -735237.17247  20937747.579    20937755.409
  20306749.198    -1238247.97449   -958006.01748  20306749.120    20306756.063
  24390184.881    -4441673.59649  -3440617.65245  24390184.596    24390192.938
  24324832.022    -3266585.45749  -2527650.75545  24324831.500    24324842.121
  22895935.268    -3730315.37049  -2886755.06845  22895935.354    22895944.756
  22255680.288     2655024.30449   2060982.93846  22255679.563    22255687.793
 03  6  8 16 20  0.0000000  0 10G30G29G21G18G17G 6G16G15G26G10
  22771673.781     3256556.56049   2528126.63546  22771674.187    22771682.285
  23015127.033    -2302445.20649  -1779960.92446  23015127.049    23015135.344
  21431282.664    -2297842.43749  -1775778.58447  21431282.262    21431288.434
  23478242.521    -4513355.25749  -3493478.04745  23478242.112    23478250.768
  20933790.419    -1337207.58549   -751442.88847  20933789.969    20933797.795
  20303829.070    -1253593.47249   -969963.55248  20303829.002    20303835.946
  24376052.347    -4515941.10449  -3498488.43745  24376052.020    24376060.284
  24309334.686    -3348024.11749  -2591109.41745  24309334.177    24309345.194
  22879940.706    -3814366.75149  -2952249.57045  22879940.847    22879950.159
  22272142.822     2741535.11249   2128393.91946  22272142.037    22272150.306
 03  6  8 16 20 30.0000000  0 10G30G29G21G18G17G 6G16G15G26G10
  22790307.318     3354475.58749   2604427.07646  22790307.658    22790315.747
  23007205.483    -2344073.51949  -1812398.55846  23007205.453    23007213.740
  21422638.787    -2343266.03849  -1811173.58947  21422638.396    21422644.572
  23458595.898    -4616598.25749  -3573927.08945  23458595.602    23458604.191
  20929873.199    -1357792.92949   -767483.42447  20929872.741    20929880.541
  20300987.323    -1268527.00749   -981600.08648  20300987.239    20300994.179
  24361994.384    -4589816.38849  -3556053.58845  24361994.062    24362002.121
  24293854.428    -3429374.02849  -2654498.91445  24293853.845    24293864.526
  22864000.150    -3898134.02049  -3017522.66845  22864000.282    22864009.616
  22288665.412     2828361.81049   2196051.03946  22288664.559    22288672.909
 03  6  8 16 21  0.0000000  0 10G30G29G21G18G17G 6G16G15G26G10
  22808977.040     3452584.81049   2680875.73046  22808977.323    22808985.426
  22999366.451    -2385267.78149  -1844497.95046  22999366.420    22999374.706
  21414033.626    -2388486.46649  -1846410.26947  21414033.233    21414039.424
  23438985.505    -4719650.85749  -3654227.73545  23438985.268    23438993.901
  20925996.156    -1378167.04849   -783359.35847  20925995.704    20926003.469
  20298224.113    -1283047.60149   -992914.84348  20298224.042    20298230.986
  24348011.530    -4663297.42849  -3613311.52645  24348011.233    24348019.046
  24278390.660    -3510635.93049  -2717819.80445  24278390.100    24278400.983
  22848114.276    -3981614.06349  -3082571.96245  22848114.480    22848123.824
  22305247.367     2915501.00549   2263951.67946  22305246.589    22305254.996
 03  6  8 16 21 30.0000000  0 10G30G29G21G18G17G 6G16G15G26G10
  22827682.549     3550882.80049   2757471.47246  22827682.844    22827690.989
  22991610.742    -2426024.28249  -1876256.23746  22991610.670    22991618.957
  21405467.466    -2433502.15349  -1881487.42147  21405467.054    21405473.170
  23419412.218    -4822509.41249  -3734377.20046  23419411.968    23419420.513
  20922159.441    -1398329.31249   -799070.21347  20922158.981    20922166.725
  20295540.094    -1297152.31749  -1003905.54348  20295540.040    20295546.964
  24334104.391    -4736380.36649  -3670259.27245  24334104.120    24334111.796
  24262944.049    -3591807.96849  -2781070.65645  24262943.523    24262954.441
  22832284.078    -4064801.89549  -3147393.56145  22832284.329    22832293.653
  22321888.644     3002951.39649   2332094.80146  22321887.858    22321896.312
 03  6  8 16 22  0.0000000  0 10G30G29G21G18G17G 6G16G15G26G10
  22846423.311     3649365.86749   2834211.43146  22846423.600    22846431.776
  22983938.572    -2466341.41849  -1907672.16246  22983938.510    22983946.846
  21396940.150    -2478313.64249  -1916405.45447  21396939.747    21396945.803
  23399875.969    -4925172.41149  -3814374.26846  23399875.753    23399884.347
  20918362.936    -1418279.96849   -814616.18447  20918362.489    20918370.247
  20292935.416    -1310840.20449  -1014571.44448  20292935.363    20292942.280
  24320273.326    -4809063.70349  -3726895.63745  24320273.075    24320280.590
  24247514.713    -3672890.28149  -2844251.62045  24247514.185    24247524.921
  22816510.083    -4147694.32949  -3211984.96945  22816510.339    22816519.746
  22338588.642     3090709.89849   2400478.00446  22338587.748    22338596.237
 03  6  8 16 22 30.0000000  0 10G30G29G21G18G17G 6G16G15G26G10
  22865198.434     3748029.62849   2911092.19546  22865198.772    22865206.974
  22976350.144    -2506218.55949  -1938745.23846  22976350.104    22976358.478
  21388451.359    -2522922.62349  -1951165.68747  21388450.963    21388456.990
  23380377.110    -5027639.36149  -3894218.57546  23380376.893    23380385.477
  20914606.302    -1438021.13349   -829998.91247  20914605.860    20914613.665
  20290410.045    -1324111.40249  -1024912.65448  20290409.961    20290416.869
  24306518.276    -4881346.77549  -3783220.09945  24306517.958    24306525.461
  24232102.205    -3753884.32149  -2907363.83145  24232101.725    24232112.206
  22800792.793    -4230289.30849  -3276344.61746  22800792.960    22800802.305
  22355346.345     3178772.06349   2469097.83146  22355345.526    22355353.973
 03  6  8 16 23  0.0000000  0 10G30G29G21G18G17G 6G16G15G26G10
  22884007.601     3846872.32649   2988112.39546  22884007.941    22884016.220
  22968846.155    -2545652.08149  -1969472.64346  22968846.149    22968854.513
  21380001.334    -2567327.93449  -1985767.22047  21380000.933    21380006.958
  23360916.198    -5129906.88749  -3973907.48546  23360915.984    23360924.574
  20910889.695    -1457551.96849   -845217.74647  20910889.263    20910897.101
  20287964.407    -1336963.23149  -1034927.07648  20287964.315    20287971.266
  24292839.865    -4953226.08449  -3839229.94445  24292839.598    24292847.373
  24216706.698    -3834788.39849  -2970405.94545  24216706.184    24216716.593
  22785132.992    -4312581.95549  -3340468.68146  22785133.201    22785142.453
  22372161.606     3267136.37149   2537953.09046  22372160.755    22372169.227
 03  6  8 16 23 30.0000000  0 10G30G29G21G18G17G 6G16G15G26G10
  22902850.502     3945892.05849   3065270.53346  22902850.876    22902859.176
  22961427.118    -2584639.22349  -1999852.21846  22961427.115    22961435.504
  21371590.236    -2611528.53049  -2020209.23447  21371589.836    21371595.899
  23341493.788    -5231972.16149  -4053438.78846  23341493.511    23341502.202
  20907213.243    -1476871.71249   -860272.09247  20907212.808    20907220.696
  20285598.988    -1349393.58549  -1044613.07948  20285598.922    20285605.890
  24279239.190    -5024698.52349  -3894922.75945  24279238.773    24279246.751
  24201328.331    -3915601.68449  -3033377.27245  24201327.790    24201338.155
  22769531.588    -4394567.94349  -3404353.79946  22769531.791    22769541.017
  22389033.970     3355801.04449   2607042.39846  22389033.125    22389041.604
 03  6  8 16 24  0.0000000  0 10G30G29G21G18G17G 6G16G15G26G10
  22921726.030     4045083.74049   3142562.64046  22921726.459    22921734.789
  22954093.090    -2623179.67249  -2029883.73046  22954093.062    22954101.490
  21363217.627    -2655526.45349  -2054493.32047  21363217.243    21363223.392
  23322109.935    -5333835.03149  -4132812.40246  23322109.619    23322118.261
  20903576.581    -1495982.36949   -875163.51547  20903576.155    20903584.063
  20283313.663    -1361402.96249  -1053971.04848  20283313.604    20283320.606
  24265715.964    -5095763.69649  -3950298.22945  24265715.544    24265723.466
  24185966.820    -3996325.99749  -3096279.27745  24185966.324    24185976.747
  22753988.753    -4476245.70249  -3467998.73346  22753988.991    22753998.214
  22405962.575     3444761.46149   2676362.15046  22405961.775    22405970.255
 03  6  8 16 24 30.0000000  0 10G30G29G21G18G17G 6G16G15G26G10
  22940634.111     4144446.31549   3219987.92146  22940634.489    22940642.967
  22946844.804    -2661269.42749  -2059564.04246  22946844.740    22946853.185
  21354884.001    -2699319.72449  -2088617.94247  21354883.632    21354889.833
  23302765.276    -5435491.67049  -4212025.28346  23302764.921    23302773.611
  20899979.962    -1514882.59249   -889890.96247  20899979.565    20899987.492
  20281109.083    -1372988.10949  -1062998.44848  20281109.050    20281116.052
  24252270.896    -5166417.45549  -4005353.12645  24252270.453    24252278.496
  24170622.741    -4076959.29749  -3159110.36045  24170622.247    24170632.779
  22738505.729    -4557609.71349  -3531399.18646  22738505.960    22738515.143
  22422947.243     3534016.48149   2745911.47446  22422946.457    22422954.945
 03  6  8 16 25  0.0000000  0 10G30G29G21G18G17G 6G16G15G26G10
  22959573.885     4243975.48549   3297543.01346  22959574.317    22959582.865
  22939682.419    -2698907.71949  -2088892.56146  22939682.378    22939690.836
  21346589.003    -2742910.05649  -2122584.42647  21346588.644    21346594.894
  23283460.053    -5536941.18549  -4291076.79346  23283459.697    23283468.397
  20896423.142    -1533573.89949   -904455.61547  20896422.737    20896430.652
  20278985.240    -1384149.04249  -1071695.28648  20278985.201    20278992.193
  24238904.300    -5236659.09449  -4060086.87345  24238903.966    24238911.929
  24155295.723    -4157502.88649  -3221871.53845  24155295.257    24155305.819
  22723082.678    -4638657.76549  -3594553.44546  22723082.937    22723092.189
  22439987.272     3623562.26649   2815687.36846  22439986.481    22439994.954
 03  6  8 16 25 30.0000000  0 10G30G29G21G18G17G 6G16G15G26G10
  22978544.787     4343667.95649   3375225.35446  22978545.224    22978553.838
  22932606.343    -2736092.67949  -2117867.84846  22932606.347    22932614.742
  21338332.630    -2786297.41049  -2156392.74647  21338332.280    21338338.573
  23264194.463    -5638182.01049  -4369965.67746  23264194.134    23264202.861
  20892906.004    -1552056.64149   -918857.75547  20892905.602    20892913.491
  20276942.334    -1394884.68649  -1080060.73648  20276942.285    20276949.276
  24225616.545    -5306486.60349  -4114497.91845  24225616.155    24225624.122
  24139985.867    -4237956.76249  -3284562.80745  24139985.406    24139995.932
  22707720.436    -4719386.50149  -3657458.88046  22707720.672    22707730.031
  22457082.017     3713395.69349   2885687.38946  22457081.246    22457089.724
 03  6  8 16 26  0.0000000  0 10G30G29G21G18G17G 6G16G15G26G10
  22997546.348     4443521.56849   3453033.27546  22997546.799    22997555.451
  22925617.050    -2772821.68849  -2146487.83946  22925617.056    22925625.374
  21330115.072    -2829481.08549  -2190042.36047  21330114.709    21330120.992
  23244969.116    -5739211.45149  -4448689.85246  23244968.813    23244977.491
  20889428.667    -1570330.27649   -933096.95247  20889428.260    20889436.113
  20274980.715    -1405193.02849  -1088093.21948  20274980.663    20274987.663
  24212407.900    -5375897.35949  -4168584.22045  24212407.639    24212415.600
  24124693.242    -4318320.18849  -3347183.61645  24124692.742    24124703.178
  22692419.776    -4799791.85149  -3720112.32146  22692419.965    22692429.304
  22474231.078     3803514.43749   2955909.75146  22474230.274    22474238.759
 03  6  8 16 26 30.0000000  0 10G30G29G21G18G17G 6G16G15G26G10
  23016578.152     4543533.92949   3530964.88646  23016578.584    23016587.289
  22918715.043    -2809091.87749  -2174750.31246  22918715.054    22918723.347
  21321936.325    -2872460.59449  -2223532.87647  21321935.981    21321942.249
  23225784.549    -5840026.69649  -4527247.13146  23225784.294    23225792.916
  20885991.191    -1588394.47949   -947172.95447  20885990.789    20885998.625
  20273100.809    -1415072.00349  -1095791.13048  20273100.764    20273107.783
  24199279.333    -5444888.39449  -4222343.44645  24199279.117    24199287.072
  24109418.064    -4398592.18149  -3409733.16245  24109417.508    24109427.963
  22677181.435    -4879869.34249  -3782510.29046  22677181.664    22677191.056
  22491434.075     3893916.70349   3026353.02646  22491433.294    22491441.745
 03  6  8 16 27  0.0000000  0 10G30G29G21G18G17G 6G16G15G26G10
  23035639.382     4643700.96249   3609017.02646  23035639.779    23035648.467
  22911900.493    -2844902.57749  -2202654.73946  22911900.502    22911908.852
  21313796.252    -2915237.06649  -2256865.18247  21313795.876    21313802.110
  23206640.846    -5940626.94049  -4605636.85646  23206640.587    23206649.270
  20882593.288    -1606250.63249   -961086.84047  20882592.862    20882600.708
  20271302.620    -1424521.53449  -1103154.41248  20271302.569    20271309.646
  24186230.928    -5513458.55449  -4275774.72745  24186230.790    24186238.551
  24094159.918    -4478773.89549  -3472212.36145  24094159.311    24094169.875
  22662005.955    -4959616.78549  -3844651.07446  22662006.170    22662015.500
  22508690.213     3984598.44249   3097014.08446  22508689.459    22508697.922
 03  6  8 16 27 30.0000000  0 10G30G29G21G18G17G 6G16G15G26G10
  23054729.402     4744019.46449   3687187.19046  23054729.812    23054738.562
  22905173.695    -2880251.92349  -2230199.67246  22905173.679    22905182.040
  21305694.634    -2957810.83249  -2290039.54347  21305694.275    21305700.511
  23187538.370    -6041010.47449  -4683857.73646  23187538.142    23187546.843
  20879234.675    -1623899.83349   -974839.47247  20879234.267    20879242.181
  20269586.269    -1433540.55249  -1110182.23548  20269586.238    20269593.410
  24173262.953    -5581605.98149  -4328876.61445  24173262.689    24173270.585
  24078918.773    -4558865.31449  -3534621.19645  24078918.262    24078928.915
  22646893.888    -5039030.90149  -3906532.14146  22646894.082    22646903.375
  22525998.992     4075556.96649   3167890.79646  22525998.236    22526006.781
 03  6  8 16 28  0.0000000  0 10G30G29G21G18G17G 6G16G15G26G10
  23073847.639     4844486.39449   3765473.00446  23073848.048    23073856.889
  22898535.144    -2915137.79249  -2257383.45946  22898535.124    22898543.487
  21297631.720    -3000181.48549  -2323055.62547  21297631.357    21297637.657
  23168477.527    -6141175.15749  -4761908.06446  23168477.357    23168486.065
  20875915.430    -1641342.29549   -988431.00647  20875915.025    20875923.019
  20267952.089    -1442127.88849  -1116873.67948  20267952.069    20267959.307
  24160375.556    -5649328.69449  -4381647.53545  24160375.380    24160383.415
  24063694.995    -4638866.38449  -3596959.65545  24063694.471    24063705.112
  22631845.887    -5118107.97649  -3968150.55846  22631846.119    22631855.423
  22543359.904     4166789.10749   3238980.73046  22543359.177    22543367.775
 03  6  8 16 28 30.0000000  0 10G30G29G21G18G17G 6G16G15G26G10
  23092993.590     4945098.87449   3843872.21446  23092993.963    23093002.864
  22891985.149    -2949558.21149  -2284204.54946  22891985.148    22891993.479
  21289607.384    -3042349.37449  -2355913.71447  21289607.052    21289613.361
  23149458.776    -6241119.11149  -4839786.42746  23149458.594    23149467.268
  20872635.588    -1658577.83249  -1001861.30247  20872635.195    20872643.229
  20266400.367    -1450282.02449  -1123227.56448  20266400.343    20266407.606
  24147569.510    -5716624.47949  -4434085.79945  24147569.466    24147577.410
  24048488.477    -4718776.84649  -3659227.50645  24048487.968    24048498.627
  22616862.677    -5196844.61149  -4029503.71246  22616862.952    22616872.197
  22560772.417     4258292.45549   3310281.99146  22560771.693    22560780.353
 03  6  8 16 29  0.0000000  0 10G30G29G21G18G17G 6G16G15G26G10
  23112167.092     5045856.24049   3922384.33646  23112167.509    23112176.417
  22885524.462    -2983509.04949  -2310659.72946  22885524.441    22885532.848
  21281622.067    -3084312.20249  -2388612.01747  21281621.740    21281628.102
  23130482.798    -6340838.23449  -4917489.57246  23130482.630    23130491.303
  20869395.546    -1675604.12949  -1015128.55247  20869395.168    20869403.225
  20264931.791    -1457999.57549  -1129241.25748  20264931.770    20264938.993
  24134845.589    -5783489.14349  -4486188.13145  24134845.534    24134853.376
  24033299.686    -4798594.50349  -3721423.02145  24033299.253    24033309.837
  22601945.371    -5275235.13349  -4090587.16146  22601945.609    22601954.938
  22578236.525     4350066.39849   3381794.10646  22578235.783    22578244.463
 03  6  8 16 29 30.0000000  0 10G30G29G21G18G17G 6G16G15G26G10
  23131367.043     5146752.39449   4001004.60646  23131367.507    23131376.503
  22879152.846    -3016991.54849  -2336749.97946  22879152.862    22879161.364
  21273675.252    -3126073.06649  -2421152.94247  21273674.921    21273681.308
  23111549.415    -6440333.48449  -4995018.26946  23111549.267    23111557.934
  20866194.716    -1692424.54549  -1028235.36647  20866194.334    20866202.432
  20263545.990    -1465282.28049  -1134916.10548  20263545.949    20263553.162
  24122203.530    -5849923.54149  -4537955.17045  24122203.396    24122211.364
  24018127.981    -4878322.21049  -3783548.44345  24018127.537    24018138.046
  22587094.059    -5353278.94049  -4151400.44246  22587094.280    22587103.632
  22595750.959     4442105.19649   3453512.60146  22595750.197    22595758.922
 03  6  8 16 30  0.0000000  0 10G30G29G21G18G17G 6G16G15G26G10
  23150593.115     5247785.45949   4079731.56346  23150593.537    23150602.530
  22872871.103    -3050002.43849  -2362472.73146  22872871.081    22872879.620
  21265767.080    -3167630.80149  -2453535.59247  21265766.746    21265773.158
  23092659.299    -6539601.84249  -5072370.16646  23092659.145    23092667.759
  20863033.221    -1709038.24149  -1041181.11047  20863032.833    20863040.970
  20262243.349    -1472127.84749  -1140250.32948  20262243.311    20262250.513
  24109643.982    -5915924.40049  -4589384.37945  24109643.831    24109651.834
  24002973.588    -4957958.58949  -3845602.72845  24002973.148    24002983.543
  22572309.491    -5430971.65349  -4211940.15346  22572309.725    22572319.133
  22613315.491     4534406.90849   3525435.95446  22613314.718    22613323.456
 03  6  8 16 30 30.0000000  0 10G30G29G21G18G17G 6G16G15G26G10
  23169844.602     5348951.89249   4158562.43946  23169844.960    23169854.021
  22866679.241    -3082540.90849  -2387827.36646  22866679.247    22866687.766
  21257897.422    -3208986.11849  -2485760.50747  21257897.084    21257903.502
  23073812.494    -6638642.30349  -5149544.47346  23073812.282    23073820.909
  20859910.723    -1725447.10949  -1053967.24147  20859910.325    20859918.475
  20261023.971    -1478535.89649  -1145243.62048  20261023.925    20261031.112
  24097167.107    -5981490.74549  -4640475.01045  24097166.988    24097174.970
  23987836.536    -5037504.30149  -3907586.36345  23987836.067    23987846.433
  22557592.390    -5508310.33149  -4272203.99046  22557592.644    22557601.959
  22630929.436     4626968.33249   3597561.69246  22630928.664    22630937.387
 03  6  8 16 31  0.0000000  0 10G30G29G21G18G17G 6G16G15G26G10
  23189121.189     5450250.25649   4237496.12646  23189121.515    23189130.524
  22860577.968    -3114603.23849  -2412810.96846  22860578.001    22860586.479
  21250066.555    -3250137.60849  -2517826.59947  21250066.215    21250072.649
  23055009.786    -6737450.89049  -5226538.10746  23055009.569    23055018.156
  20856827.582    -1741649.24449  -1066592.28947  20856827.179    20856835.310
  20259888.387    -1484503.47249  -1149893.69048  20259888.331    20259895.548
  24084773.719    -6046618.64049  -4691223.98845  24084773.489    24084781.604
  23972717.035    -5116957.54649  -3969497.92345  23972716.574    23972726.967
  22542943.638    -5585289.97449  -4332188.05746  22542943.795    22542953.107
  22648592.578     4719788.36549   3669888.94446  22648591.786    22648600.541
 03  6  8 16 31 30.0000000  0 10G30G29G21G18G17G 6G16G15G26G10
  23208421.851     5551675.30449   4316528.52646  23208422.213    23208431.214
  22854567.309    -3146189.70449  -2437423.78246  22854567.332    22854575.781
  21242274.163    -3291086.98849  -2549735.20147  21242273.820    21242280.219
  23036251.144    -6836028.14449  -5303351.48846  23036250.955    23036259.422
  20853783.370    -1757646.88549  -1079057.98947  20853782.956    20853791.076
  20258836.395    -1490031.62249  -1154201.35148  20258836.339    20258843.586
  24072463.583    -6111308.47349  -4741631.63645  24072463.320    24072471.437
  23957614.701    -5196320.57749  -4031339.16445  23957614.129    23957624.540
  22528363.490    -5661909.33349  -4391891.39246  22528363.648    22528372.865
  22666303.911     4812861.92649   3742413.75346  22666303.155    22666311.945
 03  6  8 16 32  0.0000000  0 10G30G29G21G18G17G 6G16G15G26G10
  23227746.603     5653227.00249   4395659.60646  23227746.915    23227755.951
  22848648.048    -3177295.89749  -2461662.34346  22848648.050    22848656.494
  21234520.684    -3331831.84049  -2581484.42247  21234520.307    21234526.708
  23017537.444    -6934369.21149  -5379980.80646  23017537.181    23017545.647
  20850778.519    -1773437.71449  -1091362.53347  20850778.107    20850786.183
  20257868.781    -1495116.49049  -1158163.59448  20257868.739    20257875.958
  24060237.889    -6175555.53049  -4791694.24745  24060237.574    24060245.592
  23942530.093    -5275590.37349  -4093107.76745  23942529.612    23942539.876
  22513853.105    -5738162.14849  -4451309.09146  22513853.264    22513862.416
  22684063.473     4906188.96849   3815136.08146  22684062.700    22684071.524
 03  6  8 16 32 30.0000000  0 10G30G29G21G18G17G 6G16G15G26G10
  23247094.695     5754901.36049   4474886.26846  23247095.061    23247104.078
  22842820.355    -3207920.76649  -2485525.85846  22842820.325    22842828.774
  21226806.024    -3372372.86749  -2613074.83247  21226805.658    21226811.989
  22998868.924    -7032473.04049  -5456425.28146  22998868.615    22998877.009
  20847812.787    -1789022.77649  -1103506.74547  20847812.390    20847820.412
  20256985.608    -1499757.70349  -1161780.13548  20256985.561    20256992.780
  24048096.647    -6239358.38749  -4841410.72745  24048096.389    24048104.325
  23927463.218    -5354767.62349  -4154804.28245  23927462.683    23927472.888
  22499412.907    -5814045.76849  -4510439.12346  22499413.080    22499422.191
  22701870.618     4999765.93949   3888053.15746  22701869.832    22701878.702
 03  6  8 16 33  0.0000000  0 10G30G29G21G18G17G 6G16G15G26G10
  23266465.328     5856693.86049   4554204.98246  23266465.691    23266474.649
  22837084.183    -3238064.16449  -2509014.19146  22837084.176    22837092.683
  21219129.667    -3412712.50349  -2644508.31147  21219129.282    21219135.603
  22980245.367    -7130339.72349  -5532684.97346  22980245.157    22980253.546
  20844885.934    -1804403.81249  -1115491.96947  20844885.516    20844893.502
  20256186.739    -1503955.91049  -1165051.47348  20256186.684    20256193.892
  24036039.926    -6302716.90749  -4890780.97445  24036039.636    24036047.633
  23912413.566    -5433853.94249  -4216429.94645  23912413.110    23912423.351
  22485043.228    -5889558.50049  -4569280.14646  22485043.398    22485052.578
  22719724.574     5093588.78649   3961161.82246  22719723.842    22719732.669
 03  6  8 16 33 30.0000000  0 10G30G29G21G18G17G 6G16G15G26G10
  23285858.165     5958603.17349   4633614.71946  23285858.506    23285867.483
  22831440.285    -3267722.91049  -2532124.88146  22831440.263    22831448.686
  21211491.981    -3452848.88349  -2675783.40247  21211491.610    21211497.894
  22961667.818    -7227965.41649  -5608756.85946  22961667.598    22961675.937
  20841998.039    -1819579.81949  -1127317.42847  20841997.605    20842005.566
  20255472.684    -1507708.45049  -1167975.53648  20255472.638    20255479.847
  24024068.415    -6365627.51249  -4939802.19045  24024068.173    24024076.190
  23897381.568    -5512847.71949  -4277983.45845  23897381.018    23897391.349
  22470745.071    -5964695.37649  -4627828.30346  22470745.247    22470754.435
  22737625.056     5187656.20749   4034461.06646  22737624.290    22737633.144
 03  6  8 16 34  0.0000000  0 10G30G29G21G18G17G 6G16G15G26G10
  23305272.368     6060624.78749   4713111.96146  23305272.675    23305281.691
  22825888.763    -3296896.60649  -2554857.60646  22825888.696    22825897.026
  21203892.885    -3492782.45449  -2706900.46047  21203892.501    21203898.748
  22943136.205    -7325349.75849  -5684640.69746  22943136.008    22943144.256
  20839148.896    -1834552.13349  -1138984.16547  20839148.478    20839156.430
  20254843.420    -1511015.34949  -1170552.34848  20254843.374    20254850.582
  24012182.354    -6428089.68949  -4988473.97945  24012182.032    24012190.027
  23882366.939    -5591750.04749  -4339465.73745  23882366.352    23882376.749
  22456518.817    -6039454.25949  -4686081.90846  22456519.016    22456528.221
  22755571.261     5281964.12649   4107947.71546  22755570.526    22755579.362
 03  6  8 16 34 30.0000000  0 10G30G29G21G18G17G 6G16G15G26G10
  23324707.405     6162756.42849   4792694.93646  23324707.751    23324716.815
  22820430.008    -3325582.72449  -2577210.41046  22820429.965    22820438.257
  21196332.262    -3532513.86949  -2737859.99647  21196331.875    21196338.078
  22924650.952    -7422490.17649  -5760334.46746  22924650.765    22924658.982
  20836338.519    -1849320.78249  -1150492.20547  20836338.093    20836346.027
  20254299.286    -1513874.96349  -1172780.63148  20254299.230    20254306.453
  24000382.089    -6490100.84549  -5036794.33845  24000381.751    24000389.703
  23867369.932    -5670560.22249  -4400876.20445  23867369.265    23867379.610
  22442365.264    -6113831.33749  -4744038.00346  22442365.405    22442374.616
  22773562.915     5376510.22649   4181619.95946  22773562.201    22773570.964
 03  6  8 16 35  0.0000000  0 10G30G29G21G18G17G 6G16G15G26G10
  23344163.138     6264996.59149   4872362.45746  23344163.472    23344172.543
  22815064.522    -3353778.56349  -2599181.16146  22815064.479    22815072.745
  21188810.444    -3572041.32549  -2768660.59347  21188810.032    21188816.242
  22906212.700    -7519383.51749  -5835835.69446  22906212.520    22906220.743
  20833567.250    -1863884.10449  -1161840.24947  20833566.832    20833574.744
  20253840.717    -1516284.92149  -1174658.52848  20253840.648    20253847.875
  23988668.224    -6551657.74849  -5084760.72445  23988667.931    23988675.915
  23852390.504    -5749276.88649  -4462213.78945  23852390.004    23852400.390
  22428285.275    -6187821.75349  -4801692.80646  22428285.421    22428294.640
  22791599.598     5471293.09449   4255476.69646  22791598.844    22791607.573
 03  6  8 16 35 30.0000000  0 10G30G29G21G18G17G 6G16G15G26G10
  23363638.567     6367340.59749   4952110.92146  23363638.909    23363648.092
  22809792.352    -3381483.78349  -2620769.63646  22809792.280    22809800.593
  21181327.271    -3611365.64949  -2799302.91447  21181326.873    21181333.062
  22887821.640    -7616029.18149  -5911143.92846  22887821.381    22887829.598
  20830834.609    -1878244.20949  -1173029.93847  20830834.193    20830842.110
  20253467.659    -1518245.55049  -1176186.29648  20253467.576    20253474.807
  23977040.860    -6612760.13349  -5132372.93945  23977040.580    23977048.578
  23837428.720    -5827901.46849  -4523479.63245  23837428.302    23837438.587
  22414279.223    -6261423.68849  -4859044.89746  22414279.377    22414288.609
  22809680.501     5566308.55149   4329514.66046  22809679.737    22809688.454
 03  6  8 16 36  0.0000000  0 10G30G29G21G18G17G 6G16G15G26G10
  23383133.223     6469785.09649   5031937.66945  23383133.564    23383142.621
  22804613.686    -3408697.28749  -2641974.94546  22804613.615    22804622.051
  21173882.494    -3650488.04049  -2829787.88347  21173882.086    21173888.321
  22869477.947    -7712426.10249  -5986258.35546  22869477.670    22869485.838
  20828140.579    -1892401.53349  -1184061.62347  20828140.159    20828148.086
  20253180.152    -1519756.55949  -1177363.71748  20253180.065    20253187.269
  23965500.215    -6673406.65949  -5179629.94445  23965499.910    23965507.945
  23822484.397    -5906434.66649  -4584674.27645  23822483.937    23822494.180
  22400347.738    -6334634.13249  -4916091.93746  22400347.822    22400357.064
  22827805.033     5661553.27549   4403731.27246  22827804.250    22827812.944
 03  6  8 16 36 30.0000000  0 10G30G29G21G18G17G 6G16G15G26G10
  23402647.104     6572330.43749   5111842.99846  23402647.444    23402656.487
  22799529.579    -3435414.15849  -2662793.26846  22799529.524    22799537.953
  21166476.789    -3689405.43249  -2860113.11147  21166476.393    21166482.608
  22851182.503    -7808569.16549  -6061174.96046  22851182.236    22851190.415
  20825485.614    -1906353.35849  -1194933.17547  20825485.217    20825493.149
  20252979.106    -1520813.29249  -1178187.15048  20252979.004    20252986.200
  23954047.172    -6733592.14249  -5226527.70645  23954046.869    23954055.094
  23807558.069    -5984872.58249  -4645794.65945  23807557.512    23807567.926
  22386491.983    -6407446.65949  -4972828.91146  22386492.134    22386501.316
  22845973.419     5757028.06349   4478127.16446  22845972.522    22845981.223
 03  6  8 16 37  0.0000000  0 10G30G29G21G18G17G 6G16G15G26G10
  23422178.790     6674969.87649   5191821.64446  23422179.173    23422188.234
  22794539.689    -3461636.44349  -2683226.21246  22794539.638    22794547.997
  21159109.234    -3728122.30049  -2890282.08847  21159108.824    21159115.062
  22832934.978    -7904460.22249  -6135895.19946  22832934.708    22832942.917
  20822869.062    -1920103.59349  -1205647.64047  20822868.648    20822876.607
  20252863.959    -1521418.53949  -1178658.78548  20252863.854    20252871.028
  23942681.670    -6793318.46249  -5273067.67945  23942681.377    23942689.427
  23792649.105    -6063218.77049  -4706843.58045  23792648.682    23792658.993
  22372711.869    -6479861.41249  -5029255.94446  22372712.034    22372721.231
  22864184.159     5852726.28449   4552697.15346  22864183.296    22864192.010
 03  6  8 16 37 30.0000000  0 10G30G29G21G18G17G 6G16G15G26G10
  23441728.080     6777701.43649   5271872.08646  23441728.419    23441737.535
  22789644.343    -3487361.66949  -2703271.82446  22789644.337    22789652.639
  21151780.337    -3766635.99949  -2920292.75147  21151779.928    21151786.174
  22814735.975    -8000096.44349  -6210416.86846  22814735.727    22814743.897
  20820291.038    -1933651.38849  -1216204.35747  20820290.593    20820298.562
  20252835.080    -1521570.35649  -1178777.08748  20252834.974    20252842.161
  23931404.031    -6852582.60249  -5319247.52645  23931403.774    23931411.769
  23777757.916    -6141472.24849  -4767820.24845  23777757.411    23777767.713
  22359008.203    -6551874.26949  -5085369.80446  22359008.391    22359017.540
  22882437.123     5948646.20449   4627439.90446  22882436.339    22882445.048
 03  6  8 16 38  0.0000000  0 10G30G29G21G18G17G 6G16G15G26G10
  23461294.690     6880524.11849   5351993.53046  23461295.053    23461304.194
  22784844.379    -3512586.22649  -2722927.30846  22784844.290    22784852.537
  21144490.329    -3804945.21249  -2950144.07247  21144489.934    21144496.209
  22796586.136    -8095474.20649  -6284737.14246  22796585.892    22796594.029
  20817751.804    -1946995.14149  -1226602.08147  20817751.381    20817759.383
  20252893.013    -1521265.91949  -1178539.87448  20252892.924    20252900.097
  23920214.996    -6911381.09249  -5365064.53245  23920214.730    23920222.734
  23762884.712    -6219631.25849  -4828723.29145  23762884.248    23762894.525
  22345382.016    -6623479.96249  -5141166.38446  22345382.224    22345391.376
  22900732.232     6044787.41749   4702355.08946  22900731.403    22900740.154
 03  6  8 16 38 30.0000000  0 10G30G29G21G18G17G 6G16G15G26G10
  23480877.577     6983432.08749   5432181.43446  23480877.887    23480887.080
  22780139.367    -3537311.57749  -2742193.80846  22780139.287    22780147.430
  21137238.677    -3843052.95649  -2979838.40747  21137238.284    21137244.533
  22778485.303    -8190594.55749  -6358856.82246  22778485.073    22778493.164
  20815250.786    -1960138.12949  -1236843.36547  20815250.352    20815258.385
  20253037.435    -1520507.02349  -1177948.53648  20253037.344    20253044.520
  23909114.320    -6969715.24049  -5410519.70445  23909114.015    23909122.001
  23748028.934    -6297698.76049  -4889555.02145  23748028.452    23748038.650
  22331833.432    -6694678.02649  -5196645.35446  22331833.653    22331842.767
  22919068.261     6141143.92149   4777438.03846  22919067.450    22919076.188
 03  6  8 16 39  0.0000000  0 10G30G29G21G18G17G 6G16G15G26G10
  23500476.628     7086424.82349   5512435.40046  23500476.928    23500486.107
  22775529.983    -3561533.75649  -2761068.20846  22775529.909    22775538.111
  21130025.828    -3880956.65249  -3009373.73247  21130025.438    21130031.738
  22760434.227    -8285453.18949  -6432772.56546  22760434.020    22760442.073
  20812788.411    -1973078.15649  -1246926.49547  20812787.967    20812795.959
  20253269.039    -1519290.10349  -1177000.29348  20253268.954    20253276.123
  23898102.872    -7027580.53549  -5455609.53345  23898102.678    23898110.639
  23733191.147    -6375671.92449  -4950313.25945  23733190.684    23733200.765
  22318363.644    -6765462.71049  -5251802.20246  22318363.858    22318372.809
  22937445.221     6237715.67549   4852688.70946  22937444.467    22937453.277
 03  6  8 16 39 30.0000000  0 10G30G29G21G18G17G 6G16G15G26G10
  23520090.779     7189497.44949   5592751.61146  23520091.109    23520100.290
  22771016.327    -3585253.19049  -2779550.87346  22771016.194    22771024.469
  21122851.482    -3918658.31249  -3038751.63347  21122851.075    21122857.354
  22742433.035    -8380050.21549  -6506484.47346  22742432.752    22742440.788
  20810364.263    -1985817.11749  -1256852.95047  20810363.825    20810371.811
  20253587.568    -1517616.18049  -1175695.94248  20253587.493    20253594.675
  23887180.601    -7084977.12049  -5500334.14845  23887180.419    23887188.432
  23718370.876    -6453552.75849  -5010999.54145  23718370.413    23718380.431
  22304972.805    -6835832.60749  -5306635.82046  22304972.929    22304981.866
  22955862.263     6334497.82149   4928103.32246  22955861.478    22955870.371
 03  6  8 16 40  0.0000000  0 10G30G29G21G18G17G 6G16G15G26G10
  23539720.200     7292650.13149   5673130.18646  23539720.511    23539729.817
  22766599.171    -3608465.36549  -2797638.26146  22766599.051    22766607.371
  21115715.978    -3956155.56749  -3067970.26247  21115715.564    21115721.832
  22724482.467    -8474380.74749  -6579988.71446  22724482.218    22724490.184
  20807978.890    -1998352.35849  -1266620.66647  20807978.446    20807986.459
  20253993.779    -1515481.43149  -1174032.51448  20253993.712    20254000.907
  23876348.392    -7141900.27849  -5544689.87545  23876348.248    23876356.260
  23703568.663    -6531338.24749  -5071611.52845  23703568.281    23703578.327
  22291661.924    -6905781.58849  -5361141.47846  22291662.063    22291671.017
  22974319.457     6431490.76849   5003682.17246  22974318.630    22974327.623
 03  6  8 16 40 30.0000000  0 10G30G29G21G18G17G 6G16G15G26G10
  23559363.739     7395876.50149   5753566.19345  23559364.031    23559373.352
  22762278.183    -3631172.19649  -2815331.88746  22762278.063    22762286.415
  21108618.796    -3993451.40749  -3097031.94247  21108618.378    21108624.614
  22706582.336    -8568446.57649  -6653286.68246  22706582.070    22706589.993
  20805631.610    -2010687.46249  -1276232.43447  20805631.171    20805639.169
  20254487.258    -1512888.32549  -1172011.92648  20254487.190    20254494.382
  23865605.971    -7198351.80849  -5588678.09445  23865605.845    23865613.832
  23688784.062    -6609031.41449  -5132151.57645  23688783.667    23688793.774
  22278431.149    -6975309.61849  -5415319.10146  22278431.313    22278440.243
  22992815.570     6528688.54049   5079420.63946  22992814.805    22992823.857
 03  6  8 16 41  0.0000000  0 10G30G29G21G18G17G 6G16G15G26G10
  23579020.870     7499174.48949   5834057.99145  23579021.093    23579030.432
  22758053.880    -3653371.35649  -2832629.91846  22758053.767    22758062.057
  21101560.255    -4030544.36149  -3125935.52647  21101559.824    21101566.034
  22688733.021    -8662244.86449  -6726376.18646  22688732.788    22688740.680
  20803322.584    -2022821.61449  -1285687.61147  20803322.170    20803330.153
  20255068.289    -1509834.89849  -1169632.64048  20255068.238    20255075.419
  23854953.890    -7254328.95949  -5632296.66645  23854953.709    23854961.675
  23674017.347    -6686631.10849  -5192618.80245  23674016.869    23674026.901
  22265281.317    -7044412.48949  -5469165.44046  22265281.477    22265290.373
  23011350.384     6626089.37349   5155317.33746  23011349.684    23011358.695
 03  6  8 16 41 30.0000000  0 10G30G29G21G18G17G 6G16G15G26G10
  23598691.020     7602541.33649   5914603.45745  23598691.286    23598700.635
  22753926.471    -3675061.48449  -2849531.30846  22753926.285    22753934.592
  21094540.340    -4067434.03749  -3154680.71547  21094539.924    21094546.151
  22670935.034    -8755773.73449  -6799255.75346  22670934.798    22670942.656
  20801051.777    -2034754.77749  -1294986.18047  20801051.342    20801059.319
  20255737.131    -1506320.28149  -1166893.98948  20255737.075    20255744.245
  23844392.553    -7309830.17149  -5675544.38445  23844392.270    23844400.169
  23659268.503    -6764137.37449  -5253013.23045  23659267.950    23659277.951
  22252213.064    -7113086.95749  -5522677.96946  22252213.144    22252221.980
  23029923.421     6723690.59149   5231370.17546  23029922.666    23029931.701
 03  6  8 16 42  0.0000000  0 10G30G29G21G18G17G 6G16G15G26G10
  23618373.845     7705975.29149   5995201.20045  23618374.149    23618383.521
  22749896.229    -3696239.78649  -2866033.86646  22749896.115    22749904.517
  21087559.168    -4104120.26849  -3183267.37747  21087558.777    21087564.956
  22653188.878    -8849030.41649  -6871923.22446  22653188.634    22653196.458
  20798819.416    -2046485.91849  -1304127.32747  20798818.977    20798826.953
  20256494.173    -1502342.27649  -1163794.25748  20256494.101    20256501.273
  23833922.264    -7364852.29549  -5718418.77545  23833921.929    23833929.870
  23644537.528    -6841548.86549  -5313333.79945  23644537.018    23644546.935
  22239227.020    -7181328.60749  -5575853.22446  22239227.154    22239235.941
  23048534.294     6821490.76349   5307578.04546  23048533.551    23048542.531
 03  6  8 16 42 30.0000000  0 10G30G29G21G18G17G 6G16G15G26G10
  23638068.709     7809471.88449   6075847.77345  23638069.015    23638078.399
  22745963.390    -3716906.56949  -2882137.82846  22745963.357    22745971.744
  21080616.535    -4140603.95649  -3211696.20947  21080616.143    21080622.332
  22635494.469    -8942014.53649  -6944378.31346  22635494.224    22635502.057
  20796625.115    -2058016.91549  -1313112.51347  20796624.696    20796632.654
  20257339.183    -1497901.54349  -1160333.95648  20257339.116    20257346.323
  23823543.185    -7419395.28649  -5760919.83345  23823542.875    23823550.740
  23629824.358    -6918867.06349  -5373581.66845  23629823.814    23629833.717
  22226323.782    -7249135.70549  -5628689.86546  22226323.906    22226332.618
  23067182.215     6919485.74449   5383937.71146  23067181.502    23067190.431
 03  6  8 16 43  0.0000000  0 10G30G29G21G18G17G 6G16G15G26G10
  23657775.266     7913030.40549   6156542.58545  23657775.603    23657785.128
  22742128.729    -3737058.08049  -2897840.28846  22742128.632    22742137.004
  21073712.819    -4176883.22649  -3239965.75747  21073712.403    21073718.565
  22617852.741    -9034722.20049  -7016617.97246  22617852.517    22617860.329
  20794469.303    -2069345.95749  -1321940.33847  20794468.869    20794476.802
  20258272.870    -1492995.05849  -1156510.73948  20258272.809    20258280.029
  23813255.952    -7473455.13349  -5803044.41945  23813255.646    23813263.418
  23615129.272    -6996089.66049  -5433755.05045  23615128.776    23615138.691
  22213504.162    -7316502.78649  -5681183.64146  22213504.321    22213513.014
  23085867.197     7017675.05249   5460448.79746  23085866.447    23085875.328
 03  6  8 16 43 30.0000000  0 10G30G29G21G18G17G 6G16G15G26G10
  23677492.597     8016645.29849   6237281.30945  23677492.943    23677502.478
  22738391.840    -3756695.90949  -2913142.47446  22738391.689    22738399.984
  21066847.434    -4212961.01749  -3268078.30947  21066847.025    21066853.181
  22600263.372    -9127154.49749  -7088643.06846  22600263.133    22600270.922
  20792351.262    -2080476.32449  -1330613.34747  20792350.845    20792358.744
  20259294.840    -1487624.75549  -1152326.09748  20259294.762    20259301.986
  23803060.394    -7527033.26549  -5844793.64345  23803060.125    23803067.828
  23600451.905    -7073219.40249  -5493856.07945  23600451.368    23600461.358
  22200768.357    -7383429.55349  -5733334.29046  22200768.548    22200777.291
  23104588.055     7116053.28149   5537107.09446  23104587.287    23104596.125
 03  6  8 16 44  0.0000000  0 10G30G29G21G18G17G 6G16G15G26G10
  23697220.769     8120316.93449   6318064.26445  23697221.165    23697230.655
  22734753.421    -3775815.52749  -2928040.85346  22734753.358    22734761.591
  21060021.102    -4248833.62249  -3296030.98147  21060020.701    21060026.854
  22582727.377    -9219306.40449  -7160449.67546  22582727.153    22582734.971
  20790271.679    -2091404.61549  -1339128.90047  20790271.245    20790279.123
  20260405.878    -1481786.49949  -1147776.81548  20260405.793    20260412.996
  23792957.457    -7580124.74349  -5886163.65645  23792957.228    23792964.946
  23585792.888    -7150252.71849  -5553881.97045  23585792.366    23585802.323
  22188117.645    -7449909.48049  -5785136.76346  22188117.816    22188126.521
  23123345.003     7214621.17749   5613913.15946  23123344.202    23123353.058
 03  6  8 16 44 30.0000000  0 10G30G29G21G18G17G 6G16G15G26G10
  23716958.415     8224038.62649   6398886.21045  23716958.841    23716968.410
  22731213.372    -3794419.11749  -2942537.13946  22731213.278    22731221.440
  21053233.095    -4284504.92049  -3323826.78647  21053232.700    21053238.853
  22565244.406    -9311179.79049  -7232039.24846  22565244.177    22565252.006
  20788229.900    -2102134.45949  -1347489.81547  20788229.478    20788237.315
  20261605.401    -1475483.16649  -1142865.13348  20261605.312    20261612.459
  23782946.636    -7632731.56649  -5927156.03445  23782946.509    23782954.192
  23571151.540    -7227193.38749  -5613835.65645  23571151.011    23571160.936
  22175551.820    -7515943.17949  -5836591.52946  22175552.005    22175560.649
  23142136.782     7313372.31849   5690862.03046  23142135.992    23142144.847
 03  6  8 16 45  0.0000000  0 10G30G29G21G18G17G 6G16G15G26G10
  23736705.722     8327810.76949   6479747.47745  23736706.180    23736715.708
  22727772.223    -3812502.41349  -2956627.98346  22727772.161    22727780.388
  21046484.106    -4319971.00749  -3351462.68947  21046483.703    21046489.871
  22547815.362    -9402769.75749  -7303407.97946  22547815.103    22547822.923
  20786226.443    -2112662.84249  -1355693.74947  20786226.015    20786233.827
  20262894.165    -1468710.71149  -1137587.90448  20262894.080    20262901.206
  23773028.983    -7684849.04149  -5967767.07245  23773028.815    23773036.677
  23556528.510    -7304037.96849  -5673714.50045  23556528.055    23556537.854
  22163072.106    -7581524.07849  -5887693.46946  22163072.294    22163080.927
  23160963.507     7412307.15649   5767954.02846  23160962.769    23160971.567
 03  6  8 16 45 30.0000000  0 10G30G29G21G18G17G 6G16G15G26G10
  23756461.679     8431628.18549   6560644.01345  23756462.043    23756471.574
  22724429.935    -3830066.28549  -2970314.08846  22724429.855    22724438.117
  21039773.519    -4355235.30049  -3378941.35347  21039773.118    21039779.300
  22530440.181    -9494076.84349  -7374556.28946  22530439.901    22530447.754
  20784260.879    -2122992.04049  -1363742.47547  20784260.446    20784268.254
  20264271.932    -1461470.54749  -1131946.23048  20264271.837    20264278.959
  23763204.263    -7736477.72649  -6007997.25145  23763204.146    23763212.111
  23541923.424    -7380788.51249  -5733520.06145  23541922.866    23541932.658
  22150678.700    -7646651.23149  -5938441.83646  22150678.894    22150687.550
  23179824.361     7511420.91449   5845185.44446  23179823.542    23179832.326
 03  6  8 16 46  0.0000000  0 10G30G29G21G18G17G 6G16G15G26G10
  23776225.872     8535488.98749   6641574.35845  23776226.161    23776235.821
  22721186.765    -3847108.48649  -2983593.69246  22721186.780    22721195.116
  21033101.660    -4390296.28449  -3406261.59547  21033101.257    21033107.430
  22513119.308    -9585098.28949  -7445482.02746  22513119.052    22513126.863
  20782333.264    -2133121.71849  -1371635.73447  20782332.820    20782340.620
  20265738.991    -1453761.19749  -1125938.95248  20265738.911    20265746.036
  23753473.042    -7787615.33249  -6047844.76745  23753472.902    23753480.971
  23527336.280    -7457444.16849  -5793251.66645  23527335.724    23527345.570
  22138372.401    -7711320.75749  -5988833.61846  22138372.604    22138381.334
  23198718.907     7610712.00649   5922555.05246  23198718.071    23198726.807
 03  6  8 16 46 30.0000000  0 11G30G29G21G18G17G 6G16G15G26G10G23
  23795997.252     8639387.73349   6722534.26045  23795997.554    23796007.340
  22718042.668    -3863630.58849  -2996468.03046  22718042.726    22718051.044
  21026468.028    -4425156.15949  -3433425.12947  21026467.649    21026473.822
  22495852.679    -9675834.98849  -7516185.88146  22495852.376    22495860.188
  20780443.127    -2143054.49949  -1379375.57347  20780442.699    20780450.507
  20267294.974    -1445584.44149  -1119567.46448  20267294.894    20267302.052
  23743835.386    -7838262.59049  -6087310.20145  23743835.244    23743843.105
  23512766.780    -7534007.26749  -5852911.17345  23512766.251    23512775.971
  22126153.291    -7775531.96649  -6038868.24846  22126153.473    22126162.304
  23217646.200     7710175.37449   6000058.92246  23217645.419    23217654.041
  24530424.639    -5855096.85549  -4529725.21345  24530424.271    24530436.039
 03  6  8 16 47  0.0000000  0 11G30G29G21G18G17G 6G16G15G26G10G23
  23815775.709     8743323.56349   6803523.07445  23815776.001    23815785.899
  22714998.293    -3879629.36249  -3008934.57946  22714998.244    22715006.560
  21019873.021    -4459813.15449  -3460430.57147  21019872.645    21019878.835
  22478640.857    -9766283.51749  -7586665.19046  22478640.561    22478648.335
  20778590.861    -2152788.15249  -1386960.23947  20778590.441    20778598.259
  20268940.470    -1436937.34549  -1112829.47248  20268940.395    20268947.566
  23734291.576    -7888416.26849  -6126391.02045  23734291.262    23734299.172
  23498215.214    -7610475.72349  -5912496.90745  23498214.595    23498224.487
  22114022.442    -7839279.81549  -6088541.82946  22114022.621    22114031.465
  23236606.252     7809810.45149   6077696.59046  23236605.453    23236614.000
  24511134.148    -5956468.80049  -4608716.26845  24511133.876    24511145.390
 03  6  8 16 47 30.0000000  0 11G30G29G21G18G17G 6G16G15G26G10G23
  23835560.845     8847295.15449   6884539.72245  23835561.135    23835571.166
  22712053.847    -3895101.98749  -3020991.15546  22712053.852    22712062.162
  21013316.920    -4494265.72749  -3487276.72547  21013316.544    21013322.746
  22461484.551    -9856440.40049  -7656917.24546  22461484.268    22461492.039
  20776776.745    -2162321.48049  -1394388.81647  20776776.317    20776784.157
  20270675.942    -1427817.51849  -1105723.12648  20270675.873    20270683.043
  23724842.320    -7938073.13849  -6165084.72345  23724841.974    23724849.739
  23483681.824    -7686848.03749  -5972007.74145  23483681.236    23483691.323
  22101980.643    -7902559.73349  -6137850.79946  22101980.847    22101989.596
  23255598.718     7909616.28749   6155467.29146  23255597.845    23255606.480
  24491873.569    -6057683.83449  -4687585.03745  24491873.159    24491884.899
 03  6  8 16 48  0.0000000  0 11G30G29G21G18G17G 6G16G15G26G10G23
  23855352.312     8951299.84649   6965582.17545  23855352.673    23855362.783
  22709209.806    -3910047.20349  -3032636.74946  22709209.911    22709218.170
  21006799.865    -4528513.15249  -3513963.02547  21006799.475    21006805.685
  22444383.951    -9946303.95449  -7726940.73046  22444383.706    22444391.480
  20775000.705    -2171654.70149  -1401661.46147  20775000.267    20775008.111
  20272501.557    -1418224.07849  -1098247.72448  20272501.489    20272508.632
  23715487.920    -7987231.45849  -6203389.94045  23715487.539    23715495.260
  23469166.883    -7763123.76749  -6031443.31745  23469166.305    23469176.439
  22090028.565    -7965368.30149  -6186792.47546  22090028.751    22090037.459
  23274623.052     8009590.19049   6233368.96546  23274622.254    23274630.964
  24472643.271    -6158739.87449  -4766329.93745  24472642.931    24472654.622
 03  6  8 16 48 30.0000000  0 11G30G29G21G18G17G 6G16G15G26G10G23
  23875149.307     9055333.08249   7046646.87245  23875149.657    23875159.799
  22706466.127    -3924465.61249  -3043871.84946  22706466.170    22706474.421
  21000321.378    -4562557.83349  -3540491.34647  21000321.000    21000327.172
  22427339.207   -10035874.12849  -7796735.60746  22427339.006    22427346.802
  20773262.424    -2180789.54249  -1408779.52447  20773262.000    20773269.830
  20274417.039    -1408158.16749  -1090404.17348  20274416.983    20274424.122
  23706228.216    -8035891.66649  -6241307.00645  23706227.820    23706235.500
  23454670.155    -7839304.38349  -6090804.77245  23454669.580    23454679.703
  22078166.400    -8027704.18649  -6235365.82246  22078166.604    22078175.289
  23293678.626     8109728.07549   6311398.38646  23293677.783    23293686.685
  24453443.264    -6259636.87249  -4844950.92145  24453442.915    24453454.594
 03  6  8 16 49  0.0000000  0 11G30G29G21G18G17G 6G16G15G26G10G23
  23894951.501     9159393.77249   7127732.99145  23894951.919    23894961.977
  22703823.202    -3938354.61549  -3054694.42246  22703823.180    22703831.431
  20993881.883    -4596397.66049  -3566860.04047  20993881.498    20993887.638
  22410350.965   -10125147.73449  -7866299.39146  22410350.747    22410358.597
  20771562.191    -2189724.40949  -1415741.76747  20771561.767    20771569.596
  20276422.880    -1397617.42149  -1082190.61948  20276422.825    20276429.969
  23697063.796    -8084050.92649  -6278833.71845  23697063.424    23697071.118
  23440191.985    -7915388.09449  -6150090.74845  23440191.422    23440201.304
  22066395.105    -8089562.77649  -6283567.26646  22066395.272    22066403.915
  23312765.233     8210028.85249   6389554.76246  23312764.370    23312773.344
  24434274.078    -6360371.30349  -4923445.23545  24434273.504    24434285.284
 03  6  8 16 49 30.0000000  0 11G30G29G21G18G17G 6G16G15G26G10G23
  23914758.034     9263476.94749   7208836.60245  23914758.476    23914768.575
  22701280.746    -3951715.06149  -3065105.14246  22701280.681    22701288.975
  20987481.015    -4630034.58749  -3593070.62947  20987480.629    20987486.766
  22393419.174   -10214124.91849  -7935632.20246  22393418.959    22393426.747
  20769899.612    -2198461.34349  -1422549.77747  20769899.188    20769907.041
  20278518.844    -1386603.10749  -1073608.05248  20278518.784    20278525.940
  23687994.686    -8131709.55249  -6315970.33445  23687994.293    23688002.064
  23425731.935    -7991376.94149  -6209302.79645  23425731.304    23425740.989
  22054714.867    -8150942.96949  -6331395.93146  22054715.048    22054723.589
  23331881.996     8310487.92349   6467834.49646  23331881.154    23331890.202
  24415135.573    -6460943.61449  -5001813.18345  24415135.044    24415147.035
 03  6  8 16 50  0.0000000  0 11G30G29G21G18G17G 6G16G15G26G10G23
  23934568.579     9367580.87349   7289956.40045  23934568.933    23934578.978
  22698839.226    -3964544.55349  -3075102.12346  22698839.231    22698847.556
  20981118.995    -4663467.21649  -3619122.02947  20981118.614    20981124.753
  22376544.281   -10302802.85749  -8004731.83446  22376544.081    22376551.852
  20768274.881    -2206999.42149  -1429202.83447  20768274.453    20768282.316
  20280705.324    -1375113.32049  -1064654.98448  20280705.240    20280712.410
  23679021.271    -8178865.04149  -6352714.87545  23679020.915    23679028.633
  23411290.002    -8067269.67949  -6268439.93845  23411289.402    23411299.043
  22043126.393    -8211840.66449  -6378848.63046  22043126.581    22043135.079
  23351028.570     8411104.01949   6546236.55846  23351027.770    23351036.806
  24396028.589    -6561350.57749  -5080052.28745  24396028.251    24396040.099
 03  6  8 16 50 30.0000000  0 11G30G29G21G18G17G 6G16G15G26G10G23
  23954382.586     9471703.71549   7371090.89845  23954383.006    23954393.142
  22696499.146    -3976841.57449  -3084684.19646  22696499.181    22696507.489
  20974796.014    -4696694.86449  -3645013.69847  20974795.621    20974801.736
  22359726.866   -10391179.27549  -8073596.51246  22359726.604    22359734.295
  20766688.176    -2215337.75049  -1435700.23347  20766687.751    20766695.610
  20282982.470    -1363146.72049  -1055330.37648  20282982.393    20282989.587
  23670144.160    -8225514.97749  -6389065.47845  23670143.750    23670151.568
  23396866.457    -8143065.41049  -6327501.51645  23396865.867    23396875.552
  22031630.442    -8272252.01349  -6425922.34546  22031630.639    22031639.101
  23370204.730     8511875.41749   6624759.63846  23370203.934    23370213.034
  24376953.771    -6661589.57849  -5158160.52945  24376953.416    24376965.172
 03  6  8 16 51  0.0000000  0 11G30G29G21G18G17G 6G16G15G26G10G23
  23974199.398     9575840.67549   7452236.44045  23974199.717    23974209.843
  22694260.422    -3988606.78949  -3093851.87946  22694260.380    22694268.619
  20968511.679    -4729719.48949  -3670747.17247  20968511.282    20968517.353
  22342966.687   -10479254.44749  -8142226.46346  22342966.406    22342974.040
  20765138.998    -2223478.69849  -1442043.83847  20765138.564    20765146.477
  20285350.156    -1350704.68749  -1045635.29948  20285350.094    20285357.255
  23661363.069    -8271660.17849  -6425022.79445  23661362.719    23661370.558
  23382461.041    -8218765.76549  -6386488.74545  23382460.450    23382470.216
  22020227.213    -8332175.80149  -6472616.14646  22020227.454    22020235.943
  23389409.584     8612797.62749   6703400.22346  23389408.809    23389417.946
  24357910.891    -6761660.90949  -5236138.10245  24357910.560    24357922.287
 03  6  8 16 51 30.0000000  0 11G30G29G21G18G17G 6G16G15G26G10G23
  23994018.574     9679990.72649   7533392.14245  23994018.836    23994029.076
  22692123.390    -3999837.49349  -3102603.06446  22692123.310    22692131.490
  20962266.319    -4762539.18149  -3696320.95447  20962265.905    20962271.953
  22326264.459   -10567025.09149  -8210619.10946  22326264.199    22326271.786
  20763627.628    -2231420.87449  -1448232.55447  20763627.210    20763635.127
  20287808.770    -1337784.76549  -1035567.84048  20287808.702    20287815.836
  23652678.544    -8317297.37449  -6460584.25545  23652678.221    23652686.164
  23368074.178    -8294368.84649  -6445400.19545  23368073.599    23368083.391
  22008917.770    -8391607.42849  -6518926.45246  22008917.983    22008926.444
  23408643.051     8713870.10149   6782157.89445  23408642.334    23408651.570
  24338900.374    -6861561.04249  -5313982.29245  24338900.150    24338911.653
 03  6  8 16 52  0.0000000  0 11G30G29G21G18G17G 6G16G15G26G10G23
  24013839.261     9784148.56749   7614553.92745  24013839.456    24013849.704
  22690087.542    -4010535.26449  -3110938.97346  22690087.500    22690095.700
  20956059.483    -4795156.24549  -3721736.85147  20956059.062    20956065.115
  22309619.958   -10654491.98249  -8278775.06946  22309619.752    22309627.348
  20762153.773    -2239166.23149  -1454267.90647  20762153.360    20762161.281
  20290357.940    -1324388.87649  -1025129.50048  20290357.878    20290364.997
  23644090.567    -8362427.88949  -6495750.89245  23644090.207    23644098.171
  23353705.416    -8369877.29749  -6504237.90045  23353704.806    23353714.581
  21997702.071    -8450546.41049  -6564852.87646  21997702.258    21997710.702
  23427904.076     8815087.72049   6861028.65945  23427903.420    23427912.691
  24319922.503    -6961290.53149  -5391693.49745  24319922.278    24319933.737
 03  6  8 16 52 30.0000000  0 11G30G29G21G18G17G 6G16G15G26G10G23
  24033661.130     9888313.54049   7695721.24245  24033661.352    24033671.774
  22688153.712    -4020696.96449  -3118857.16046  22688153.778    22688161.993
  20949891.603    -4827568.67749  -3746993.29347  20949891.202    20949897.272
  22293034.059   -10741651.46949  -8346691.49846  22293033.834    22293041.421
  20760717.732    -2246712.77749  -1460148.33947  20760717.294    20760725.233
  20292998.207    -1310514.06449  -1014317.97348  20292998.170    20293005.306
  23635599.647    -8407047.85249  -6530519.70045  23635599.365    23635607.240
  23339355.124    -8445288.52749  -6562999.84345  23339354.501    23339364.311
  21986581.099    -8508987.59149  -6610391.40746  21986581.277    21986589.663
  23447192.820     8916450.27549   6940012.36945  23447192.117    23447201.461
  24300977.850    -7060845.40549  -5469268.65145  24300977.583    24300989.013
 03  6  8 16 53  0.0000000  0 11G30G29G21G18G17G 6G16G15G26G10G23
  24053483.908     9992482.19949   7776891.44045  24053483.999    24053494.760
  22686322.030    -4030322.42149  -3126357.49946  22686322.056    22686330.262
  20943762.532    -4859776.94449  -3772090.64047  20943762.125    20943768.247
  22276506.805   -10828502.58549  -8414367.62946  22276506.595    22276514.136
  20759319.242    -2254061.82849  -1465874.88147  20759318.823    20759326.783
  20295729.618    -1296160.56349  -1003133.44248  20295729.579    20295736.741
  23627205.976    -8451156.93749  -6564890.41545  23627205.676    23627213.607
  23325023.239    -8520603.01549  -6621686.42045  23325022.643    23325032.361
  21975555.280    -8566928.75649  -6655540.31846  21975555.430    21975563.702
  23466508.598     9017954.52249   7019106.48346  23466507.834    23466517.207
  24282066.441    -7160224.72249  -5546706.96545  24282066.206    24282077.504
 03  6  8 16 53 30.0000000  0 11G30G29G21G18G17G 6G16G15G26G10G23
  24073306.896    10096651.83449   7858062.40745  24073307.016    24073317.799
  22684592.680    -4039410.68049  -3133439.24446  22684592.653    22684600.818
  20937672.372    -4891780.91549  -3797028.80047  20937671.991    20937678.093
  22260038.553   -10915043.58649  -8481802.12546  22260038.326    22260045.858
  20757958.405    -2261213.04149  -1471447.26847  20757958.015    20757965.963
  20298552.228    -1281327.70949   -991575.38848  20298552.185    20298559.373
  23618909.829    -8494753.80749  -6598862.00945  23618909.559    23618917.439
  23310709.861    -8595820.78649  -6680297.63645  23310709.232    23310718.799
  21964625.072    -8624366.94449  -6700297.29546  21964625.246    21964633.548
  23485850.726     9119597.94949   7098309.05346  23485850.044    23485859.421
  24263188.810    -7259426.65349  -5624007.07145  24263188.475    24263200.017
 03  6  8 16 54  0.0000000  0 11G30G29G21G18G17G 6G16G15G26G10G23
  24093129.291    10200818.30849   7939230.90445  24093129.513    24093140.274
  22682965.448    -4047962.11349  -3140102.68946  22682965.430    22682973.586
  20931620.828    -4923581.75449  -3821808.67747  20931620.461    20931626.591
  22243629.338   -11001274.22949  -8548994.77946  22243629.116    22243636.659
  20756635.012    -2268167.62549  -1476866.44247  20756634.611    20756642.567
  20301465.872    -1266016.38249   -979644.50048  20301465.838    20301473.032
  23610711.104    -8537838.65949  -6632434.62945  23610710.865    23610718.694
  23296414.550    -8670943.03149  -6738834.40945  23296413.948    23296423.411
  21953790.889    -8681300.55949  -6744661.12046  21953791.077    21953799.358
  23505218.727     9221376.86149   7177617.20846  23505218.036    23505227.357
  24244345.078    -7358450.75049  -5701168.62845  24244344.840    24244356.247
 03  6  8 16 54 30.0000000  0 11G30G29G21G18G17G 6G16G15G26G10G23
  24112950.897    10304981.08349   8020396.50345  24112951.181    24112961.936
  22681440.810    -4055973.80349  -3146345.54046  22681440.845    22681449.038
  20925608.426    -4955177.34749  -3846428.62847  20925608.063    20925614.169
  22227279.860   -11087191.09049  -8615942.93146  22227279.625    22227287.160
  20755349.448    -2274923.37749  -1482130.68147  20755349.051    20755357.003
  20304471.157    -1250223.80149   -967338.61148  20304471.107    20304478.276
  23602610.451    -8580408.08449  -6665605.60545  23602610.272    23602618.088
  23282137.908    -8745967.40249  -6797294.92245  23282137.381    23282146.743
  21943053.714    -8737724.37449  -6788627.69046  21943053.930    21943062.219
  23524612.518     9323290.91749   7257030.66546  23524611.800    23524621.054
  24225535.944    -7457293.04149  -5778188.46945  24225535.891    24225546.982
 03  6  8 16 55  0.0000000  0 11G30G29G21G18G17G 6G16G15G26G10G23
  24132771.321    10409137.02849   8101556.81945  24132771.699    24132782.294
  22680019.013    -4063445.24349  -3152167.43246  22680019.039    22680027.251
  20919635.016    -4986567.87549  -3870888.78347  20919634.658    20919640.757
  22210990.460   -11172792.54249  -8682645.31546  22210990.241    22210997.687
  20754101.634    -2281480.96249  -1487240.50447  20754101.234    20754109.150
  20307568.075    -1233949.61049   -954657.44048  20307568.013    20307575.175
  23594608.031    -8622460.95349  -6698374.07745  23594607.843    23594615.724
  23267879.884    -8820893.97149  -6855679.23345  23267879.353    23267888.559
  21932414.010    -8793636.15849  -6832195.27546  21932414.236    21932422.477
  23544031.291     9425337.34049   7336547.25945  23544030.637    23544039.949
  24206761.730    -7555952.04049  -5855065.45545  24206761.439    24206772.918
 03  6  8 16 55 30.0000000  0 11G30G29G21G18G17G 6G16G15G26G10G23
  24152589.824    10513283.01049   8182709.32445  24152590.240    24152600.754
  22678700.198    -4070376.10949  -3157568.10346  22678700.242    22678708.356
  20913700.611    -5017753.66549  -3895189.40147  20913700.257    20913706.314
  22194761.234   -11258077.63849  -8749101.18546  22194760.997    22194768.423
  20752891.349    -2287841.17349  -1492196.52547  20752890.932    20752898.856
  20310756.639    -1217193.86749   -941601.03248  20310756.576    20310763.700
  23586704.057    -8663996.50549  -6730739.43345  23586703.835    23586711.818
  23253640.283    -8895723.11749  -6913987.60546  23253639.820    23253649.039
  21921872.271    -8849033.38449  -6875361.91646  21921872.483    21921880.708
  23563474.712     9527513.23749   7416164.75345  23563474.156    23563483.454
  24188022.565    -7654426.70949  -5931798.83945  24188022.191    24188033.580
 03  6  8 16 56  0.0000000  0 11G30G29G21G18G17G 6G16G15G26G10G23
  24172405.727    10617415.49649   8263851.33245  24172406.162    24172416.701
  22677484.370    -4076766.23249  -3162547.42546  22677484.245    22677492.288
  20907805.085    -5048735.16949  -3919330.83747  20907804.718    20907810.751
  22178592.277   -11343045.75449  -8815310.05246  22178592.060    22178599.447
  20751718.440    -2294004.81549  -1496999.37547  20751718.025    20751725.968
  20314036.748    -1199956.93349   -928169.66948  20314036.675    20314043.813
  23578898.460    -8705014.55849  -6762701.54645  23578898.258    23578906.293
  23239419.113    -8970455.52249  -6972220.60246  23239418.636    23239427.964
  21911428.794    -8903914.00049  -6918125.98946  21911428.984    21911437.258
  23582942.346     9629815.36849   7495880.61645  23582941.669    23582950.983
  24169318.498    -7752716.05749  -6008387.84545  24169318.120    24169329.528
 03  6  8 16 56 30.0000000  0 11G30G29G21G18G17G 6G16G15G26G10G23
  24192218.974    10721533.88249   8344982.33245  24192219.374    24192230.065
  22676371.755    -4082612.77849  -3167103.16346  22676371.655    22676379.689
  20901948.885    -5079509.84449  -3943311.10647  20901948.502    20901954.549
  22162484.433   -11427692.87049  -8881268.79346  22162484.221    22162491.605
  20750583.518    -2299969.10449  -1501646.89347  20750583.110    20750591.038
  20317408.916    -1182236.24849   -914361.36248  20317408.840    20317415.950
  23571192.123    -8745511.73149  -6794257.78445  23571191.844    23571199.966
  23225216.904    -9045088.80549  -7030376.37946  23225216.387    23225225.686
  21901084.649    -8958272.92649  -6960483.56346  21901084.774    21901093.083
  23602433.924     9732243.58049   7575694.72345  23602433.185    23602442.550
  24150650.569    -7850816.05549  -6084829.26145  24150650.223    24150661.771
 03  6  8 16 57  0.0000000  0 11G30G29G21G18G17G 6G16G15G26G10G23
  24212028.492    10825632.66749   8426098.07945  24212028.901    24212039.576
  22675362.201    -4087917.78649  -3171236.92646  22675362.133    22675370.197
  20896131.493    -5110080.61449  -3967132.48447  20896131.089    20896137.125
  22146437.449   -11512020.36349  -8946978.47746  22146437.191    22146444.584
  20749485.819    -2305737.57349  -1506141.81747  20749485.430    20749493.331
  20320872.723    -1164034.15249   -900177.93348  20320872.633    20320879.726
  23563584.673    -8785489.52149  -6825409.30045  23563584.330    23563592.433
  23211033.049    -9119625.39649  -7088456.79246  23211032.527    23211041.892
  21890839.692    -9012110.24649  -7002434.69246  21890839.817    21890848.195
  23621948.404     9834792.71849   7655603.06345  23621947.796    23621957.075
  24132018.545    -7948727.75849  -6161123.99145  24132018.181    24132029.801
 03  6  8 16 57 30.0000000  0 11G30G29G21G18G17G 6G16G15G26G10G23
  24231834.092    10929710.96649   8507197.86445  24231834.520    24231845.157
  22674456.179    -4092678.89049  -3174946.87246  22674456.180    22674464.228
  20890353.223    -5140445.83949  -3990793.70247  20890352.810    20890358.819
  22130451.821   -11596024.98349  -9012436.57547  22130451.577    22130459.019
  20748425.741    -2311308.53849  -1510482.84547  20748425.314    20748433.218
  20324428.494    -1145348.48349   -885617.68948  20324428.401    20324435.502
  23556076.579    -8824945.09449  -6856153.89745  23556076.258    23556084.298
  23196867.833    -9194063.58449  -7146460.53046  23196867.313    23196876.788
  21880694.841    -9065421.40749  -7043975.81746  21880694.980    21880703.404
  23641485.786     9937462.16249   7735605.13845  23641485.181    23641494.571
  24113423.039    -8046447.72149  -6237269.32845  24113422.675    24113434.151
 03  6  8 16 58  0.0000000  0 11G30G29G21G18G17G 6G16G15G26G10G23
  24251635.079    11033764.58549   8588278.41845  24251635.461    24251646.177
  22673653.610    -4096896.57349  -3178233.38646  22673653.607    22673661.646
  20884613.841    -5170606.44149  -4014295.47347  20884613.443    20884619.476
  22114527.731   -11679706.64349  -9077643.01947  22114527.461    22114534.913
  20747403.019    -2316683.09749  -1514670.83247  20747402.582    20747410.459
  20328076.169    -1126180.03449   -870681.24748  20328076.066    20328083.188
  23548667.733    -8863878.56949  -6886491.66145  23548667.407    23548675.376
  23182721.166    -9268404.45949  -7204388.44546  23182720.637    23182730.121
  21870650.400    -9118205.00649  -7085105.86946  21870650.564    21870658.988
  23661045.490    10040248.23749   7815698.08345  23661044.780    23661054.174
  24094864.048    -8143975.53549  -6313264.91745  24094863.733    24094875.089
 03  6  8 16 58 30.0000000  0 11G30G29G21G18G17G 6G16G15G26G10G23
  24271430.921    11137791.75349   8669338.31845  24271431.218    24271442.132
  22672954.737    -4100569.28849  -3181095.23846  22672954.710    22672962.732
  20878913.560    -5200561.64449  -4037637.19147  20878913.169    20878919.176
  22098665.496   -11763063.23049  -9142596.15747  22098665.212    22098672.685
  20746417.877    -2321860.18549  -1518704.94347  20746417.464    20746425.321
  20331815.907    -1106527.56249   -855367.65548  20331815.807    20331822.939
  23541358.584    -8902288.36349  -6916421.37145  23541358.356    23541366.138
  23168593.114    -9342647.11549  -7262239.80746  23168592.617    23168602.294
  21860707.066    -9170457.51649  -7125822.08546  21860707.257    21860715.648
  23680626.940    10143148.90149   7895880.34945  23680626.134    23680635.623
  24076342.160    -8241308.77949  -6389108.90445  24076341.746    24076353.085
 03  6  8 16 59  0.0000000  0 11G30G29G21G18G17G 6G16G15G26G10G23
  24291221.116    11241789.04049   8750374.95045  24291221.497    24291232.266
  22672359.556    -4103697.12849  -3183532.52746  22672359.492    22672367.499
  20873252.299    -5230311.86349  -4060819.18647  20873251.918    20873257.907
  22082865.302   -11846093.53849  -9207295.05447  22082864.991    22082872.525
  20745470.114    -2326840.68749  -1522585.86947  20745469.700    20745477.589
  20335647.762    -1086391.15249   -839676.97048  20335647.664    20335654.830
  23534149.238    -8940173.71049  -6945942.42045  23534148.978    23534156.735
  23154483.799    -9416791.89449  -7320014.92046  23154483.315    23154492.931
  21850865.288    -9222176.70349  -7166122.73046  21850865.471    21850873.795
  23700229.664    10246161.72149   7976149.99045  23700228.923    23700238.441
  24057857.518    -8338446.23049  -6464800.33445  24057857.122    24057868.395
 03  6  8 16 59 30.0000000  0 11G30G29G21G18G17G 6G16G15G26G10G23
  24311005.363    11345755.00549   8831387.17845  24311005.770    24311016.613
  22671868.423    -4106278.31749  -3185543.83446  22671868.302    22671876.346
  20867630.271    -5259855.87349  -4083840.48847  20867629.880    20867635.890
  22067127.691   -11928795.08349  -9271737.77047  22067127.386    22067134.913
  20744559.946    -2331623.84749  -1526313.02347  20744559.530    20744567.403
  20339571.922    -1065769.37449   -823608.07148  20339571.847    20339579.030
  23527039.996    -8977532.71249  -6975053.32745  23527039.650    23527047.585
  23140393.331    -9490837.66449  -7377712.89045  23140392.840    23140402.432
  21841125.672    -9273358.72249  -7206004.80246  21841125.863    21841134.200
  23719853.595    10349285.34149   8056505.97845  23719852.777    23719862.300
  24039410.672    -8435385.13449  -6540337.04245  24039410.223    24039421.343
 03  6  8 17  0  0.0000000  0 11G30G29G21G18G17G 6G16G15G26G10G23
  24330782.755    11449685.30449   8912371.60345  24330783.169    24330794.047
  22671481.038    -4108313.82349  -3187129.94446  22671481.010    22671489.008
  20862047.170    -5289195.36749  -4106702.43347  20862046.776    20862052.781
  22051452.560   -12011168.17749  -9335924.54547  22051452.267    22051459.800
  20743687.080    -2336210.86949  -1529887.33747  20743686.655    20743694.518
  20343588.230    -1044663.54549   -807161.98648  20343588.147    20343595.358
  23520030.787    -9014365.97049  -7003754.55745  23520030.462    23520038.577
  23126321.515    -9564785.75149  -7435334.73646  23126321.011    23126330.491
  21831488.404    -9324002.67649  -7245467.59246  21831488.575    21831496.982
  23739497.701    10452515.44849   8136944.94945  23739496.897    23739506.346
  24021001.670    -8532125.37449  -6615718.96945  24021001.197    24021012.179
 03  6  8 17  0 30.0000000  0 11G30G29G21G18G17G 6G16G15G26G10G23
  24350553.465    11553580.02949   8993328.33245  24350553.822    24350564.679
  22671198.076    -4109800.51949  -3188288.42046  22671198.136    22671206.122
  20856503.617    -5318326.98349  -4129402.38647  20856503.233    20856509.245
  22035840.772   -12093208.39349  -9399851.93947  22035840.515    22035848.016
  20742851.936    -2340599.62149  -1533307.14947  20742851.523    20742859.393
  20347697.194    -1023070.66149   -790336.37448  20347697.132    20347704.366
  23513122.384    -9050669.43949  -7032042.95245  23513122.134    23513130.399
  23112268.798    -9638633.14749  -7492878.11246  23112268.290    23112277.744
  21821954.541    -9374102.97149  -7284506.74846  21821954.755    21821963.206
  23759162.162    10555852.71249   8217467.40545  23759161.395    23759170.874
  24002631.197    -8628662.59249  -6690942.69945  24002630.785    24002641.626
 03  6  8 17  1  0.0000000  0 11G30G29G21G18G17G 6G16G15G26G10G23
  24370316.263    11657433.47749   9074252.87145  24370316.771    24370327.630
  22671019.069    -4110740.86249  -3189021.15846  22671019.190    22671027.160
  20850999.129    -5347253.33649  -4151942.39647  20850998.724    20851004.747
  22020291.986   -12174917.54349  -9463521.35947  22020291.729    22020299.224
  20742054.144    -2344792.02849  -1536573.96647  20742053.735    20742061.620
  20351898.394    -1000993.43149   -773133.35448  20351898.334    20351905.561
  23506314.455    -9086445.37749  -7059920.29345  23506314.268    23506322.548
  23098234.628    -9712382.93249  -7550345.42646  23098234.116    23098243.670
  21812524.107    -9423660.24449  -7323122.77846  21812524.333    21812532.748
  23778846.070    10659291.73149   8298069.15845  23778845.258    23778854.771
  23984299.027    -8724998.27049  -6766009.32745  23984298.686    23984309.549
 03  6  8 17  1 30.0000000  0 11G30G29G21G18G17G 6G16G15G26G10G23
  24390070.939    11761243.68249   9155143.74345  24390071.354    24390082.309
  22670944.283    -4111133.47249  -3189327.08946  22670944.461    22670952.415
  20845533.784    -5375973.93349  -4174322.07547  20845533.398    20845539.406
  22004806.685   -12256293.16449  -9526930.87747  22004806.420    22004813.924
  20741293.809    -2348787.72149  -1539687.50047  20741293.401    20741301.265
  20356191.961     -978430.79449   -755552.09248  20356191.891    20356199.093
  23499607.253    -9121692.03949  -7087385.20445  23499607.040    23499615.353
  23084219.142    -9786034.02649  -7607735.82346  23084218.639    23084228.308
  21803197.674    -9472671.04649  -7361312.98746  21803197.920    21803206.243
  23798549.084    10762830.95449   8378748.99345  23798548.198    23798557.780
  23966005.670    -8821129.79249  -6840916.91745  23966005.370    23966016.281
 03  6  8 17  2  0.0000000  0 11G30G29G21G18G17G 6G16G15G26G10G23
  24409817.221    11865009.78549   9236000.23845  24409817.534    24409828.562
  22670974.371    -4110976.17049  -3189204.52246  22670974.431    22670982.386
  20840107.926    -5404486.82849  -4196539.90647  20840107.574    20840113.581
  21989385.479   -12337332.15149  -9590078.09347  21989385.225    21989392.689
  20740571.141    -2352585.56249  -1542646.86447  20740570.732    20740578.564
  20360578.292     -955380.74649   -737591.03148  20360578.205    20360585.407
  23493001.286    -9156406.75249  -7114435.61545  23493001.094    23493009.351
  23070222.809    -9859584.79949  -7665048.06046  23070222.337    23070232.017
  21793976.065    -9521130.90749  -7399073.89146  21793976.344    21793984.614
  23818270.923    10866469.74649   8459506.41345  23818270.075    23818279.718
  23947751.726    -8917053.91449  -6915662.92045  23947751.248    23947762.365
 03  6  8 17  2 30.0000000  0 11G30G29G21G18G17G 6G16G15G26G10G23
  24429554.159    11968727.53449   9316819.02945  24429554.541    24429565.623
  22671108.834    -4110269.85449  -3188654.14846  22671108.798    22671116.797
  20834721.469    -5432793.05749  -4218596.70947  20834721.083    20834727.106
  21974028.231   -12418034.68649  -9652963.14247  21974027.987    21974035.465
  20739885.842    -2356186.81149  -1545453.04347  20739885.446    20739893.272
  20365057.071     -931844.62549   -719251.21548  20365056.994    20365064.186
  23486496.438    -9190590.15749  -7141072.02745  23486496.256    23486504.489
  23056245.426    -9933036.29949  -7722282.94746  23056245.004    23056254.684
  21784859.526    -9569039.02249  -7436404.87146  21784859.745    21784867.990
  23838011.011    10970204.38649   8540338.52145  23838010.158    23838019.809
  23929537.267    -9012770.51749  -6990247.15145  23929536.687    23929548.122
 03  6  8 17  3  0.0000000  0 11G30G29G21G18G17G 6G16G15G26G10G23
  24449281.345    12072393.81149   9397597.72045  24449281.814    24449292.853
  22671347.696    -4109014.76349  -3187676.16046  22671347.672    22671355.709
  20829374.064    -5460893.84249  -4240493.41547  20829373.675    20829379.687
  21958735.180   -12498399.97749  -9715585.39347  21958734.944    21958742.427
  20739237.895    -2359591.94249  -1548106.39747  20739237.465    20739245.294
  20369628.318     -907822.62849   -700532.79248  20369628.230    20369635.449
  23480092.855    -9224241.78749  -7167294.06445  23480092.600    23480100.792
  23042286.860   -10006388.95649  -7779440.80446  23042286.427    23042296.090
  21775848.303    -9616393.18949  -7473304.19846  21775848.504    21775856.763
  23857768.861    11074032.03349   8621243.08545  23857767.850    23857777.584
  23911362.656    -9108278.44249  -7064668.85045  23911362.108    23911373.701
 03  6  8 17  3 30.0000000  0 11G30G29G21G18G17G 6G16G15G26G10G23
  24468998.380    12176006.95149   9478334.99545  24468998.725    24469009.986
  22671691.263    -4107209.52849  -3186269.49746  22671691.185    22671699.288
  20824066.143    -5488787.29049  -4262228.56847  20824065.759    20824071.772
  21943506.801   -12578425.45149  -9777942.86347  21943506.557    21943514.029
  20738627.383    -2362800.32949  -1550606.45247  20738626.977    20738634.797
  20374292.216     -883313.50549   -681434.79948  20374292.161    20374299.397
  23473790.714    -9257360.06549  -7193100.50145  23473790.463    23473798.567
  23028347.417   -10079641.55349  -7836520.71846  23028346.927    23028356.562
  21766943.215    -9663189.92149  -7509769.16646  21766943.389    21766951.624
  23877544.096    11177951.21449   8702219.00045  23877543.171    23877552.693
  23893228.187    -9203575.16149  -7138925.96645  23893227.663    23893238.957
 03  6  8 17  4  0.0000000  0 11G30G29G21G18G17G 6G16G15G26G10G23
  24488704.832    12279564.32349   9559028.85245  24488705.122    24488716.338
  22672139.535    -4104853.67649  -3184433.76746  22672139.504    22672147.589
  20818797.595    -5516473.70649  -4283802.39347  20818797.207    20818803.202
  21928343.333   -12658110.01449  -9840034.68347  21928343.094    21928350.526
  20738054.460    -2365811.18649  -1552952.57847  20738054.044    20738061.861
  20379048.928     -858316.97749   -661957.00448  20379048.868    20379056.140
  23467590.253    -9289943.89349  -7218490.48745  23467590.025    23467597.957
  23014427.020   -10152793.89049  -7893522.48746  23014426.574    23014436.057
  21758144.617    -9709426.75549  -7545797.84146  21758144.790    21758153.013
  23897336.330    11281959.70749   8783264.51045  23897335.449    23897344.981
  23875134.283    -9298658.86649  -7213017.05645  23875134.018    23875144.895
 03  6  8 17  4 30.0000000  0 11G30G29G21G18G17G 6G16G15G26G10G23
  24508399.924    12383062.19849   9639676.28945  24508400.057    24508411.722
  22672692.395    -4101948.08949  -3182169.68146  22672692.422    22672700.473
  20813568.310    -5543953.92349  -4305215.54547  20813567.927    20813573.896
  21913244.749   -12737453.56549  -9901860.77547  21913244.497    21913251.903
  20737518.823    -2368626.05649  -1555145.99047  20737518.405    20737526.195
  20383898.146     -832834.14049   -642100.26748  20383898.091    20383905.391
  23461491.267    -9321993.81149  -7243464.43645  23461491.069    23461499.003
  23000525.490   -10225846.88549  -7950446.84746  23000525.058    23000534.477
  21749452.815    -9755102.39949  -7581389.23646  21749453.007    21749461.220
  23917144.921    11386053.95949   8864376.82945  23917144.055    23917153.603
  23857081.141    -9393529.17249  -7286941.89845  23857080.776    23857091.535
 03  6  8 17  5  0.0000000  0 11G30G29G21G18G17G 6G16G15G26G10G23
  24528083.677    12486500.18349   9720277.10645  24528083.850    24528095.691
  22673350.512    -4098489.84949  -3179474.97046  22673350.466    22673358.453
  20808378.785    -5571225.23249  -4326465.91747  20808378.389    20808384.343
  21898211.772   -12816452.30049  -9963418.18847  21898211.514    21898218.849
  20737021.027    -2371242.22849  -1557184.58147  20737020.619    20737028.414
  20388840.434     -806862.51249   -621862.65348  20388840.379    20388847.674
  23455494.508    -9353506.53949  -7268019.81245  23455494.309    23455502.304
  22986643.300   -10298798.04749  -8007291.85346  22986642.839    22986652.306
  21740868.775    -9800211.91849  -7616539.49646  21740868.960    21740877.187
  23936969.800    11490234.08949   8945556.05145  23936969.020    23936978.493
  23839069.277    -9488182.16749  -7360697.41245  23839068.886    23839079.658
 03  6  8 17  5 30.0000000  0 11G30G29G21G18G17G 6G16G15G26G10G23
  24547755.115    12589873.62249   9800827.66345  24547755.481    24547767.180
  22674113.427    -4094480.82649  -3176351.05646  22674113.368    22674121.312
  20803228.661    -5598289.21949  -4347554.72947  20803228.275    20803234.198
  21883244.375   -12895106.69249 -10024707.27547  21883244.105    21883251.358
  20736560.653    -2373661.75949  -1559069.93847  20736560.238    20736567.995
  20393875.365     -780404.13649   -601245.74448  20393875.284    20393882.545
  23449599.817    -9384483.25449  -7292157.49945  23449599.550    23449607.645
  22972780.119   -10371649.23449  -8064058.96846  22972779.635    22972789.085
  21732392.470    -9844755.12749  -7651248.46346  21732392.668    21732400.881
  23956810.072    11594496.03549   9026799.03245  23956809.356    23956818.963
  23821098.683    -9582618.40049  -7434284.00245  23821098.327    23821108.880
 03  6  8 17  6  0.0000000  0 11G30G29G21G18G17G 6G16G15G26G10G23
  24567413.803    12693179.88649   9881325.80745  24567414.223    24567425.916
  22674981.183    -4089920.78249  -3172797.79246  22674981.137    22674989.081
  20798117.908    -5625146.46149  -4368482.44947  20798117.503    20798123.436
  21868342.648   -12973415.59349 -10085727.15547  21868342.361    21868349.591
  20736137.630    -2375884.99849  -1560802.34047  20736137.201    20736144.963
  20399002.942     -753458.67749   -580249.30648  20399002.854    20399010.098
  23443807.258    -9414923.39549  -7315877.09345  23443806.910    23443815.107
  22958935.933   -10444400.22249  -8120747.99846  22958935.449    22958944.978
  21724024.471    -9888729.54149  -7685514.21746  21724024.621    21724032.799
  23976665.627    11698837.62249   9108104.07245  23976664.940    23976674.599
  23803169.664    -9676836.27549  -7507700.43845  23803169.249    23803179.806
 03  6  8 17  6 30.0000000  0 11G30G29G21G18G17G 6G16G15G26G10G23
  24587059.472    12796416.83949   9961769.98145  24587059.852    24587071.319
  22675953.966    -4084808.89549  -3168814.50846  22675953.923    22675961.861
  20793046.716    -5651795.77549  -4389248.13747  20793046.314    20793052.242
  21853507.044   -13051377.13349 -10146476.35647  21853506.772    21853513.957
  20735751.992    -2377911.58049  -1562381.49847  20735751.568    20735759.320
  20404223.326     -726025.39549   -558872.74248  20404223.240    20404230.484
  23438117.082    -9444825.64649  -7339177.54245  23438116.729    23438124.845
  22945110.974   -10517050.41549  -8177358.47846  22945110.461    22945120.073
  21715765.156    -9932132.28249  -7719334.51146  21715765.309    21715773.485
  23996535.968    11803256.63649   9189469.45845  23996535.324    23996544.927
  23785282.562    -9770833.70349  -7580945.07745  23785282.072    23785292.667
 03  6  8 17  7  0.0000000  0 11G30G29G21G18G17G 6G16G15G26G10G23
  24606691.510    12899582.47249  10042158.60445  24606691.722    24606703.128
  22677031.905    -4079144.40749  -3164400.62346  22677031.897    22677039.820
  20788015.222    -5678236.36449  -4409851.19147  20788014.827    20788020.734
  21838737.891   -13128989.64249 -10206953.60047  21838737.607    21838744.731
  20735403.839    -2379741.18949  -1563807.17547  20735403.419    20735411.183
  20409536.655     -698103.68549   -537115.58948  20409536.582    20409543.843
  23432529.407    -9474188.99949  -7362058.07945  23432529.107    23432537.063
  22931305.418   -10589599.13449  -8233889.88546  22931304.878    22931314.480
  21707615.168    -9974960.44949  -7752707.09146  21707615.341    21707623.501
  24016420.716    11907751.66249   9270894.05745  24016420.078    24016429.724
  23767437.741    -9864608.63649  -7654016.39545  23767437.266    23767447.764
 03  6  8 17  7 30.0000000  0 11G30G29G21G18G17G 6G16G15G26G10G23
  24626308.925    13002671.61349  10122487.58945  24626309.260    24626320.564
  22678214.483    -4072929.82449  -3159558.11046  22678214.509    22678222.452
  20783022.929    -5704470.97649  -4430293.74347  20783022.523    20783028.440
  21824034.941   -13206254.25749 -10267159.75047  21824034.635    21824041.752
  20735092.831    -2381375.63449  -1565080.78047  20735092.404    20735100.175
  20414942.440     -669696.12349   -514979.84348  20414942.369    20414949.661
  23427044.008    -9503015.29349  -7384520.13245  23427043.725    23427051.607
  22917518.707   -10662048.80249  -8290344.11946  22917518.242    22917527.750
  21699574.496   -10017214.29649  -7785632.14146  21699574.687    21699582.812
  24036319.128    12012317.88849   9352374.15645  24036318.453    24036328.094
  23749635.059    -9958162.00149  -7726915.03545  23749634.610    23749645.148
 03  6  8 17  8  0.0000000  0 11G30G29G21G18G17G 6G16G15G26G10G23
  24645912.555    13105687.84549  10202759.78445  24645912.829    24645924.210
  22679503.069    -4066158.42549  -3154281.70546  22679503.057    22679511.042
  20778071.060    -5730493.24349  -4450570.82647  20778070.661    20778076.566
  21809399.491   -13283163.64449 -10327089.09647  21809399.237    21809406.358
  20734820.090    -2382808.87149  -1566197.59547  20734819.643    20734827.452
  20420441.862     -640796.52249   -492460.69548  20420441.792    20420449.075
  23421662.099    -9531297.55649  -7406558.27145  23421661.821    23421669.641
  22903752.109   -10734393.09749  -8346716.23646  22903751.672    22903761.020
  21691644.787   -10058885.42949  -7818103.12646  21691644.937    21691653.034
  24056231.787    12116958.93949   9433912.56645  24056231.158    24056240.783
  23731875.897   -10051486.22849  -7799635.09745  23731875.524    23731886.131
 03  6  8 17  8 30.0000000  0 11G30G29G21G18G17G 6G16G15G26G10G23
  24665500.092    13208620.51849  10282966.85745  24665500.349    24665511.801
  22680896.030    -4058838.49549  -3148577.87546  22680895.982    22680904.060
  20773158.231    -5756310.39749  -4470688.08447  20773157.832    20773163.731
  21794830.328   -13359724.78549 -10386747.08247  21794830.093    21794837.265
  20734584.144    -2384048.87549  -1567163.84047  20734583.686    20734591.547
  20426033.382     -611413.02449   -469564.48648  20426033.311    20426040.564
  23416382.328    -9559043.26349  -7428178.29745  23416381.996    23416389.729
  22890004.138   -10806639.73849  -8403012.27346  22890003.650    22890012.897
  21683824.809   -10099979.50949  -7850124.46346  21683824.971    21683833.097
  24076156.657    12221664.83349   9515501.45745  24076156.074    24076165.773
  23714159.210   -10144587.79549  -7872181.69445  23714158.850    23714169.425
 03  6  8 17  9  0.0000000  0 11G30G29G21G18G17G 6G16G15G26G10G23
  24685072.387    13311472.91949  10363111.41045  24685072.600    24685084.181
  22682394.573    -4050963.79249  -3142441.75546  22682394.475    22682402.599
  20768285.400    -5781917.21749  -4490641.44247  20768285.006    20768290.944
  21780328.905   -13435930.25549 -10446127.92947  21780328.642    21780335.801
  20734386.059    -2385089.76049  -1567974.92747  20734385.633    20734393.476
  20431718.162     -581539.58049   -446286.50248  20431718.076    20431725.327
  23411205.927    -9586245.73649  -7449375.04745  23411205.560    23411213.240
  22876275.851   -10878782.62549  -8459227.45746  22876275.354    22876284.477
  21676116.186   -10140488.47149  -7881689.86246  21676116.337    21676124.489
  24096094.574    12326439.13349   9597143.65145  24096094.041    24096103.754
  23696486.292   -10237459.19149  -7944548.90745  23696485.914    23696496.530
 03  6  8 17  9 30.0000000  0 11G30G29G21G18G17G 6G16G15G26G10G23
  24704628.664    13414240.68949  10443190.00045  24704628.941    24704640.516
  22683998.284    -4042536.06749  -3135874.69846  22683998.245    22684006.362
  20763452.344    -5807315.02549  -4510431.93647  20763451.951    20763457.859
  21765895.024   -13511780.67449 -10505232.10047  21765894.735    21765901.921
  20734225.497    -2385933.59949  -1568632.47047  20734225.055    20734232.935
  20437495.786     -551178.00249   -422628.14848  20437495.696    20437502.928
  23406132.600    -9612906.36449  -7470149.56745  23406132.192    23406139.900
  22862566.888   -10950823.55149  -8515363.19546  22862566.405    22862575.518
  21668518.968   -10180411.84449  -7912798.95746  21668519.126    21668527.282
  24116044.892    12431277.74749   9678835.95945  24116044.259    24116054.019
  23678857.049   -10330100.82149  -8016737.08645  23678856.739    23678867.378
 03  6  8 17 10  0.0000000  0 11G30G29G21G18G17G 6G16G15G26G10G23
  24724168.490    13516922.00949  10523201.22345  24724168.813    24724180.310
  22685707.529    -4033554.44849  -3128876.05246  22685707.441    22685715.556
  20758659.374    -5832502.43249  -4530058.47847  20758658.959    20758664.872
  21751529.065   -13587273.94549 -10564057.98547  21751528.800    21751536.015
  20734102.588    -2386579.48749  -1569135.76747  20734102.150    20734110.026
  20443366.458     -520327.59049   -398588.89048  20443366.372    20443373.597
  23401162.496    -9639023.86149  -7490500.88445  23401162.162    23401169.861
  22848877.457   -11022761.45949  -8571418.65046  22848876.912    22848886.146
  21661033.714   -10219746.88749  -7943449.61846  21661033.908    21661042.045
  24136007.145    12536179.20549   9760577.23845  24136006.440    24136016.237
  23661272.017   -10422510.37049  -8088744.44045  23661271.693    23661282.301
 03  6  8 17 10 30.0000000  0 11G30G29G21G18G17G 6G16G15G26G10G23
  24743690.743    13619511.18949  10603140.66745  24743691.029    24743702.667
  22687521.485    -4024022.10149  -3121448.26346  22687521.306    22687529.453
  20753905.758    -5857482.82349  -4549523.71347  20753905.350    20753911.226
  21737230.646   -13662412.34549 -10622607.33647  21737230.399    21737237.601
  20734016.762    -2387030.37949  -1569487.11647  20734016.339    20734024.211
  20449329.534     -488991.49549   -374171.18248  20449329.454    20449336.685
  23396295.326    -9664601.05549  -7510431.18745  23396295.042    23396302.702
  22835207.064   -11094599.28649  -8627396.12846  22835206.526    22835215.806
  21653660.375   -10258494.26249  -7973642.35346  21653660.563    21653668.613
  24155980.418    12641138.54649   9842363.65645  24155979.773    24155989.442
  23643730.805   -10514689.50449  -8160572.22645  23643730.526    23643741.127
 03  6  8 17 11  0.0000000  0 11G30G29G21G18G17G 6G16G15G26G10G23
  24763195.502    13722009.33749  10683009.17945  24763195.886    24763207.774
  22689440.866    -4013935.24749  -3113588.39446  22689440.767    22689448.894
  20749192.337    -5882252.06849  -4568824.41947  20749191.933    20749197.777
  21723000.755   -13737190.91749 -10680876.31647  21723000.500    21723007.658
  20733968.793    -2387282.58649  -1569683.65347  20733968.372    20733976.257
  20455385.756     -457166.04349   -349372.15548  20455385.661    20455392.931
  23391531.827    -9689633.49749  -7529937.00745  23391531.540    23391539.231
  22821556.445   -11166333.13949  -8683292.58546  22821555.946    22821565.256
  21646399.954   -10296648.28249  -8003372.73746  21646400.079    21646408.145
  24175964.908    12746157.26549   9924196.35245  24175964.288    24175973.836
  23626234.608   -10606633.04049  -8232216.45345  23626234.238    23626244.799
 03  6  8 17 11 30.0000000  0 11G30G29G21G18G17G 6G16G15G26G10G23
  24782682.013    13824411.33849  10762802.74445  24782682.336    24782694.566
  22691465.313    -4003296.44149  -3105298.41946  22691465.265    22691473.396
  20744518.612    -5906812.61949  -4587962.50547  20744518.219    20744524.031
  21708839.084   -13811610.78749 -10738865.77647  21708838.814    21708845.992
  20733958.138    -2387338.48449  -1569727.21947  20733957.700    20733965.601
  20461534.601     -424853.87749   -324193.86548  20461534.514    20461541.812
  23386871.599    -9714123.42449  -7549020.08945  23386871.326    23386879.108
  22807925.145   -11237965.49649  -8739109.96046  22807924.622    22807933.966
  21639252.290   -10334209.53649  -8032641.22146  21639252.427    21639260.497
  24195959.806    12851230.47749  10006071.53845  24195959.196    24195968.676
  23608782.888   -10698342.21849  -8303678.04045  23608782.430    23608793.043
 03  6  8 17 12  0.0000000  0 10G29G21G18G17G 6G16G15G26G10G23
  22693595.595    -3992101.95249  -3096575.43846  22693595.531    22693603.658
  20739885.303    -5931160.77949  -4606935.08947  20739884.907    20739890.743
  21694746.561   -13885667.44249 -10796572.21147  21694746.290    21694753.457
  20733985.618    -2387194.08249  -1569614.70547  20733985.191    20733993.114
  20467776.703     -392051.39649   -298633.51348  20467776.613    20467783.935
  23382315.415    -9738066.58049  -7567677.11445  23382315.200    23382322.957
  22794313.975   -11309492.27349  -8794845.05246  22794313.495    22794322.867
  21632218.556   -10371172.04049  -8061443.14646  21632218.717    21632226.754
  24215965.296    12956359.58049  10087990.29945  24215964.566    24215974.223
  23591376.701   -10789811.85749  -8374953.01045  23591376.250    23591386.756
 03  6  8 17 12 30.0000000  0 10G29G21G18G17G 6G16G15G26G10G23
  22695831.875    -3980350.77849  -3087418.68746  22695831.762    22695839.906
  20735292.690    -5955295.14749  -4625741.08947  20735292.296    20735298.132
  21680723.626   -13959358.47149 -10853993.74047  21680723.357    21680730.501
  20734051.403    -2386848.44549  -1569345.39247  20734051.005    20734058.904
  20474112.312     -358757.60549   -272690.34248  20474112.237    20474119.536
  23377863.554    -9761461.66949  -7585907.09045  23377863.372    23377871.143
  22780723.316   -11380912.11249  -8850496.83046  22780722.814    22780732.008
  21625299.373   -10407532.53449  -8089775.98546  21625299.576    21625307.500
  24235981.177    13061543.72749  10169951.89045  24235980.331    24235990.095
  23574016.585   -10881039.30149  -8446039.23645  23574016.179    23574026.794
 03  6  8 17 13  0.0000000  0 10G29G21G18G17G 6G16G15G26G10G23
  22698172.744    -3968049.16149  -3077833.01946  22698172.692    22698180.889
  20730739.556    -5979221.98249  -4644385.37247  20730739.178    20730744.998
  21666769.160   -14032689.59449 -10911134.83347  21666768.888    21666775.997
  20734154.300    -2386307.79949  -1568924.11947  20734153.894    20734161.797
  20480540.151     -324979.34449   -246369.65848  20480540.057    20480547.327
  23373514.780    -9784314.66549  -7603714.63545  23373514.612    23373522.455
  22767151.817   -11452231.36649  -8906070.22946  22767151.259    22767160.380
  21618493.943   -10443295.59449  -8117643.28446  21618494.118    21618502.036
  24256005.795    13166774.21549  10251949.56745  24256004.907    24256014.736
  23556701.546   -10972029.72749  -8516940.78545  23556701.125    23556711.728
 03  6  8 17 13 30.0000000  0 10G29G21G18G17G 6G16G15G26G10G23
  22700618.925    -3955194.37049  -3067816.29846  22700618.928    22700627.113
  20726226.738    -6002937.13149  -4662864.70447  20726226.342    20726232.160
  21652884.145   -14105655.81849 -10967991.58447  21652883.880    21652890.969
  20734294.815    -2385569.44349  -1568348.78347  20734294.397    20734302.313
  20487060.837     -290713.17749   -219668.76648  20487060.743    20487068.012
  23369269.930    -9806621.75049  -7621096.80845  23369269.721    23369277.512
  22753600.017   -11523446.65349  -8961562.61246  22753599.441    22753608.535
  21611803.138   -10478455.75749  -8145040.79146  21611803.310    21611811.293
  24276039.487    13272052.17549  10333984.22545  24276038.618    24276048.659
  23539432.684   -11062778.26349  -8587653.85245  23539432.161    23539442.673
 03  6  8 17 14  0.0000000  0 10G29G21G18G17G 6G16G15G26G10G23
  22703170.041    -3941787.73049  -3057369.57846  22703170.062    22703178.276
  20721753.828    -6026442.26449  -4681180.39047  20721753.449    20721759.289
  21639068.432   -14178257.65049 -11024564.39747  21639068.175    21639075.288
  20734472.818    -2384633.99149  -1567619.87247  20734472.403    20734480.320
  20493674.017     -255960.80949   -192589.03348  20493673.915    20493681.214
  23365128.752    -9828383.92549  -7638054.36545  23365128.598    23365136.279
  22740067.690   -11594559.01749  -9016974.80946  22740067.169    22740076.243
  21605227.217   -10513012.61949  -8171968.19746  21605227.353    21605235.340
  24296081.645    13377374.02849  10416053.12545  24296080.862    24296090.696
  23522209.608   -11153284.93749  -8658178.42045  23522209.144    23522219.822
 03  6  8 17 14 30.0000000  0 10G29G21G18G17G 6G16G15G26G10G23
  22705826.103    -3927829.98449  -3046493.42646  22705826.113    22705834.355
  20717320.827    -6049737.84049  -4699332.79247  20717320.437    20717326.291
  21625322.169   -14250494.43149 -11080852.76547  21625321.901    21625329.041
  20734688.128    -2383502.51849  -1566738.21847  20734687.734    20734695.665
  20500379.499     -220723.18449   -165131.18148  20500379.413    20500386.767
  23361091.225    -9849601.61949  -7654587.66145  23361091.033    23361098.693
  22726554.846   -11665568.99649  -9072307.21346  22726554.354    22726563.421
  21598766.268   -10546964.89649  -8198424.50646  21598766.445    21598774.407
  24316131.796    13482737.17249  10498154.18945  24316131.033    24316140.653
  23505032.905   -11243548.89449  -8728513.90345  23505032.545    23505043.046
 03  6  8 17 15  0.0000000  0 10G29G21G18G17G 6G16G15G26G10G23
  22708587.650    -3913318.41249  -3035185.71246  22708587.572    22708595.813
  20712928.311    -6072820.54849  -4717319.31747  20712927.919    20712933.833
  21611646.123   -14322362.20449 -11136853.58947  21611645.869    21611653.004
  20734941.417    -2382171.56649  -1565701.12447  20734941.029    20734948.970
  20507177.831     -184997.57749   -137293.07148  20507177.756    20507185.138
  23357157.931    -9870271.45349  -7670694.05045  23357157.657    23357165.322
  22713062.168   -11736473.28749  -9127557.26546  22713061.655    22713070.763
  21592421.401   -10580307.64949  -8224405.84746  21592421.568    21592429.459
  24336189.980    13588142.48149  10580288.13745  24336189.167    24336198.726
  23487903.170   -11333565.96449  -8798656.98645  23487902.754    23487913.221
 03  6  8 17 15 30.0000000  0 10G29G21G18G17G 6G16G15G26G10G23
  22711454.423    -3898253.54749  -3023446.87546  22711454.268    22711462.532
  20708576.251    -6095690.83449  -4735140.31547  20708575.871    20708581.805
  21598040.459   -14393860.35449 -11192566.39247  21598040.228    21598047.290
  20735232.541    -2380641.64749  -1564508.98947  20735232.138    20735240.107
  20514068.993     -148784.66149   -109075.24748  20514068.915    20514076.250
  23353328.794    -9890393.51949  -7686373.58845  23353328.547    23353336.242
  22699589.400   -11807272.34549  -9182725.30746  22699588.902    22699598.162
  21586192.678   -10613039.49949  -8249911.16846  21586192.889    21586200.760
  24356255.666    13693587.44349  10662452.98445  24356254.875    24356264.348
  23470820.719   -11423335.13349  -8868606.90845  23470820.289    23470830.683
 03  6  8 17 16  0.0000000  0 10G29G21G18G17G 6G16G15G26G10G23
  22714426.028    -3882637.63649  -3011278.64346  22714425.920    22714434.136
  20704264.364    -6118350.09749  -4752796.88547  20704263.976    20704269.904
  21584504.944   -14464990.02149 -11247992.06147  21584504.688    21584511.731
  20735561.143    -2378914.88649  -1563163.48147  20735560.770    20735568.716
  20521052.451     -112086.82049    -80479.56248  20521052.361    20521059.634
  23349603.596    -9909969.60749  -7701627.70245  23349603.296    23349611.126
  22686136.329   -11877967.83549  -9237812.65446  22686135.895    22686145.193
  21580080.235   -10645160.49549  -8274940.50046  21580080.441    21580088.329
  24376328.053    13799067.80949  10744645.40345  24376327.310    24376336.490
  23453785.200   -11512857.20949  -8938364.29545  23453784.773    23453795.126
 03  6  8 17 16 30.0000000  0 10G29G21G18G17G 6G16G15G26G10G23
  22717502.633    -3866470.15949  -2998680.61746  22717502.570    22717510.742
  20699992.875    -6140797.04149  -4770288.01147  20699992.493    20699998.414
  21571039.946   -14535748.89949 -11303128.80547  21571039.700    21571046.723
  20735927.349    -2376990.44849  -1561663.93447  20735926.966    20735934.927
  20528128.317      -74903.13949    -51505.29548  20528128.223    20528135.505
  23345982.521    -9928998.61949  -7716455.51045  23345982.253    23345990.120
  22672703.292   -11948558.65249  -9292818.46046  22672702.885    22672712.175
  21574084.601   -10676667.87549  -8299491.68447  21574084.802    21574092.730
  24396406.857    13904582.55249  10826864.63945  24396406.130    24396415.272
  23436797.200   -11602129.69649  -9007927.19845  23436796.773    23436806.950
 03  6  8 17 17  0.0000000  0 10G29G21G18G17G 6G16G15G26G10G23
  22720684.293    -3849750.62349  -2985652.41446  22720684.237    22720692.371
  20695761.764    -6163031.63349  -4787613.66847  20695761.383    20695767.336
  21557645.751   -14606135.74249 -11357975.66447  21557645.493    21557652.488
  20736331.493    -2374866.80149  -1560009.15747  20736331.097    20736339.070
  20535296.634      -37233.38049    -22152.27248  20535296.550    20535303.876
  23342465.739    -9947479.69649  -7730856.36745  23342465.458    23342473.362
  22659290.461   -12019043.91649  -9347741.99246  22659290.009    22659299.169
  21568206.149   -10707559.24849  -8323562.86447  21568206.361    21568214.336
  24416491.943    14010130.09049  10909109.42545  24416491.185    24416500.295
  23419857.038   -11691150.61249  -9077294.06345  23419856.611    23419866.865
 03  6  8 17 17 30.0000000  0 10G29G21G18G17G 6G16G15G26G10G23
  22723970.972    -3832479.06949  -2972194.07446  22723970.902    22723979.103
  20691571.208    -6185053.05849  -4804773.22647  20691570.824    20691576.773
  21544322.632   -14676149.12949 -11412531.51247  21544322.376    21544329.355
  20736773.531    -2372544.21449  -1558199.36847  20736773.141    20736781.067
  20542557.453         922.32849      7579.41148  20542557.363    20542564.698
  23339053.202    -9965412.71149  -7744830.15245  23339052.949    23339060.847
  22645897.865   -12089423.06949  -9402582.85246  22645897.371    22645906.470
  21562445.351   -10737832.58749  -8347152.46547  21562445.540    21562453.524
  24436582.882    14115708.67049  10991378.33545  24436582.136    24436591.510
  23402964.978   -11779918.58149  -9146463.82445  23402964.535    23402974.792
 03  6  8 17 18  0.0000000  0 10G29G21G18G17G 6G16G15G26G10G23
  22727362.476    -3814656.79349  -2958306.60746  22727362.444    22727370.582
  20687421.190    -6206861.62449  -4821766.91847  20687420.826    20687426.775
  21531070.657   -14745788.98749 -11466796.30347  21531070.360    21531077.323
  20737253.323    -2370023.03149  -1556234.82847  20737252.928    20737260.852
  20549910.536       39562.87949     37688.89448  20549910.463    20549917.773
  23335744.918    -9982798.28349  -7758377.35945  23335744.640    23335752.493
  22632525.269   -12159696.65749  -9457341.44846  22632524.779    22632533.835
  21556802.274   -10767486.89149  -8370259.70247  21556802.466    21556810.464
  24456679.195    14221315.33849  11073669.15745  24456678.423    24456687.884
  23386121.262   -11868433.09549  -9215436.10445  23386120.805    23386130.901
 03  6  8 17 18 30.0000000  0 10G29G21G18G17G 6G16G15G26G10G23
  22730859.022    -3796282.71649  -2943989.15646  22730858.974    22730867.036
  20683311.943    -6228455.95149  -4838593.65847  20683311.541    20683317.530
  21517890.099   -14815053.15749 -11520768.34347  21517889.805    21517896.719
  20737771.121    -2367301.94649  -1554114.51147  20737770.710    20737778.638
  20557356.060       78689.20049     68176.90848  20557355.979    20557363.284
  23332541.041    -9999634.85449  -7771496.77445  23332540.778    23332548.572
  22619173.053   -12229863.27649  -9512016.68446  22619172.523    22619181.598
  21551277.609   -10796519.26849  -8392882.31747  21551277.791    21551285.725
  24476780.733    14326949.33449  11155981.28445  24476780.008    24476789.600
  23369326.191   -11956691.44849  -9284208.75145  23369325.683    23369335.742
 03  6  8 17 19  0.0000000  0 10G29G21G18G17G 6G16G15G26G10G23
  22734460.392    -3777357.30849  -2929242.10746  22734460.351    22734468.371
  20679243.530    -6249835.67349  -4855253.17847  20679243.138    20679249.090
  21504781.252   -14883940.47549 -11574446.73647  21504780.960    21504787.835
  20738326.996    -2364380.95149  -1551838.42247  20738326.585    20738334.500
  20564893.899      118300.82849     99043.07848  20564893.840    20564901.156
  23329441.678   -10015922.37149  -7784188.36145  23329441.384    23329449.132
  22605841.160   -12299922.83049  -9566608.50446  22605840.603    22605849.649
  21545871.643   -10824927.95749  -8415018.93747  21545871.823    21545879.676
  24496887.084    14432608.49649  11238313.03145  24496886.358    24496895.953
  23352580.068   -12044692.39849  -9352780.84845  23352579.625    23352589.637
 03  6  8 17 19 30.0000000  0 10G29G21G18G17G 6G16G15G26G10G23
  22738166.233    -3757882.90749  -2914067.27146  22738166.165    22738174.189
  20675215.618    -6271002.62449  -4871746.91347  20675215.216    20675221.161
  21491743.918   -14952451.81949 -11627832.16347  21491743.616    21491750.549
  20738920.591    -2361261.92149  -1549408.02847  20738920.174    20738928.032
  20572523.762      158395.61849    130285.74248  20572523.678    20572531.005
  23326446.424   -10031662.58349  -7796453.48045  23326446.137    23326453.845
  22592529.298   -12369876.82449  -9621118.05646  22592528.748    22592537.813
  21540584.288   -10852713.14449  -8436669.71547  21540584.474    21540592.276
  24516997.523    14538289.29249  11320661.60845  24516996.896    24517006.503
  23335882.951   -12132436.31549  -9421152.64045  23335882.405    23335892.458
 03  6  8 17 20  0.0000000  0 10G29G21G18G17G 6G16G15G26G10G23
  22741977.023    -3737857.23749  -2898462.87046  22741976.987    22741984.963
  20671228.651    -6291954.15549  -4888072.78447  20671228.266    20671234.202
  21478778.712   -15020584.12749 -11680922.23447  21478778.441    21478785.385
  20739552.365    -2357942.09149  -1546821.15647  20739551.947    20739559.788
  20580245.896      198975.52749    161906.42248  20580245.822    20580253.154
  23323555.665   -10046853.30849  -7808290.40745  23323555.399    23323563.169
  22579238.013   -12439722.74049  -9675543.39046  22579237.449    22579246.547
  21535416.306   -10879871.00449  -8457831.66047  21535416.491    21535424.295
  24537112.106    14643991.88849  11403027.21945  24537111.541    24537121.147
  23319235.367   -12219919.59049  -9489321.33845  23319234.880    23319244.881
 03  6  8 17 20 30.0000000  0 10G29G21G18G17G 6G16G15G26G10G23
  22745892.137    -3717283.27449  -2882431.21846  22745892.106    22745900.100
  20667282.340    -6312692.05949  -4904232.19247  20667281.958    20667287.922
  21465885.470   -15088338.54349 -11733717.84147  21465885.187    21465892.112
  20740221.832    -2354424.07649  -1544079.86147  20740221.413    20740229.266
  20588059.779      240037.91849    193903.05848  20588059.723    20588067.064
  23320769.240   -10061496.39149  -7819700.60045  23320768.978    23320776.781
  22565966.991   -12509462.23549  -9729885.79946  22565966.456    22565975.555
  21530367.559   -10906401.84949  -8478505.02447  21530367.787    21530375.623
  24557230.084    14749712.10749  11485406.51745  24557229.404    24557239.129
  23302637.090   -12307143.34049  -9557287.80045  23302636.601    23302646.645
 03  6  8 17 21  0.0000000  0 10G29G21G18G17G 6G16G15G26G10G23
  22749911.742    -3696160.22449  -2865971.72446  22749911.724    22749919.784
  20663376.966    -6333215.07849  -4920224.16447  20663376.582    20663382.529
  21453064.586   -15155712.85949 -11786217.27047  21453064.303    21453071.175
  20740929.292    -2350706.42549  -1541183.00847  20740928.864    20740936.706
  20595965.646      281583.39849    226276.12047  20595965.580    20595972.959
  23318087.265   -10075590.67049  -7830683.17345  23318086.974    23318094.792
  22552716.480   -12579094.06049  -9784144.30946  22552715.930    22552725.054
  21525438.761   -10932303.06649  -8498687.77847  21525438.979    21525446.822
  24577351.114    14855449.02149  11567798.85245  24577350.504    24577360.118
  23286088.710   -12394105.23949  -9625050.23545  23286088.227    23286098.337
 03  6  8 17 21 30.0000000  0 10G29G21G18G17G 6G16G15G26G10G23
  22754035.687    -3674489.12749  -2849085.17746  22754035.669    22754043.753
  20659512.457    -6353523.27549  -4936048.74047  20659512.077    20659518.019
  21440316.044   -15222706.83349 -11838420.32647  21440315.748    21440322.592
  20741674.687    -2346789.43849  -1538130.82647  20741674.268    20741682.106
  20603963.270      323610.94549    259024.82147  20603963.193    20603970.598
  23315509.506   -10089136.85049  -7841238.64445  23315509.229    23315517.114
  22539486.392   -12648618.52749  -9838319.16746  22539485.839    22539494.950
  21520629.922   -10957573.77949  -8518379.22747  21520630.158    21520637.962
  24597474.952    14961200.14049  11650202.25645  24597474.353    24597483.923
  23269590.286   -12480804.66249  -9692608.13545  23269589.779    23269599.943
 03  6  8 17 22  0.0000000  0 10G29G21G18G17G 6G16G15G26G10G23
  22758264.107    -3652269.15549  -2831770.93246  22758264.061    22758272.126
  20655689.125    -6373615.15749  -4951704.75447  20655688.714    20655694.675
  21427640.302   -15289318.25349 -11890325.28747  21427640.024    21427646.824
  20742458.367    -2342671.35249  -1534921.93647  20742457.935    20742465.782
  20612052.790      366121.54449    292149.93747  20612052.723    20612060.123
  23313036.226   -10102133.63349  -7851366.00645  23313036.001    23313043.836
  22526276.998   -12718034.09949  -9892409.16246  22526276.493    22526285.530
  21515941.686   -10982210.98749  -8537577.02947  21515941.854    21515949.660
  24617601.361    15066964.63949  11732616.07945  24617600.540    24617610.263
  23253142.299   -12567238.69849  -9759959.23345  23253141.885    23253152.043
 03  6  8 17 22 30.0000000  0 10G29G21G18G17G 6G16G15G26G10G23
  22762596.648    -3629501.48949  -2814029.92446  22762596.592    22762604.672
  20651906.902    -6393491.02849  -4967192.45447  20651906.493    20651912.429
  21415037.462   -15355546.75949 -11941931.87747  21415037.158    21415043.939
  20743280.213    -2338352.75249  -1531556.81147  20743279.776    20743287.632
  20620233.999      409113.94249    325650.48347  20620233.939    20620241.327
  23310667.413   -10114581.85749  -7861065.92845  23310667.181    23310675.059
  22513088.210   -12787341.40349  -9946414.81446  22513087.714    22513096.676
  21511374.068   -11006213.90949  -8556280.59047  21511374.206    21511382.037
  24637729.837    15172740.00549  11815038.38645  24637728.885    24637738.920
  23236744.977   -12653406.86749  -9827103.16845  23236744.537    23236754.729
 03  6  8 17 23  0.0000000  0 10G29G21G18G17G 6G16G15G26G10G23
  22767033.094    -3606187.43749  -2795863.15846  22767033.021    22767041.174
  20648165.657    -6413151.53949  -4982512.34147  20648165.263    20648171.197
  21402507.343   -15421392.62049 -11993240.30647  21402507.063    21402513.844
  20744140.020    -2333834.47349  -1528036.09247  20744139.591    20744147.407
  20628506.637      452586.67049    359525.30247  20628506.572    20628513.958
  23308402.876   -10126482.23049  -7870338.94045  23308402.630    23308410.480
  22499919.964   -12856540.88449 -10000336.43546  22499919.480    22499928.354
  21506927.176   -11029582.02149  -8574489.49147  21506927.354    21506935.233
  24657859.668    15278523.65749  11897467.09445  24657858.910    24657869.074
  23220398.330   -12739308.66549  -9894039.54445  23220397.893    23220408.110
 03  6  8 17 23 30.0000000  0 10G29G21G18G17G 6G16G15G26G10G23
  22771573.729    -3582326.19549  -2777270.00746  22771573.687    22771581.738
  20644465.693    -6432594.92349  -4997663.03447  20644465.314    20644471.253
  21390050.501   -15486853.23949 -12044248.54247  21390050.246    21390057.050
  20745038.213    -2329114.67949  -1524358.34447  20745037.779    20745045.594
  20636870.887      496540.88449    393775.30747  20636870.812    20636878.217
  23306242.828   -10137833.43849  -7879184.03645  23306242.574    23306250.416
  22486772.587   -12925630.52749 -10054172.46546  22486772.102    22486780.962
  21502601.773   -11052312.16549  -8592201.28047  21502601.948    21502609.850
  24677991.233    15384315.27149  11979902.07245  24677990.433    24678000.635
  23204102.912   -12824941.41349  -9960766.26745  23204102.455    23204112.652
 03  6  8 17 24  0.0000000  0 10G29G21G18G17G 6G16G15G26G10G23
  22776218.460    -3557918.01849  -2758250.69046  22776218.452    22776226.442
  20640807.233    -6451820.51549  -5012644.02347  20640806.827    20640812.755
  21377667.294   -15551927.40549 -12094955.64147  21377667.019    21377673.853
  20745974.767    -2324192.96749  -1520523.26647  20745974.331    20745982.143
  20645326.647      540976.26949    428400.24647  20645326.558    20645334.036
  23304187.254   -10148635.43149  -7887601.16845  23304187.007    23304194.879
  22473646.222   -12994609.84249 -10107922.53346  22473645.729    22473654.555
  21498398.046   -11074402.74349  -8609414.70547  21498398.239    21498406.121
  24698123.936    15490112.91349  12062341.73245  24698123.135    24698133.392
  23187859.003   -12910303.73049 -10027282.27646  23187858.510    23187868.668
 03  6  8 17 24 30.0000000  0 10G29G21G18G17G 6G16G15G26G10G23
  22780966.634    -3532966.68249  -2738808.11946  22780966.595    22780974.562
  20637189.633    -6470831.13049  -5027457.50047  20637189.231    20637195.138
  21365357.181   -15616617.21249 -12145363.24447  21365356.921    21365363.784
  20746949.174    -2319072.47249  -1516533.28247  20746948.746    20746956.589
  20653873.272      585889.14849    463397.25947  20653873.211    20653880.712
  23302235.487   -10158891.37249  -7895592.80445  23302235.298    23302243.175
  22460540.350   -13063481.51549 -10161588.72946  22460539.882    22460548.663
  21494315.759   -11095855.30849  -8626130.98247  21494315.945    21494323.838
  24718256.792    15595911.54349  12144782.14645  24718256.107    24718266.229
  23171666.278   -12995397.43649 -10093588.97745  23171665.790    23171675.738
 03  6  8 17 25  0.0000000  0  9G29G21G18G17G 6G16G15G26G23
  22785818.936    -3507467.66649  -2718938.77846  22785818.936    22785826.906
  20633614.047    -6489621.07149  -5042099.01847  20633613.646    20633619.549
  21353121.316   -15680917.07249 -12195466.99547  21353121.042    21353127.856
  20747962.325    -2313748.23049  -1512384.53847  20747961.925    20747969.788
  20662511.653      631284.02749    498769.86547  20662511.581    20662519.100
  23300388.657   -10168596.26949  -7903155.05745  23300388.477    23300396.391
  22447455.986   -13132240.28349 -10215166.93846  22447455.490    22447464.235
  21490356.059   -11116663.75549  -8642345.34447  21490356.216    21490364.134
  23155525.646   -13080216.41349 -10159681.61146  23155525.183    23155535.212
 03  6  8 17 25 30.0000000  0  9G29G21G18G17G 6G16G15G26G23
  22790774.835    -3481424.44349  -2698645.38546  22790774.844    22790782.818
  20630079.899    -6508193.37549  -5056570.94547  20630079.493    20630085.375
  21340959.212   -15744829.14449 -12245268.56247  21340958.952    21340965.760
  20749013.871    -2308222.53049  -1508078.81047  20749013.447    20749021.341
  20671241.103      677157.50949    534515.41647  20671241.047    20671248.599
  23298646.095   -10177753.30549  -7910290.40545  23298645.943    23298653.921
  22434392.625   -13200888.74249 -10268659.17946  22434392.104    22434400.838
  21486518.629   -11136829.35649  -8658058.78147  21486518.823    21486526.767
  23139437.039   -13164762.22749 -10225561.38746  23139436.642    23139446.568
 03  6  8 17 26  0.0000000  0  9G29G21G18G17G 6G16G15G26G23
  22795834.315    -3454837.33249  -2677928.19546  22795834.232    22795842.254
  20626587.234    -6526547.28749  -5070872.70547  20626586.851    20626592.721
  21328871.219   -15808352.02649 -12294766.87747  21328870.970    21328877.745
  20750103.828    -2302494.91549  -1503615.75247  20750103.422    20750111.284
  20680061.585      723509.25249    570633.62447  20680061.521    20680069.081
  23297007.907   -10186362.36649  -7916998.76645  23297007.667    23297015.622
  22421350.261   -13269426.49249 -10322065.17946  22421349.733    22421358.513
  21482803.862   -11156350.60349  -8673270.13047  21482804.054    21482812.014
  23123400.636   -13249033.50249 -10291227.22646  23123400.193    23123410.133
 03  6  8 17 26 30.0000000  0  9G29G21G18G17G 6G16G15G26G23
  22800996.723    -3427708.86049  -2656789.15746  22800996.698    22801004.715
  20623135.994    -6544683.78949  -5085005.04847  20623135.620    20623141.502
  21316857.135   -15871486.47449 -12343962.51347  21316856.867    21316863.639
  20751231.968    -2296566.54049  -1498996.25047  20751231.571    20751239.409
  20688972.635      770336.92949    607122.68447  20688972.582    20688980.133
  23295473.657   -10194425.22749  -7923281.49945  23295473.429    23295481.281
  22408328.657   -13337854.87549 -10375385.93146  22408328.207    22408336.971
  21479211.631   -11175227.89249  -8687979.68747  21479211.791    21479219.772
  23107416.449   -13333030.67549 -10356679.46546  23107416.039    23107425.944
 03  6  8 17 27  0.0000000  0  9G29G21G18G17G 6G16G15G26G23
  22806262.086    -3400039.05749  -2635228.30846  22806262.064    22806270.084
  20619726.227    -6562602.35749  -5098967.57847  20619725.841    20619731.731
  21304917.095   -15934231.47049 -12392854.68847  21304916.843    21304923.639
  20752398.493    -2290436.61949  -1494219.70547  20752398.084    20752405.918
  20697974.258      817640.40649    643982.49147  20697974.201    20697981.717
  23294043.436   -10201941.70749  -7929138.49045  23294043.179    23294050.917
  22395328.167   -13406172.62149 -10428620.49946  22395327.708    22395336.469
  21475742.339   -11193459.28249  -8702185.95447  21475742.503    21475750.472
  23091484.725   -13416751.95749 -10421916.75146  23091484.328    23091494.235
 03  6  8 17 27 30.0000000  0  9G29G21G18G17G 6G16G15G26G23
  22811630.697    -3371826.74949  -2613244.72846  22811630.687    22811638.683
  20616358.397    -6580300.51749  -5112758.35647  20616358.022    20616363.916
  21293051.775   -15996583.96649 -12441441.01147  21293051.527    21293058.308
  20753603.770    -2284103.04249  -1489284.46747  20753603.339    20753611.195
  20707066.695      865421.14549    681214.20147  20707066.616    20707074.135
  23292717.405   -10208909.98849  -7934568.29645  23292717.098    23292724.850
  22382349.202   -13474377.40749 -10481767.02146  22382348.742    22382357.502
  21472396.575   -11211041.54749  -8715886.41547  21472396.739    21472404.617
  23075606.206   -13500194.14549 -10486936.55346  23075605.781    23075615.629
 03  6  8 17 28  0.0000000  0 10G29G21G18G17G 6G16G15G26G23G 2
  22817101.539    -3343077.34549  -2590842.62246  22817101.539    22817109.536
  20613031.656    -6597782.56149  -5126380.72347  20613031.285    20613037.185
  21281260.372   -16058548.16549 -12489724.76547  21281260.110    21281266.913
  20754846.833    -2277570.75949  -1484194.38547  20754846.429    20754854.286
  20716248.880      913673.82149    718813.66347  20716248.809    20716256.354
  23291494.645   -10215335.26649  -7939575.01245  23291494.364    23291502.134
  22369390.876   -13542473.82149 -10534829.10146  22369390.403    22369399.126
  21469173.637   -11227978.33449  -8729083.89947  21469173.750    21469181.627
  23059780.032   -13583360.85149 -10551741.70046  23059779.677    23059789.409
  25235233.343    -6284484.87749  -4392155.03445  25235232.702    25235242.647
 03  6  8 17 28 30.0000000  0 10G29G21G18G17G 6G16G15G26G23G 2
  22822675.051    -3313788.21149  -2568019.94946  22822675.101    22822683.067
  20609746.748    -6615045.00849  -5139831.97547  20609746.370    20609752.273
  21269543.646   -16120119.79349 -12537702.61547  21269543.382    21269550.175
  20756128.464    -2270835.74149  -1478946.31947  20756128.052    20756135.924
  20725521.423      962401.13049    756782.97647  20725521.340    20725528.894
  23290375.901   -10221214.14649  -7944155.94745  23290375.639    23290383.411
  22356453.827   -13610458.24649 -10587803.91746  22356453.379    22356462.044
  21466074.316   -11244265.02549  -8741774.81047  21466074.446    21466082.335
  23044007.187   -13666247.55449 -10616328.66246  23044006.796    23044016.517
  25227700.963    -6324067.41849  -4422998.58845  25227700.267    25227710.464
 03  6  8 17 29  0.0000000  0 10G29G21G18G17G 6G16G15G26G23G 2
  22828351.941    -3283956.51049  -2544774.50446  22828351.940    22828359.875
  20606504.428    -6632083.43049  -5153108.67647  20606504.054    20606509.979
  21257902.435   -16181294.66149 -12585371.31447  21257902.181    21257908.933
  20757449.388    -2263894.29649  -1473537.41847  20757448.967    20757456.866
  20734884.779     1011605.70849    795124.17747  20734884.678    20734892.215
  23289361.710   -10226543.79849  -7948308.92445  23289361.411    23289369.312
  22343538.909   -13678326.61949 -10640688.31746  22343538.440    22343547.063
  21463099.550   -11259897.07649  -8753955.62747  21463099.685    21463107.629
  23028288.490   -13748849.67049 -10680693.86646  23028288.118    23028297.798
  25220246.586    -6363240.13049  -4453522.79445  25220245.947    25220256.082
 03  6  8 17 29 30.0000000  0 10G29G21G18G17G 6G16G15G26G23G 2
  22834130.902    -3253588.37749  -2521111.05146  22834130.900    22834138.777
  20603303.779    -6648902.80449  -5166214.68147  20603303.410    20603309.369
  21246335.918   -16242077.06649 -12632734.19047  21246335.658    21246342.421
  20758808.679    -2256751.21549  -1467971.38947  20758808.276    20758816.165
  20744337.868     1061282.01149    833832.95347  20744337.784    20744345.348
  23288451.009   -10231329.48149  -7952038.03345  23288450.701    23288458.636
  22330645.125   -13746083.68749 -10693485.98046  22330644.647    22330653.262
  21460248.691   -11274878.19549  -8765629.21747  21460248.849    21460256.830
  23012623.229   -13831170.97149 -10744840.26746  23012622.813    23012632.483
  25212869.399    -6402007.14849  -4483730.86345  25212868.773    25212878.962
 03  6  8 17 30  0.0000000  0 10G29G21G18G17G 6G16G15G26G23G 2
  22840012.282    -3222681.38649  -2497027.71946  22840012.269    22840020.257
  20600145.501    -6665499.70449  -5179147.33247  20600145.146    20600151.075
  21234844.799   -16302463.12749 -12679788.23247  21234844.553    21234851.291
  20760206.949    -2249403.22549  -1462245.69147  20760206.558    20760214.472
  20753881.117     1111432.15249    872910.94947  20753881.047    20753888.660
  23287644.286   -10235568.54449  -7955341.19545  23287644.000    23287652.026
  22317773.145   -13813726.03449 -10746194.24546  22317772.687    22317781.282
  21457522.525   -11289204.37549  -8776792.46747  21457522.696    21457530.713
  22997012.125   -13913207.35549 -10808764.64146  22997011.730    22997021.437
  25205570.212    -6440364.57349  -4513619.77445  25205569.646    25205579.563
 03  6  8 17 30 30.0000000  0 10G29G21G18G17G 6G16G15G26G23G 2
  22845995.425    -3191239.60549  -2472527.65746  22845995.357    22846003.478
  20597029.045    -6681876.83049  -5191908.73247  20597028.664    20597034.595
  21223428.695   -16362455.16449 -12726535.24547  21223428.436    21223435.158
  20761643.667    -2241853.15749  -1456362.53847  20761643.273    20761651.187
  20763513.839     1162052.34649    912355.20747  20763513.759    20763521.378
  23286940.875   -10239264.53149  -7958221.19845  23286940.596    23286948.682
  22304922.528   -13881256.29549 -10798815.18646  22304922.054    22304930.647
  21454920.676   -11302877.70349  -8787447.01747  21454920.798    21454928.787
  22981454.911   -13994960.62749 -10872468.41846  22981454.510    22981464.208
  25198348.668    -6478314.63449  -4543191.27745  25198348.166    25198357.776
 03  6  8 17 31  0.0000000  0 10G29G21G18G17G 6G16G15G26G23G 2
  22852080.618    -3159261.66449  -2447609.81246  22852080.604    22852088.762
  20593954.901    -6698031.59149  -5204496.85547  20593954.532    20593960.465
  21212088.065   -16422050.31449 -12772972.99347  21212087.807    21212094.519
  20763119.326    -2234098.53349  -1450319.98047  20763118.932    20763126.860
  20773236.288     1213144.14249    952166.94947  20773236.228    20773243.892
  23286341.268   -10242415.69149  -7960676.64945  23286341.002    23286349.052
  22292093.731   -13948671.83949 -10851346.72746  22292093.265    22292101.851
  21452443.577   -11315894.81949  -8797590.22847  21452443.712    21452451.661
  22965952.176   -14076427.60149 -10935949.10046  22965951.793    22965961.512
  25191205.196    -6515854.37849  -4572443.04945  25191204.592    25191214.381
 03  6  8 17 31 30.0000000  0 10G29G21G18G17G 6G16G15G26G23G 2
  22858267.889    -3126747.58949  -2422274.20246  22858267.901    22858275.999
  20590923.319    -6713962.72749  -5216910.72747  20590922.931    20590928.889
  21200823.153   -16481247.53749 -12819100.66747  21200822.906    21200829.628
  20764634.096    -2226138.33049  -1444117.23647  20764633.703    20764641.624
  20783048.490     1264707.44649    992346.11047  20783048.425    20783056.117
  23285845.412   -10245021.76449  -7962707.35545  23285845.075    23285853.050
  22279286.930   -14015971.69449 -10903788.13446  22279286.501    22279295.083
  21450091.666   -11328254.18549  -8807220.91047  21450091.841    21450099.701
  22950504.245   -14157606.65549 -10999205.42346  22950503.837    22950513.558
  25184139.867    -6552982.36849  -4601373.95745  25184139.362    25184149.320
 03  6  8 17 32  0.0000000  0 10G29G21G18G17G 6G16G15G26G23G 2
  22864556.149    -3093702.49949  -2396524.81946  22864556.207    22864564.282
  20587933.548    -6729674.03949  -5229153.31447  20587933.160    20587939.148
  21189633.464   -16540049.69249 -12864920.50947  21189633.222    21189639.905
  20766187.289    -2217976.31449  -1437757.24247  20766186.888    20766194.830
  20792949.517     1316737.49949   1032888.97947  20792949.441    20792957.114
  23285452.429   -10247087.12249  -7964316.73745  23285452.126    23285460.019
  22266501.547   -14083159.39149 -10956142.14946  22266501.122    22266509.688
  21447864.330   -11339958.75949  -8816341.37147  21447864.502    21447872.374
  22935110.598   -14238500.49649 -11062239.52246  22935110.174    22935119.881
  25177152.487    -6589701.66749  -4629986.40445  25177152.081    25177162.035
 03  6  8 17 32 30.0000000  0 10G29G21G18G17G 6G16G15G26G23G 2
  22870946.512    -3060121.33449  -2370357.71646  22870946.583    22870954.647
  20584986.819    -6745159.24049  -5241219.70147  20584986.430    20584992.410
  21178520.119   -16598450.51649 -12910427.61547  21178519.886    21178526.575
  20767780.029    -2209606.63649  -1431235.42247  20767779.615    20767787.568
  20802940.324     1369239.24349   1073799.39647  20802940.244    20802947.895
  23285163.378   -10248606.39949  -7965500.58345  23285163.077    23285170.867
  22253738.697   -14150228.77649 -11008403.95646  22253738.228    22253746.825
  21445762.910   -11351001.67849  -8824946.24247  21445763.087    21445771.020
  22919772.518   -14319102.29449 -11125046.03546  22919772.122    22919781.848
  25170244.046    -6626005.72849  -4658275.30445  25170243.453    25170253.374
 03  6  8 17 33  0.0000000  0 10G29G21G18G17G 6G16G15G26G23G 2
  22877438.104    -3026008.31149  -2343776.18046  22877438.189    22877446.231
  20582082.556    -6760421.33049  -5253112.24247  20582082.181    20582088.163
  21167482.713   -16656452.40049 -12955623.86047  21167482.467    21167489.186
  20769411.747    -2201031.85649  -1424553.78947  20769411.356    20769419.341
  20813020.099     1422208.73449   1115074.28247  20813020.036    20813027.678
  23284977.469   -10249583.27349  -7966261.78645  23284977.205    23284985.011
  22240997.713   -14217182.68749 -11060575.79746  22240997.288    22241005.911
  21443786.973   -11361385.23949  -8833037.33447  21443787.145    21443795.115
  22904489.665   -14399414.11049 -11187626.61446  22904489.272    22904498.956
  25163414.263    -6661896.87649  -4686242.42545  25163413.671    25163423.523
 03  6  8 17 33 30.0000000  0 10G29G21G18G17G 6G16G15G26G23G 2
  22884030.606    -2991364.82849  -2316781.29646  22884030.635    22884038.716
  20579220.797    -6775460.03949  -5264830.71947  20579220.412    20579226.389
  21156521.212   -16714055.41949 -13000509.30347  21156520.965    21156527.711
  20771082.490    -2192252.06649  -1417712.40747  20771082.109    20771090.102
  20823188.640     1475644.55249   1156712.54247  20823188.576    20823196.236
  23284894.534   -10250018.92049  -7966601.26145  23284894.274    23284902.305
  22228278.786   -14284021.06849 -11112657.61146  22228278.323    22228286.997
  21441936.614   -11371109.20149  -8840614.45247  21441936.776    21441944.720
  22889262.015   -14479435.53949 -11249980.90246  22889261.614    22889271.356
  25156663.025    -6697375.05049  -4713887.78045  25156662.335    25156672.432
 03  6  8 17 34  0.0000000  0 10G29G21G18G17G 6G16G15G26G23G 2
  22890723.619    -2956192.91149  -2289374.64546  22890723.652    22890731.775
  20576401.441    -6790275.76549  -5276375.43947  20576401.074    20576407.041
  21145635.585   -16771259.49749 -13045083.88347  21145635.341    21145642.078
  20772792.178    -2183267.83449  -1410711.71847  20772791.786    20772799.767
  20833445.544     1529544.83649   1198712.72147  20833445.476    20833453.147
  23284914.262   -10249914.85949  -7966520.18345  23284913.980    23284922.199
  22215581.654   -14350744.60449 -11164649.93946  22215581.223    22215589.853
  21440211.741   -11380173.58849  -8847677.62047  21440211.870    21440219.778
  22874089.696   -14559166.32249 -11312108.71446  22874089.357    22874099.016
  25149990.296    -6732440.43849  -4741211.47545  25149989.654    25149999.784
 03  6  8 17 34 30.0000000  0 10G29G21G18G17G 6G16G15G26G23G 2
  22897517.313    -2920492.33449  -2261556.05546  22897517.269    22897525.463
  20573624.808    -6804867.09149  -5287745.30647  20573624.436    20573630.393
  21134826.251   -16828062.98649 -13089346.32647  21134826.004    21134832.714
  20774540.939    -2174078.09149  -1403550.89747  20774540.545    20774548.543
  20843790.927     1583909.85949   1241075.02647  20843790.864    20843798.534
  23285036.917   -10249270.60649  -7966018.17845  23285036.664    23285044.814
  22202906.730   -14417351.62949 -11216551.48646  22202906.278    22202914.886
  21438612.683   -11388576.34649  -8854225.23147  21438612.897    21438620.811
  22858973.081   -14638604.32849 -11374008.37846  22858972.733    22858982.376
  25143396.326    -6767091.23949  -4768212.11845  25143395.749    25143406.103
 03  6  8 17 35  0.0000000  0 10G29G21G18G17G 6G16G15G26G23G 2
  22904411.717    -2884261.79549  -2233324.49946  22904411.686    22904419.955
  20570891.435    -6819231.13249  -5298938.06747  20570891.068    20570897.024
  21124093.656   -16884463.06549 -13133294.42047  21124093.394    21124100.094
  20776329.400    -2164679.71949  -1396227.50447  20776329.017    20776337.000
  20854225.012     1638741.15449   1283800.66847  20854224.950    20854232.630
  23285262.766   -10248084.35149  -7965093.83646  23285262.459    23285270.488
  22190254.471   -14483839.46449 -11268360.15046  22190254.017    22190262.665
  21437140.136   -11396314.35349  -8860254.85647  21437140.337    21437148.297
  22843912.820   -14717746.23249 -11435677.32846  22843912.479    22843922.111
  25136882.155    -6801324.22749  -4794887.20345  25136881.449    25136891.670
 03  6  8 17 35 30.0000000  0 10G29G21G18G17G 6G16G15G26G23G 2
  22911406.390    -2847504.46349  -2204682.45646  22911406.314    22911414.677
  20568200.968    -6833369.61949  -5309955.06547  20568200.611    20568206.555
  21113437.519   -16940461.37149 -13176929.43447  21113437.272    21113443.928
  20778157.149    -2155074.91349  -1388743.24447  20778156.751    20778164.729
  20864747.221     1694035.62949   1326887.23647  20864747.156    20864754.865
  23285591.191   -10246358.89249  -7963749.33046  23285590.921    23285598.855
  22177624.641   -14550209.57749 -11320077.08146  22177624.160    22177632.791
  21435793.884   -11403389.12049  -8865767.66547  21435794.069    21435802.041
  22828908.728   -14796593.10649 -11497116.36346  22828908.345    22828917.920
  25130447.058    -6835140.96449  -4821237.92845  25130446.105    25130456.678
 03  6  8 17 36  0.0000000  0 10G29G21G18G17G 6G16G15G26G23G 2
  22918500.724    -2810223.75249  -2175632.57846  22918500.642    22918509.025
  20565553.042    -6847284.49949  -5320797.83347  20565552.664    20565558.629
  21102857.568   -16996059.53849 -13220252.66847  21102857.306    21102863.922
  20780023.870    -2145265.38949  -1381099.47347  20780023.479    20780031.448
  20875356.960     1749790.14649   1370332.27047  20875356.921    20875364.618
  23286021.675   -10244096.99649  -7961986.82546  23286021.383    23286029.218
  22165016.806   -14616463.92749 -11371703.82946  22165016.329    22165024.965
  21434573.561   -11409802.22649  -8870764.90847  21434573.733    21434581.691
  22813960.571   -14875146.29049 -11558326.57346  22813960.164    22813969.681
  25124090.967    -6868543.08349  -4847265.55845  25124089.864    25124100.355
 03  6  8 17 36 30.0000000  0 10G29G21G18G17G 6G16G15G26G23G 2
  22925694.844    -2772418.22549  -2146173.75146  22925694.792    22925703.162
  20562948.245    -6860972.95749  -5331464.16147  20562947.867    20562953.839
  21092354.364   -17051254.34149 -13263261.58047  21092354.087    21092360.678
  20781930.018    -2135248.67949  -1373294.25347  20781929.610    20781937.568
  20886054.583     1806006.34949   1414137.06847  20886054.555    20886062.250
  23286554.484   -10241296.90449  -7959804.94945  23286554.214    23286562.053
  22152431.581   -14682599.53849 -11423238.03246  22152431.072    22152439.786
  21433479.749   -11415550.36249  -8875243.98547  21433479.950    21433487.854
  22799068.974   -14953402.18649 -11619305.12446  22799068.543    22799078.002
  25117814.299    -6901527.27849  -4872967.53645  25117813.429    25117823.378
 03  6  8 17 37  0.0000000  0 10G29G21G18G17G 6G16G15G26G23G 2
  22932988.927    -2734087.94049  -2116306.04646  22932988.902    22932997.163
  20560386.788    -6874433.37449  -5341952.80547  20560386.431    20560392.380
  21081928.170   -17106044.39549 -13305955.11247  21081927.905    21081934.469
  20783875.841    -2125023.41349  -1365326.52847  20783875.442    20783883.406
  20896840.066     1862684.20149   1458301.58047  20896840.039    20896847.729
  23287189.693   -10237958.56949  -7957203.67845  23287189.425    23287197.366
  22139869.222   -14748614.78449 -11474678.46146  22139868.728    22139877.421
  21432512.823   -11420631.92349  -8879203.65747  21432513.010    21432520.874
  22784234.336   -15031358.81349 -11680050.48246  22784233.903    22784243.313
  25111617.292    -6934092.25549  -4898342.86945  25111616.450    25111626.512
 03  6  8 17 37 30.0000000  0 10G29G21G18G17G 6G16G15G26G23G 2
  22940382.538    -2695234.61249  -2086030.75646  22940382.553    22940390.719
  20557868.781    -6887665.63049  -5352263.64847  20557868.414    20557874.366
  21071578.975   -17160429.47549 -13348333.06847  21071578.730    21071585.348
  20785861.404    -2114589.33949  -1357196.08947  20785860.998    20785868.964
  20907713.141     1919822.25549   1502824.69547  20907713.111    20907720.766
  23287927.168   -10234083.10349  -7954183.84345  23287926.944    23287934.893
  22127329.790   -14814509.89149 -11526025.27546  22127329.308    22127337.996
  21431672.719   -11425046.77749  -8882643.81247  21431672.882    21431680.758
  22769456.606   -15109015.89349 -11740562.41546  22769456.214    22769465.598
  25105500.219    -6966237.57449  -4923391.16645  25105499.444    25105509.479
 03  6  8 17 38  0.0000000  0 10G29G21G18G17G 6G16G15G26G23G 2
  22947874.955    -2655861.67349  -2055350.56546  22947875.017    22947883.190
  20555393.777    -6900671.95849  -5362398.44747  20555393.407    20555399.353
  21061306.503   -17214411.44149 -13390396.90547  21061306.261    21061312.897
  20787886.294    -2103948.66349  -1348904.65847  20787885.896    20787893.831
  20918673.151     1977417.25849   1547703.87747  20918673.124    20918680.818
  23288766.399   -10229673.21949  -7950747.57945  23288766.173    23288774.154
  22114812.888   -14880286.58849 -11577279.80646  22114812.404    22114821.069
  21430959.198   -11428796.48349  -8885565.66847  21430959.365    21430967.273
  22754735.661   -15186374.54949 -11800841.81246  22754735.235    22754744.649
  25099462.562    -6997964.88349  -4948113.74045  25099461.874    25099472.062
 03  6  8 17 38 30.0000000  0 10G29G21G18G17G 6G16G15G26G23G 2
  22955466.532    -2615968.02149  -2024264.64946  22955466.611    22955474.668
  20552962.344    -6913449.28149  -5372354.80647  20552961.990    20552967.912
  21051111.267   -17267987.73049 -13432144.63647  21051111.039    21051117.661
  20789950.967    -2093098.84049  -1340450.25947  20789950.577    20789958.502
  20929720.280     2035470.30649   1592939.97147  20929720.256    20929727.984
  23289707.568   -10224727.66449  -7946893.91146  23289707.341    23289715.293
  22102319.010   -14945942.38349 -11628440.14646  22102318.513    22102327.166
  21430372.733   -11431878.44149  -8887967.19847  21430372.902    21430380.812
  22740072.079   -15263431.70849 -11860886.27846  22740071.666    22740081.125
  25093505.048    -7029271.46249  -4972508.47945  25093504.409    25093514.641
 03  6  8 17 39  0.0000000  0 10G29G21G18G17G 6G16G15G26G23G 2
  22963156.715    -2575556.23149  -1992774.96446  22963156.737    22963164.865
  20550574.331    -6925998.43449  -5382133.36647  20550573.964    20550579.883
  21040993.140   -17321158.89349 -13473576.68647  21040992.884    21040999.470
  20792055.264    -2082040.85849  -1331833.66447  20792054.840    20792062.789
  20940854.162     2093979.09049   1638531.19247  20940854.138    20940861.890
  23290750.319   -10219248.78649  -7942624.67546  23290750.059    23290757.864
  22089847.981   -15011478.11949 -11679506.92946  22089847.517    22089856.116
  21429913.239   -11434293.30149  -8889848.91147  21429913.390    21429921.318
  22725465.812   -15340187.79449 -11920696.14146  22725465.418    22725474.808
  25087627.342    -7060158.20749  -4996576.08545  25087626.747    25087637.385
 03  6  8 17 39 30.0000000  0 10G29G21G18G17G 6G16G15G26G23G 2
  22970945.264    -2534626.84249  -1960881.96046  22970945.276    22970953.542
  20548229.918    -6938318.46349  -5391733.39547  20548229.547    20548235.449
  21030952.263   -17373924.03749 -13514692.35947  21030952.005    21030958.539
  20794199.304    -2070773.95249  -1323054.27447  20794198.876    20794206.828
  20952074.639     2152943.12449   1684477.14647  20952074.621    20952082.424
  23291894.355   -10213236.62449  -7937939.89945  23291894.147    23291901.915
  22077400.033   -15076892.71249 -11730479.31546  22077399.535    22077408.135
  21429580.723   -11436040.32649  -8891210.24247  21429580.910    21429588.831
  22710917.157   -15416641.25049 -11980270.19346  22710916.760    22710926.126
  25081829.836    -7090623.98849  -5020315.65845  25081829.381    25081840.059
 03  6  8 17 40  0.0000000  0 10G29G21G18G17G 6G16G15G26G23G 2
  22978831.865    -2493182.71649  -1928587.88046  22978831.826    22978840.126
  20545928.902    -6950410.42749  -5401155.70947  20545928.530    20545934.426
  21020988.443   -17426284.38849 -13555492.60747  21020988.173    21020994.671
  20796382.810    -2059299.43149  -1314113.10047  20796382.394    20796390.329
  20963381.290     2212359.69049   1730775.72647  20963381.263    20963389.087
  23293139.328   -10206693.74049  -7932841.56445  23293139.126    23293146.906
  22064974.950   -15142187.28049 -11781358.17346  22064974.446    22064983.023
  21429375.197   -11437120.29349  -8892051.78547  21429375.392    21429383.285
  22696425.953   -15492792.69449 -12039608.91146  22696425.572    22696434.907
  25076112.381    -7120669.83649  -5043728.01845  25076111.998    25076122.701
 03  6  8 17 40 30.0000000  0 10G29G21G18G17G 6G16G15G26G23G 2
  22986816.777    -2451222.02949  -1895891.28046  22986816.698    22986824.989
  20543671.898    -6962271.05049  -5410397.75547  20543671.532    20543677.425
  21011102.380   -17478235.92449 -13595974.30347  21011102.107    21011108.587
  20798606.708    -2047612.90049  -1305006.73147  20798606.284    20798614.206
  20974774.475     2272231.00249   1777428.64147  20974774.436    20974782.238
  23294485.806   -10199617.75049  -7927327.81345  23294485.603    23294493.371
  22052573.420   -15207358.00549 -11832140.53046  22052572.891    22052581.437
  21429297.365   -11437529.60349  -8892370.73947  21429297.526    21429305.378
  22681993.023   -15568638.10349 -12098709.14846  22681992.623    22682001.884
  25070475.566    -7150291.92049  -5066810.14545  25070475.161    25070485.816
 03  6  8 17 41  0.0000000  0 10G29G21G18G17G 6G16G15G26G23G 2
  22994898.937    -2408750.23449  -1862796.41946  22994898.853    22994907.104
  20541458.291    -6973903.75349  -5419462.20047  20541457.905    20541463.812
  21001293.321   -17529782.79949 -13636140.67147  21001293.067    21001299.570
  20800870.061    -2035718.98149  -1295738.76047  20800869.648    20800877.529
  20986253.109     2332551.54049   1824431.61147  20986253.069    20986260.879
  23295932.825   -10192013.87749  -7921402.75145  23295932.601    23295940.386
  22040194.681   -15272408.82649 -11882829.46446  22040194.151    22040202.660
  21429346.372   -11437272.30749  -8892170.24947  21429346.512    21429354.412
  22667617.643   -15644181.06949 -12157573.72446  22667617.255    22667626.480
  25064918.697    -7179494.34849  -5089565.27345  25064918.258    25064928.850
 03  6  8 17 41 30.0000000  0 10G29G21G18G17G 6G16G15G26G23G 2
  23003079.099    -2365763.71849  -1829300.48146  23003078.980    23003087.226
  20539289.069    -6985303.12549  -5428344.83347  20539288.696    20539294.563
  20991562.311   -17580919.65149 -13675987.54147  20991562.034    20991568.511
  20803173.860    -2023612.42849  -1286305.09147  20803173.443    20803181.309
  20997818.069     2393325.39849   1871787.82747  20997818.023    20997825.820
  23297481.122   -10183878.07949  -7915063.17745  23297480.869    23297488.658
  22027839.776   -15337334.16249 -11933420.62146  22027839.264    22027847.778
  21429523.211   -11436342.93349  -8891446.06247  21429523.370    21429531.299
  22653300.965   -15719415.66349 -12216198.00846  22653300.557    22653309.743
  25059442.652    -7208271.42849  -5111988.95345  25059442.130    25059452.710
 03  6  8 17 42  0.0000000  0 10G29G21G18G17G 6G16G15G26G23G 2
  23011356.405    -2322266.08449  -1795406.26046  23011356.379    23011364.621
  20537163.930    -6996470.92849  -5437047.02247  20537163.557    20537169.421
  20981908.990   -17631648.15949 -13715516.21947  20981908.717    20981915.205
  20805517.888    -2011294.70449  -1276706.88047  20805517.460    20805525.316
  21009468.575     2454549.08349   1919494.55847  21009468.528    21009476.306
  23299130.060   -10175213.44049  -7908311.53445  23299129.758    23299137.481
  22015508.420   -15402135.73249 -11983915.32946  22015507.901    22015516.479
  21429827.560   -11434743.54549  -8890199.79147  21429827.729    21429835.641
  22639042.754   -15794343.13149 -12274582.98346  22639042.357    22639051.454
  25054047.076    -7236624.88149  -5134082.52245  25054046.524    25054057.197
 03  6  8 17 42 30.0000000  0 10G29G21G18G17G 6G16G15G26G23G 2
  23019730.063    -2278262.28449  -1761117.62146  23019730.112    23019738.336
  20535082.207    -7007410.54649  -5445571.40447  20535081.809    20535087.685
  20972332.723   -17681971.66149 -13754729.30747  20972332.456    20972338.931
  20807901.379    -1998769.54649  -1266947.03047  20807900.960    20807908.792
  21021203.838     2516217.65049   1967547.95147  21021203.753    21021211.517
  23300878.636   -10166024.74249  -7901151.52445  23300878.348    23300885.970
  22003199.967   -15466816.75849 -12034316.11046  22003199.462    22003208.029
  21430258.832   -11432477.53949  -8888434.07847  21430258.980    21430266.856
  22624842.368   -15868966.52849 -12332731.01146  22624841.908    22624850.954
  25048731.559    -7264558.15549  -5155848.68445  25048731.094    25048741.530
 03  6  8 17 43  0.0000000  0 10G29G21G18G17G 6G16G15G26G23G 2
  23028201.146    -2233746.93649  -1726430.38646  23028201.158    23028209.373
  20533045.315    -7018114.53849  -5453912.18947  20533044.909    20533050.806
  20962834.948   -17731882.88649 -13793621.15047  20962834.672    20962841.082
  20810325.696    -1986029.81649  -1257019.99047  20810325.252    20810333.098
  21033024.737     2578336.95749   2015952.56547  21033024.670    21033032.473
  23302728.032   -10156306.00649  -7893578.51045  23302727.757    23302735.391
  21990915.910   -15531369.90749 -12084617.25346  21990915.426    21990923.942
  21430818.284   -11429537.70249  -8886143.30447  21430818.393    21430826.234
  22610701.268   -15943278.12249 -12390636.08246  22610700.848    22610709.892
  25043497.302    -7292063.83949  -5177281.66445  25043496.888    25043507.175
 03  6  8 17 43 30.0000000  0 10G29G21G18G17G 6G16G15G26G23G 2
  23036768.553    -2188725.27249  -1691348.60346  23036768.567    23036776.751
  20531052.557    -7028586.40349  -5462072.08947  20531052.178    20531058.083
  20953414.850   -17781385.64549 -13832194.70147  20953414.573    20953420.979
  20812790.190    -1973078.58149  -1246928.13647  20812789.756    20812797.632
  21044930.476     2640901.59149   2064704.19047  21044930.408    21044938.164
  23304677.216   -10146062.40349  -7885596.50445  23304677.018    23304684.749
  21978655.419   -15595798.83649 -12134821.58246  21978654.924    21978663.442
  21431505.202   -11425927.78649  -8883330.38347  21431505.368    21431513.208
  22596618.866   -16017280.99949 -12448300.58046  22596618.447    22596627.511
  25038343.754    -7319145.62649  -5198384.32545  25038343.216    25038353.801
 03  6  8 17 44  0.0000000  0 10G29G21G18G17G 6G16G15G26G23G 2
  23045432.091    -2143198.17849  -1655872.99746  23045432.079    23045440.291
  20529104.250    -7038824.92349  -5470050.16647  20529103.867    20529109.773
  20944072.624   -17830479.11649 -13870449.32847  20944072.380    20944078.774
  20815295.092    -1959915.14149  -1236670.93547  20815294.681    20815302.605
  21056920.833     2703911.05449   2113802.42747  21056920.727    21056928.513
  23306726.352   -10135294.43249  -7877205.88745  23306726.119    23306733.857
  21966418.870   -15660102.43549 -12184928.26846  21966418.345    21966426.830
  21432319.807   -11421647.09849  -8879994.78347  21432320.013    21432327.871
  22582595.523   -16090973.88749 -12505723.53446  22582595.075    22582604.213
  25033271.119    -7345802.60949  -5219155.98545  25033270.517    25033281.192
 03  6  8 17 44 30.0000000  0 10G29G21G18G17G 6G16G15G26G23G 2
  23054191.541    -2097167.30949  -1620004.82846  23054191.525    23054199.700
  20527200.323    -7048830.29749  -5477846.57347  20527199.935    20527205.809
  20934808.457   -17879162.80449 -13908384.64347  20934808.184    20934814.566
  20817840.405    -1946539.51949  -1226248.39147  20817840.019    20817847.941
  21068995.516     2767363.91649   2163246.17747  21068995.448    21069003.229
  23308874.924   -10124003.31049  -7868407.61845  23308874.682    23308882.534
  21954206.163   -15724280.37949 -12234937.04046  21954205.670    21954214.081
  21433262.069   -11416695.78649  -8876136.61847  21433262.231    21433270.096
  22568631.245   -16164356.15549 -12562904.45246  22568630.842    22568639.942
  25028279.212    -7372034.71549  -5239596.55445  25028278.643    25028289.265
 03  6  8 17 45  0.0000000  0 10G29G21G18G17G 6G16G15G26G23G 2
  23063046.554    -2050633.84549  -1583745.03146  23063046.555    23063054.677
  20525340.932    -7058601.42249  -5485460.44147  20525340.572    20525346.438
  20925622.266   -17927436.35949 -13946000.37147  20925622.013    20925628.427
  20820426.248    -1932950.92049  -1215659.89347  20820425.859    20820433.812
  21081154.435     2831259.18949   2213034.66147  21081154.360    21081162.156
  23311123.052   -10112189.72949  -7859202.25145  23311122.766    23311130.676
  21942017.593   -15788331.70749 -12284847.14646  21942017.088    21942025.472
  21434332.005   -11411073.25949  -8871755.42747  21434332.200    21434340.068
  22554726.288   -16237426.77949 -12619842.52246  22554725.908    22554735.001
  25023368.498    -7397841.08149  -5259705.40045  25023367.992    25023378.602
 03  6  8 17 45 30.0000000  0 10G29G21G18G17G 6G16G15G26G23G 2
  23071996.642    -2003600.00149  -1547095.31846  23071996.749    23072004.947
  20523526.193    -7068138.15749  -5492891.67347  20523525.829    20523531.696
  20916514.071   -17975300.24149 -13983296.87847  20916513.819    20916520.253
  20823052.564    -1919149.64449  -1204905.67047  20823052.181    20823060.132
  21093397.106     2895594.78849   2263166.24447  21093397.055    21093404.880
  23313470.161   -10099855.82849  -7849591.43345  23313469.931    23313477.811
  21929853.046   -15852257.01949 -12334659.05646  21929852.539    21929860.862
  21435529.490   -11404780.32249  -8866851.83747  21435529.702    21435537.575
  22540880.686   -16310185.69749 -12676537.71246  22540880.274    22540889.304
  25018538.749    -7423222.25849  -5279482.91745  25018538.246    25018548.637
 03  6  8 17 46  0.0000000  0 10G29G21G18G17G 6G16G15G26G23G 2
  23081041.992    -1956066.46949  -1510056.24846  23081042.087    23081050.371
  20521756.137    -7077440.03549  -5500139.90547  20521755.774    20521761.653
  20907484.079   -18022753.19349 -14020273.18747  20907483.830    20907490.239
  20825719.455    -1905135.27449  -1193985.40747  20825719.065    20825727.007
  21105723.510     2960370.09249   2313640.45047  21105723.462    21105731.286
  23315916.188   -10087002.03549  -7839575.51545  23315915.887    23315923.833
  21917712.727   -15916054.76149 -12384371.57346  21917712.254    21917720.480
  21436854.754   -11397816.11749  -8861425.19247  21436854.974    21436862.829
  22527094.754   -16382631.37149 -12732988.81846  22527094.376    22527103.360
  25013789.916    -7448177.34749  -5298928.42545  25013789.484    25013799.756
 03  6  8 17 46 30.0000000  0 10G29G21G18G17G 6G16G15G26G23G 2
  23090182.413    -1908033.99449  -1472628.38846  23090182.499    23090190.788
  20520031.092    -7086505.46349  -5507203.88747  20520030.728    20520036.575
  20898532.456   -18069794.34649 -14056928.60747  20898532.217    20898538.537
  20828427.263    -1890906.13349  -1182897.78247  20828426.860    20828434.758
  21118133.484     3025584.72949   2364457.00247  21118133.440    21118141.255
  23318461.093   -10073628.52149  -7829154.61345  23318460.815    23318468.714
  21905597.043   -15979723.67749 -12433983.70146  21905596.561    21905604.674
  21438307.969   -11390179.87749  -8855474.87847  21438308.158    21438315.999
  22513368.642   -16454762.46549 -12789194.80146  22513368.269    22513377.145
  25009122.470    -7472705.15849  -5318040.99145  25009121.876    25009132.336
 03  6  8 17 47  0.0000000  0 10G29G21G18G17G 6G16G15G26G23G 2
  23099417.067    -1859506.49649  -1434814.81146  23099417.076    23099425.322
  20518350.757    -7095335.94249  -5514084.78647  20518350.402    20518356.211
  20889658.817   -18116425.87849 -14093264.84247  20889658.580    20889664.814
  20831175.541    -1876464.13849  -1171644.29647  20831175.127    20831182.997
  21130626.411     3091235.02049   2415613.02747  21130626.342    21130634.160
  23321104.194   -10059739.19449  -7818331.78745  23321103.905    23321111.728
  21893505.481   -16043265.44049 -12483496.74946  21893505.002    21893513.100
  21439888.523   -11381874.04349  -8849002.79847  21439888.724    21439896.549
  22499702.129   -16526580.65349 -12845156.95246  22499701.721    22499710.569
  25004535.899    -7496807.76949  -5336822.23545  25004535.430    25004545.674
 03  6  8 17 47 30.0000000  0 10G29G21G18G17G 6G16G15G26G23G 2
  23108746.248    -1810481.98849  -1396613.94046  23108746.268    23108754.439
  20516715.785    -7103927.91649  -5520779.84347  20516715.423    20516721.204
  20880863.811   -18162643.92449 -14129278.88347  20880863.559    20880869.790
  20833965.082    -1861805.38949  -1160221.91647  20833964.666    20833972.467
  21143202.582     3157323.11449   2467110.19947  21143202.525    21143210.342
  23323845.959   -10045331.33049  -7807104.89645  23323845.737    23323853.536
  21881438.906   -16106676.08749 -12532907.63546  21881438.425    21881446.468
  21441597.195   -11372895.02049  -8842006.16247  21441597.391    21441605.203
  22486095.887   -16598081.67349 -12900871.96746  22486095.480    22486104.378
  25000030.944    -7520481.43349  -5355269.22645  25000030.430    25000040.759
 03  6  8 17 48  0.0000000  0 10G29G21G18G17G 6G16G15G26G23G 2
  23118168.771    -1760966.46349  -1358030.47146  23118168.765    23118176.956
  20515125.493    -7112285.08249  -5527291.92847  20515125.154    20515130.911
  20872146.681   -18208452.75949 -14164974.05147  20872146.444    20872152.664
  20836795.062    -1846934.14049  -1148633.94647  20836794.637    20836802.422
  21155860.998     3223843.11049   2518943.92347  21155860.942    21155868.745
  23326685.263   -10030410.87049  -7795478.58645  23326685.042    23326692.825
  21869396.476   -16169959.63149 -12582219.47047  21869395.992    21869404.024
  21443433.079   -11363247.45649  -8834488.57447  21443433.300    21443441.073
  22472549.253   -16669269.41449 -12956342.87246  22472548.838    22472557.757
  24995606.802    -7543730.46449  -5373385.34245  24995606.291    24995616.634
 03  6  8 17 48 30.0000000  0 10G29G21G18G17G 6G16G15G26G23G 2
  23127685.083    -1710957.82749  -1319062.74246  23127685.077    23127693.276
  20513580.616    -7120403.46849  -5533617.95347  20513580.274    20513586.040
  20863508.173   -18253848.48749 -14200347.32447  20863507.914    20863514.170
  20839666.205    -1831846.23649  -1136877.15847  20839665.789    20839673.545
  21168602.030     3290797.38649   2571116.03847  21168601.972    21168609.745
  23329622.629   -10014975.39049  -7783450.95746  23329622.399    23329630.098
  21857379.089   -16233111.60349 -12631428.78346  21857378.602    21857386.640
  21445396.915   -11352927.85249  -8826447.32747  21445397.101    21445404.826
  22459063.138   -16740139.31649 -13011566.10946  22459062.734    22459071.601
  24991264.411    -7566550.90549  -5391167.47245  24991263.798    24991273.940
 03  6  8 17 49  0.0000000  0 10G29G21G18G17G 6G16G15G26G23G 2
  23137294.849    -1660458.54549  -1279712.68946  23137294.774    23137303.013
  20512081.174    -7128283.36249  -5539758.13447  20512080.822    20512086.589
  20854948.120   -18298831.79549 -14235399.22947  20854947.870    20854954.102
  20842578.486    -1816542.21149  -1124951.96547  20842578.064    20842585.851
  21181425.282     3358183.79849   2623624.87947  21181425.214    21181432.984
  23332657.574    -9999026.84749  -7771023.54346  23332657.377    23332665.036
  21845386.599   -16296132.60649 -12680536.04747  21845386.104    21845394.152
  21447488.469   -11341936.96549  -8817882.99447  21447488.623    21447496.293
  22445637.409   -16810691.66649 -13066541.90146  22445637.059    22445645.844
  24987003.224    -7588943.40949  -5408616.16945  24987002.637    24987012.904
 03  6  8 17 49 30.0000000  0 10G29G21G18G17G 6G16G15G26G23G 2
  23146997.356    -1609471.76249  -1239982.75446  23146997.237    23147005.516
  20510626.864    -7135926.03549  -5545713.46947  20510626.489    20510632.264
  20846466.266   -18343404.23049 -14270130.97847  20846466.022    20846472.215
  20845531.748    -1801022.70449  -1112858.86447  20845531.339    20845539.123
  21194330.219     3425999.33949   2676468.11647  21194330.160    21194337.899
  23335789.575    -9982568.24849  -7758198.68245  23335789.349    23335797.020
  21833418.859   -16359023.50049 -12729541.91247  21833418.349    21833426.434
  21449707.300   -11330276.67549  -8808797.04647  21449707.477    21449715.113
  22432272.010   -16880927.32849 -13121270.91346  22432271.632    22432280.419
  24982823.381    -7610909.36249  -5425732.46645  24982822.822    24982832.780
 03  6  8 17 50  0.0000000  0 10G29G21G18G17G 6G16G15G26G23G 2
  23156792.838    -1557996.31249  -1199872.05046  23156792.706    23156800.980
  20509218.387    -7143327.61149  -5551480.94147  20509218.024    20509223.784
  20838063.152   -18387562.72949 -14304540.18147  20838062.909    20838069.109
  20848526.535    -1785284.96749  -1100595.71947  20848526.136    20848533.924
  21207317.053     3494245.38149   2729646.80347  21207316.990    21207324.701
  23339018.924    -9965598.37649  -7744975.43545  23339018.734    23339026.323
  21821476.429   -16421781.10949 -12778443.93347  21821475.936    21821484.032
  21452053.998   -11317944.51849  -8799187.57347  21452054.222    21452061.883
  22418967.417   -16950842.90349 -13175750.52246  22418967.042    22418975.807
  24978725.053    -7632445.77549  -5442514.08345  24978724.399    24978734.510
 03  6  8 17 50 30.0000000  0 10G29G21G18G17G 6G16G15G26G23G 2
  23166680.586    -1506035.82649  -1159383.39546  23166680.401    23166688.815
  20507855.486    -7150489.95049  -5557061.99247  20507855.097    20507860.855
  20829738.535   -18431308.84849 -14338628.04647  20829738.302    20829744.482
  20851562.550    -1769330.49449  -1088163.68947  20851562.154    20851569.987
  21220385.171     3562918.55949   2783158.32747  21220385.103    21220392.811
  23342345.025    -9948120.10549  -7731356.01745  23342344.751    23342352.321
  21809559.152   -16484406.68649 -12827243.06047  21809558.637    21809566.781
  21454528.222   -11304942.40949  -8789056.05747  21454528.449    21454536.070
  22405723.585   -17020439.59649 -13229981.62946  22405723.171    22405731.972
  24974708.120    -7653554.41649  -5458962.36145  24974707.550    24974717.702
 03  6  8 17 51  0.0000000  0 10G29G21G18G17G 6G16G15G26G23G 2
  23176660.125    -1453593.03449  -1118518.89546  23176660.022    23176668.340
  20506537.929    -7157413.84249  -5562457.24247  20506537.559    20506543.301
  20821492.138   -18474643.69249 -14372395.44247  20821491.891    20821498.065
  20854639.659    -1753160.22549  -1075563.50847  20854639.284    20854647.102
  21233534.003     3632016.13349   2837000.54447  21233533.950    21233541.657
  23345767.300    -9930136.02649  -7717342.47345  23345767.071    23345774.580
  21797666.904   -16546900.70149 -12875939.67047  21797666.419    21797674.566
  21457129.683   -11291271.89849  -8778403.70547  21457129.928    21457137.527
  22392540.307   -17089717.88249 -13283964.64546  22392539.947    22392548.661
  24970772.385    -7674236.32949  -5475078.12145  24970771.904    24970782.160
 03  6  8 17 51 30.0000000  0 10G29G21G18G17G 6G16G15G26G23G 2
  23186731.795    -1400666.74249  -1077277.65946  23186731.690    23186739.993
  20505266.599    -7164094.76949  -5567663.16447  20505266.210    20505271.938
  20813324.630   -18517564.33449 -14405840.07547  20813324.385    20813330.562
  20857758.593    -1736770.34149  -1062792.19547  20857758.204    20857766.051
  21246763.934     3701539.74449   2891174.73947  21246763.881    21246771.587
  23349286.007    -9911644.81449  -7702933.76545  23349285.786    23349293.334
  21785800.436   -16609259.48549 -12924530.90347  21785799.934    21785808.040
  21459858.810   -11276930.28549  -8767228.41947  21459859.029    21459866.664
  22379418.314   -17158674.21349 -13337696.78046  22379417.962    22379426.691
  24966918.559    -7694488.51549  -5490859.04545  24966918.122    24966928.332
 03  6  8 17 52  0.0000000  0 10G29G21G18G17G 6G16G15G26G23G 2
  23196895.061    -1347258.90049  -1035661.16846  23196894.924    23196903.248
  20504041.361    -7170533.41449  -5572680.29847  20504040.988    20504046.678
  20805235.860   -18560070.96849 -14438962.11247  20805235.605    20805241.778
  20860919.231    -1720160.92949  -1049849.81947  20860918.847    20860926.731
  21260074.579     3771487.38749   2945679.34147  21260074.537    21260082.240
  23352900.976    -9892648.20849  -7688131.23945  23352900.763    23352908.286
  21773959.656   -16671483.08749 -12973016.80947  21773959.142    21773967.210
  21462715.472   -11261918.32449  -8755530.77847  21462715.701    21462723.348
  22366357.671   -17227308.51449 -13391178.00146  22366357.343    22366365.945
  24963146.351    -7714311.37349  -5506305.43345  24963146.013    24963156.009
 03  6  8 17 52 30.0000000  0 10G29G21G18G17G 6G16G15G26G23G 2
  23207149.184    -1293373.43549   -993672.51946  23207149.045    23207157.376
  20502861.932    -7176731.43049  -5577509.92547  20502861.534    20502867.232
  20797225.485   -18602165.65849 -14471763.15247  20797225.250    20797231.389
  20864121.279    -1703334.09149  -1036738.02347  20864120.900    20864128.803
  21273465.203     3841855.49649   3000511.57947  21273465.166    21273472.912
  23356611.549    -9873149.64149  -7672937.57645  23356611.304    23356618.716
  21762144.310   -16733572.95049 -13021398.49447  21762143.791    21762151.848
  21465699.258   -11246238.63149  -8743312.83247  21465699.475    21465707.116
  22353357.962   -17295622.26749 -13444409.43546  22353357.632    22353366.251
  24959455.534    -7733706.96849  -5521418.85745  24959455.269    24959464.961
 03  6  8 17 53  0.0000000  0 10G29G21G18G17G 6G16G15G26G23G 2
  23217493.710    -1239012.70449   -951313.52046  23217493.593    23217501.890
  20501728.330    -7182688.67149  -5582151.93147  20501727.959    20501733.607
  20789293.480   -18643848.65649 -14504243.39547  20789293.242    20789299.385
  20867364.708    -1686290.01449  -1023456.94147  20867364.314    20867372.213
  21286935.506     3912642.09449   3055669.92347  21286935.461    21286943.216
  23360417.199    -9853151.20249  -7657354.39145  23360416.950    23360424.341
  21750354.461   -16795528.91549 -13069675.83647  21750353.903    21750361.954
  21468809.920   -11229891.96849  -8730575.16547  21468810.152    21468817.778
  22340419.292   -17363615.46249 -13497391.08446  22340418.900    22340427.502
  24955846.012    -7752675.75649  -5536199.71545  24955845.627    24955855.370
 03  6  8 17 53 30.0000000  0 10G29G21G18G17G 6G16G15G26G23G 2
  23227929.162    -1184173.88649   -908582.00746  23227929.119    23227937.425
  20500641.500    -7188399.91949  -5586602.26247  20500641.131    20500646.769
  20781440.587   -18685115.72449 -14536399.54447  20781440.348    20781446.500
  20870650.491    -1669023.46149  -1010002.51047  20870650.119    20870657.974
  21300485.984     3983850.31649   3111156.78947  21300485.940    21300493.759
  23364318.439    -9832649.97049  -7641379.43245  23364318.199    23364325.589
  21738591.041   -16857346.00949 -13117844.98247  21738590.507    21738598.501
  21472048.315   -11212874.43449  -8717314.75147  21472048.510    21472056.096
  22327542.487   -17431283.01249 -13550118.99146  22327542.094    22327550.784
  24952318.477    -7771213.29149  -5550644.53545  24952318.089    24952327.877
 03  6  8 17 54  0.0000000  0 10G29G21G18G17G 6G16G15G26G23G 2
  23238454.474    -1128863.01649   -865482.66746  23238454.393    23238462.745
  20499600.799    -7193868.87649  -5590863.78647  20499600.442    20499606.076
  20773666.225   -18725970.43949 -14568234.37447  20773665.970    20773672.106
  20873977.913    -1651537.95549   -996377.45247  20873977.536    20873985.398
  21314115.646     4055474.47649   3166967.78247  21314115.615    21314123.437
  23368314.224    -9811651.38049  -7625016.91545  23368314.013    23368321.523
  21726853.320   -16919027.68249 -13165908.58547  21726852.823    21726860.855
  21475413.457   -11195190.48949  -8703535.06047  21475413.660    21475421.203
  22314726.991   -17498628.42049 -13602595.87746  22314726.616    22314735.275
  24948872.170    -7789323.52249  -5564756.39745  24948871.815    24948881.600
 03  6  8 17 54 30.0000000  0 10G29G21G18G17G 6G16G15G26G23G 2
  23249069.512    -1073080.26649   -822015.60346  23249069.474    23249077.863
  20498606.541    -7199093.80149  -5594935.16247  20498606.160    20498611.799
  20765970.440   -18766411.80749 -14599747.11847  20765970.198    20765976.357
  20877347.213    -1633832.45249   -982580.97647  20877346.804    20877354.685
  21327824.369     4127514.14249   3223102.52747  21327824.344    21327832.193
  23372404.606    -9790155.87749  -7608267.20145  23372404.391    23372412.057
  21715141.754   -16980572.35049 -13213865.44247  21715141.261    21715149.238
  21478905.574   -11176839.45349  -8689235.54847  21478905.743    21478913.287
  22301973.070   -17565650.15749 -13654820.54246  22301972.686    22301981.344
  24945507.439    -7807005.21549  -5578534.33345  24945506.995    24945517.002
 03  6  8 17 55  0.0000000  0 10G29G21G18G17G 6G16G15G26G23G 2
  23259773.968    -1016827.65049   -778182.42446  23259773.994    23259782.485
  20497658.762    -7204074.38049  -5598816.13547  20497658.406    20497664.021
  20758353.312   -18806440.02649 -14630937.93147  20758353.081    20758359.234
  20880758.435    -1615906.30149   -968612.56847  20880758.052    20880765.949
  21341611.885     4199967.73649   3279559.82147  21341611.869    21341619.747
  23376589.244    -9768165.07649  -7591131.54345  23376589.035    23376596.855
  21703456.347   -17041979.37849 -13261715.03847  21703455.850    21703463.864
  21482524.417   -11157822.03349  -8674416.78547  21482524.598    21482532.157
  22289280.858   -17632347.85449 -13706792.71746  22289280.463    22289289.089
  24942224.195    -7824258.63049  -5591978.55045  24942223.728    24942233.626
 03  6  8 17 55 30.0000000  0 10G29G21G18G17G 6G16G15G26G23G 2
  23270568.074     -960104.05449   -733982.24346  23270568.111    23270576.623
  20496758.225    -7208806.65649  -5602503.62347  20496757.870    20496763.493
  20750815.468   -18846051.62049 -14661804.10747  20750815.240    20750821.380
  20884212.377    -1597755.88249   -954469.39747  20884211.981    20884219.876
  21355478.449     4272836.73749   3336340.81047  21355478.400    21355486.294
  23380868.533    -9745677.22049  -7573608.55445  23380868.322    23380876.186
  21691797.852   -17103244.99249 -13309454.45047  21691797.371    21691805.379
  21486270.638   -11138135.38349  -8659076.53847  21486270.854    21486278.404
  22276651.100   -17698717.59949 -13758509.34446  22276650.725    22276659.287
  24939023.114    -7841080.51049  -5605086.51445  24939022.664    24939032.477
 03  6  8 17 56  0.0000000  0 10G29G21G18G17G 6G16G15G26G23G 2
  23281450.382     -902916.96949   -689420.89746  23281450.527    23281458.993
  20495903.839    -7213296.49249  -5606002.19947  20495903.461    20495909.129
  20743355.729   -18885252.73149 -14692350.42247  20743355.504    20743361.677
  20887707.928    -1579386.62449   -940155.70847  20887707.521    20887715.418
  21369422.637     4346113.70749   3393439.69847  21369422.597    21369430.544
  23385240.985    -9722700.12849  -7555704.36145  23385240.725    23385248.592
  21680165.303   -17164374.36349 -13357087.69047  21680164.834    21680172.859
  21490142.890   -11117786.19249  -8643220.02247  21490143.114    21490150.692
  22264082.749   -17764764.85949 -13809974.67846  22264082.376    22264090.806
  24935902.946    -7857476.91349  -5617862.93545  24935902.564    24935912.357
 03  6  8 17 56 30.0000000  0 10G29G21G18G17G 6G16G15G26G23G 2
  23292421.283     -845265.17249   -644497.43546  23292421.342    23292429.728
  20495096.416    -7217539.54549  -5609308.47647  20495096.050    20495101.707
  20735974.763   -18924040.16749 -14722574.39647  20735974.524    20735980.677
  20891245.869    -1560794.71849   -925668.52547  20891245.492    20891253.369
  21383444.721     4419800.11649   3450857.62347  21383444.679    21383452.621
  23389706.960    -9699232.04749  -7537417.56045  23389706.683    23389714.309
  21668559.413   -17225363.72149 -13404611.83247  21668558.949    21668567.006
  21494141.751   -11096771.95149  -8626845.29247  21494141.965    21494149.508
  22251576.422   -17830486.07349 -13861185.95546  22251575.985    22251584.417
  24932864.366    -7873444.71049  -5630305.37945  24932863.978    24932873.853
 03  6  8 17 57  0.0000000  0 10G29G21G18G17G 6G16G15G26G23G 2
  23303480.849     -787147.52249   -599210.97046  23303480.836    23303489.181
  20494336.548    -7221532.54649  -5612419.91047  20494336.166    20494341.848
  20728673.008   -18962411.04449 -14752473.77947  20728672.778    20728678.903
  20894826.714    -1541977.23649   -911005.57047  20894826.303    20894834.206
  21397545.012     4493897.21949   3508595.57047  21397544.978    21397552.891
  23394266.623    -9675271.64749  -7518747.13145  23394266.326    23394273.795
  21656980.834   -17286209.41749 -13452024.02547  21656980.335    21656988.424
  21498267.622   -11075090.38549  -8609950.57247  21498267.819    21498275.384
  22239132.709   -17895877.86649 -13912140.54646  22239132.289    22239140.717
  24929907.904    -7888981.27249  -5642411.79145  24929907.504    24929917.391
 03  6  8 17 57 30.0000000  0 10G29G21G18G17G 6G16G15G26G23G 2
  23314627.311     -728572.84349   -553568.37146  23314627.229    23314635.610
  20493623.091    -7225281.78249  -5615341.39347  20493622.700    20493628.383
  20721449.299   -19000372.09349 -14782053.81847  20721449.049    20721455.180
  20898449.274    -1522940.67949   -896171.90447  20898448.865    20898456.768
  21411721.802     4568396.70949   3566647.06347  21411721.754    21411729.693
  23398918.205    -9650827.46849  -7499699.74545  23398917.896    23398925.442
  21645428.407   -17346917.57349 -13499329.04547  21645427.912    21645436.016
  21502519.135   -11052748.96949  -8592541.67547  21502519.276    21502526.855
  22226750.438   -17960946.55549 -13962843.36746  22226750.021    22226758.504
  24927032.193    -7904093.54149  -5654187.58145  24927031.805    24927041.503
 03  6  8 17 58  0.0000000  0 10G29G21G18G17G 6G16G15G26G23G 2
  23325861.348     -669538.02149   -507567.21646  23325861.242    23325869.517
  20492957.036    -7228781.97249  -5618068.81647  20492956.661    20492962.345
  20714304.402   -19037918.48349 -14811310.73247  20714304.166    20714310.319
  20902114.549    -1503679.32049   -881163.06547  20902114.148    20902122.086
  21425975.819     4643301.95149   3625014.73047  21425975.795    21425983.691
  23403662.519    -9625896.22849  -7480272.82645  23403662.222    23403669.694
  21633903.210   -17407482.47549 -13546522.43747  21633902.731    21633910.872
  21506896.950   -11029743.34849  -8574615.22047  21506897.095    21506904.699
  22214430.753   -18025686.57949 -14013290.08446  22214430.350    22214438.857
  24924238.187    -7918776.33449  -5665628.70845  24924237.779    24924247.485
 03  6  8 17 58 30.0000000  0 10G29G21G18G17G 6G16G15G26G23G 2
  23337181.956     -610047.60749   -461211.06246  23337181.815    23337190.084
  20492338.039    -7232034.87849  -5620603.54347  20492337.670    20492343.373
  20707237.925   -19075053.12749 -14840246.79947  20707237.678    20707243.818
  20905822.159    -1484195.45649   -865980.84347  20905821.771    20905829.732
  21440306.230     4718608.39049   3683695.01947  21440306.175    21440314.104
  23408498.586    -9600482.25149  -7460469.74345  23408498.304    23408505.829
  21622404.877   -17467906.48149 -13593606.03747  21622404.381    21622412.535
  21511400.445   -11006077.00849  -8556173.91847  21511400.627    21511408.256
  22202173.224   -18090100.26649 -14063482.51946  22202172.846    22202181.309
  24921525.231    -7933032.67949  -5676737.56045  24921524.807    24921534.634
 03  6  8 17 59  0.0000000  0 10G29G21G18G17G 6G16G15G26G23G 2
  23348589.165     -550102.03449   -414500.22445  23348589.018    23348597.364
  20491766.468    -7235038.62849  -5622944.12647  20491766.085    20491771.786
  20700250.008   -19111774.69549 -14868861.00247  20700249.775    20700255.937
  20909572.516    -1464487.27149   -850623.82947  20909572.134    20909580.114
  21454712.916     4794315.73749   3742687.69947  21454712.871    21454720.792
  23413426.399    -9574586.00249  -7440290.88045  23413426.123    23413433.803
  21610933.766   -17528187.32349 -13640578.08947  21610933.273    21610941.454
  21516029.870   -10981749.42149  -8537217.36447  21516030.012    21516037.597
  22189978.146   -18154185.78749 -14113419.24146  22189977.758    22189986.207
  24918893.738    -7946861.29949  -5687513.11945  24918893.269    24918903.193
 03  6  8 17 59 30.0000000  0 10G29G21G18G17G 6G16G15G26G23G 2
  23360082.757     -489702.61049   -367435.74945  23360082.622    23360090.997
  20491242.533    -7237791.96249  -5625089.58247  20491242.158    20491247.868
  20693340.923   -19148082.18349 -14897152.55347  20693340.698    20693346.822
  20913365.826    -1444553.49349   -835091.02847  20913365.438    20913373.387
  21469195.675     4870423.20249   3801992.15847  21469195.645    21469203.573
  23418445.884    -9548208.46249  -7419736.98145  23418445.608    23418453.397
  21599490.181   -17588323.73849 -13687437.59947  21599489.694    21599497.819
  21520785.045   -10956760.61149  -8517745.58147  21520785.250    21520792.789
  22177845.700   -18217941.95749 -14163099.32846  22177845.277    22177853.762
  24916343.677    -7960261.60649  -5697954.94845  24916343.294    24916353.232
 03  6  8 18  0  0.0000000  0 10G29G21G18G17G 6G16G15G26G23G 2
  23371662.416     -428851.19049   -320019.06545  23371662.275    23371670.637
  20490766.354    -7240294.21649  -5627039.38247  20490766.008    20490771.727
  20686510.594   -19183975.79349 -14925121.59247  20686510.367    20686516.504
  20917202.149    -1424393.80449   -819382.18447  20917201.742    20917209.674
  21483754.280     4946929.11449   3861607.09447  21483754.286    21483762.217
  23423556.604    -9521351.26549  -7398809.31645  23423556.359    23423564.244
  21588074.173   -17648315.08249 -13734184.06647  21588073.688    21588081.777
  21525665.915   -10931111.31049  -8497759.12147  21525666.111    21525673.671
  22165776.043   -18281368.32949 -14212522.42846  22165775.623    22165784.096
  24913875.304    -7973233.81449  -5708063.17645  24913874.814    24913884.819
 03  6  8 18  0 30.0000000  0 10G29G21G18G17G 6G16G15G26G23G 2
  23383327.534     -367550.89149   -272252.60245  23383327.280    23383335.696
  20490337.874    -7242546.01549  -5628794.02347  20490337.495    20490343.233
  20679758.777   -19219456.87849 -14952769.18548  20679758.541    20679764.687
  20921081.325    -1404008.58149   -803497.59947  20921080.957    20921088.862
  21498388.234     5023830.51649   3921530.21147  21498388.185    21498396.112
  23428758.194    -9494017.42549  -7377510.22845  23428757.938    23428765.706
  21576685.743   -17708161.50749 -13780817.61247  21576685.272    21576693.360
  21530672.123   -10904803.52549  -8477259.54747  21530672.326    21530679.959
  22153768.928   -18344465.81649 -14261689.25146  22153768.545    22153776.992
  24911487.899    -7985779.46849  -5717839.02945  24911487.466    24911497.406
 03  6  8 18  1  0.0000000  0 10G29G21G18G17G 6G16G15G26G23G 2
  23395077.666     -305803.45549   -224137.74045  23395077.455    23395085.859
  20489957.092    -7244546.81249  -5630353.08047  20489956.728    20489962.456
  20673085.479   -19254525.21949 -14980095.16148  20673085.251    20673091.380
  20925003.533    -1383397.57449   -787437.07747  20925003.112    20925011.015
  21513097.040     5101125.86149   3981760.28747  21513097.003    21513104.967
  23434050.236    -9466208.49349  -7355840.96745  23434049.835    23434057.541
  21565324.971   -17767862.29349 -13827337.67547  21565324.547    21565332.641
  21535803.429   -10877838.09649  -8456247.52747  21535803.663    21535811.332
  22141824.553   -18407233.94749 -14310599.43346  22141824.144    22141832.555
  24909181.621    -7997898.65649  -5727282.56945  24909181.213    24909191.290
 03  6  8 18  1 30.0000000  0 10G29G21G18G17G 6G16G15G26G23G 2
  23406912.577     -243610.22649   -175675.49445  23406912.502    23406920.832
  20489624.384    -7246294.97949  -5631715.28347  20489624.048    20489629.768
  20666490.830   -19289180.38149 -15007099.18248  20666490.606    20666496.722
  20928968.843    -1362559.64349   -771199.73047  20928968.467    20928976.370
  21527880.665     5178814.24949   4042296.63347  21527880.628    21527888.621
  23439432.260    -9437925.35649  -7333802.17945  23439431.959    23439439.754
  21553992.252   -17827416.06549 -13873743.17847  21553991.822    21553999.902
  21541059.864   -10850215.06549  -8434723.08047  21541060.105    21541067.836
  22129943.024   -18469671.46749 -14359251.98746  22129942.640    22129950.992
  24906956.570    -8009590.84849  -5736393.39145  24906955.973    24906966.269
 03  6  8 18  2  0.0000000  0 10G29G21G18G17G 6G16G15G26G23G 2
  23418831.863     -180973.73049   -126867.85045  23418831.850    23418840.215
  20489339.808    -7247790.53249  -5632880.64247  20489339.435    20489345.157
  20659974.647   -19323423.10249 -15033781.81648  20659974.417    20659980.538
  20932977.292    -1341495.06849   -754785.77847  20932976.882    20932984.807
  21542738.630     5256893.34649   4103137.43347  21542738.622    21542746.624
  23444904.021    -9409170.73149  -7311396.00045  23444903.771    23444911.524
  21542687.565   -17886822.67349 -13920034.00947  21542687.118    21542695.221
  21546441.249   -10821936.14649  -8412687.55647  21546441.449    21546449.103
  22118124.393   -18531778.74649 -14407647.21246  22118124.001    22118132.318
  24904812.726    -8020857.03349  -5745172.23545  24904812.217    24904822.364
 03  6  8 18  2 30.0000000  0 10G29G21G18G17G 6G16G15G26G23G 2
  23430835.407     -117894.56049    -77715.28345  23430835.421    23430843.701
  20489103.616    -7249031.66449  -5633847.75447  20489103.259    20489108.985
  20653537.183   -19357252.16049 -15060142.11848  20653536.954    20653543.067
  20937029.344    -1320201.47649   -738193.37147  20937028.966    20937036.869
  21557670.905     5335362.81949   4164282.42347  21557670.885    21557678.933
  23450465.421    -9379944.82949  -7288622.60045  23450465.181    23450473.131
  21531411.294   -17946079.92649 -13966208.46647  21531410.825    21531418.931
  21551947.526   -10793000.82649  -8390140.55047  21551947.667    21551955.259
  22106368.943   -18593553.86449 -14455783.62646  22106368.539    22106376.811
  24902750.232    -8031695.76449  -5753618.03245  24902749.795    24902759.911
 03  6  8 18  3  0.0000000  0 10G29G21G18G17G 6G16G15G26G23G 2
  23442922.515      -54376.85749    -28220.99445  23442922.462    23442930.727
  20488915.586    -7250019.77949  -5634617.70047  20488915.219    20488920.918
  20647178.066   -19390669.68649 -15086181.73548  20647177.836    20647183.934
  20941124.588    -1298680.92249   -721424.11047  20941124.181    20941132.071
  21572676.766     5414218.77549   4225728.56547  21572676.747    21572684.789
  23456115.962    -9350251.55449  -7265485.01045  23456115.689    23456123.651
  21520163.162   -18005189.14049 -14012267.56147  21520162.701    21520170.789
  21557578.046   -10763412.16649  -8367084.44746  21557578.179    21557585.735
  22094676.349   -18654998.71349 -14503662.68546  22094675.924    22094684.170
  24900768.676    -8042109.50649  -5761732.66845  24900768.207    24900778.161
 03  6  8 18  3 30.0000000  0 10G29G21G18G17G 6G16G15G26G23G 2
  23455092.931        9578.68049     21614.45346  23455092.867    23455101.083
  20488776.094    -7250752.88149  -5635188.94947  20488775.706    20488781.406
  20640897.390   -19423674.72149 -15111899.93048  20640897.174    20640903.294
  20945263.345    -1276931.58149   -704476.57747  20945262.966    20945270.874
  21587756.043     5493460.60249   4287475.38247  21587756.017    21587764.076
  23461855.361    -9320091.86349  -7241983.98045  23461855.025    23461862.915
  21508943.583   -18064148.41249 -14058209.82347  21508943.128    21508951.168
  21563332.920   -10733170.11149  -8343519.20647  21563333.065    21563340.583
  22083046.844   -18716111.72649 -14551283.16646  22083046.436    22083054.734
  24898868.079    -8052097.39449  -5769515.47345  24898867.592    24898877.616
 03  6  8 18  4  0.0000000  0 10G29G21G18G17G 6G16G15G26G23G 2
  23467346.220       73969.22549     71788.88446  23467346.094    23467354.232
  20488685.008    -7251231.31449  -5635561.74747  20488684.649    20488690.346
  20634695.052   -19456268.13849 -15137297.38048  20634694.818    20634700.952
  20949445.680    -1254953.40149   -687350.73147  20949445.261    20949453.204
  21602908.307     5573085.84049   4349520.96447  21602908.267    21602916.326
  23467682.942    -9289468.15049  -7218121.38145  23467682.601    23467690.410
  21497752.534   -18122957.84549 -14104035.32547  21497752.066    21497760.097
  21569211.789   -10702276.37449  -8319446.16447  21569211.945    21569219.519
  22071480.498   -18776893.33249 -14598645.41046  22071480.073    22071488.352
  24897048.388    -8061660.55749  -5776967.33345  24897047.922    24897057.856
 03  6  8 18  4 30.0000000  0 10G29G21G18G17G 6G16G15G26G23G 2
  23479681.790      138792.54649    122300.52746  23479681.614    23479689.738
  20488642.497    -7251454.73349  -5635735.83247  20488642.118    20488647.817
  20628571.009   -19488450.29449 -15162374.36548  20628570.768    20628576.908
  20953671.524    -1232746.33949   -670046.53847  20953671.125    20953679.046
  21618133.123     5653092.45749   4411863.71547  21618133.088    21618141.175
  23473598.347    -9258382.61649  -7193898.91045  23473598.016    23473605.836
  21486590.057   -18181616.92449 -14149743.66547  21486589.574    21486597.594
  21575214.446   -10670732.14849  -8294866.23947  21575214.590    21575222.227
  22059977.197   -18837343.27549 -14645749.20746  22059976.786    22059985.067
  24895309.311    -8070799.52549  -5784088.63545  24895308.777    24895318.815
 03  6  8 18  5  0.0000000  0 10G29G21G18G17G 6G16G15G26G23G 2
  23492099.429      204047.37849    173148.41846  23492099.198    23492107.383
  20488648.792    -7251421.67049  -5635710.07247  20488648.434    20488654.121
  20622525.257   -19520220.79349 -15187130.59148  20622525.013    20622531.163
  20957941.228    -1210308.89549   -652562.83047  20957940.809    20957948.742
  21633430.304     5733479.39749   4474502.82247  21633430.248    21633438.348
  23479601.475    -9226836.26149  -7169317.35445  23479601.111    23479608.946
  21475456.557   -18240123.74149 -14195333.37247  21475456.051    21475464.090
  21581340.831   -10638537.79249  -8269779.73147  21581340.989    21581348.632
  22048537.292   -18897460.49249 -14692593.75546  22048536.846    22048545.098
  24893651.059    -8079513.82749  -5790879.03645  24893650.474    24893660.606
 03  6  8 18  5 30.0000000  0 10G29G21G18G17G 6G16G15G26G23G 2
  23504598.684      269731.67749    224330.94445  23504598.455    23504606.730
  20488703.957    -7251131.74549  -5635484.15647  20488703.606    20488709.293
  20616557.830   -19551579.85949 -15211566.20848  20616557.584    20616563.713
  20962254.761    -1187641.05049   -634899.58747  20962254.373    20962262.310
  21648799.438     5814244.68049   4537436.74547  21648799.408    21648807.564
  23485691.712    -9194831.29049  -7144378.45545  23485691.394    23485699.296
  21464352.077   -18298477.84449 -14240804.06847  21464351.589    21464359.643
  21587590.705   -10605694.67349  -8244187.69547  21587590.822    21587598.497
  22037160.650   -18957244.83349 -14739178.91046  22037160.202    22037168.506
  24892073.652    -8087803.91649  -5797338.89145  24892073.067    24892083.074
 03  6  8 18  6  0.0000000  0 10G29G21G18G17G 6G16G15G26G23G 2
  23517179.315      335843.52249    275846.65045  23517179.095    23517187.346
  20488808.301    -7250583.65249  -5635057.07247  20488807.933    20488813.603
  20610668.688   -19582527.41749 -15235681.17248  20610668.441    20610674.573
  20966612.314    -1164741.97249   -617056.15747  20966611.907    20966619.859
  21664240.365     5895386.88849   4600664.37747  21664240.298    21664248.490
  23491868.985    -9162369.16749  -7119083.34645  23491868.688    23491876.604
  21453276.956   -18356678.03449 -14286154.83947  21453276.476    21453284.503
  21593963.869   -10572203.55549  -8218090.71847  21593963.970    21593971.673
  22025847.483   -19016695.68449 -14785504.20947  22025847.043    22025855.362
  24890576.860    -8095669.98549  -5803468.33045  24890576.342    24890586.135
 03  6  8 18  6 30.0000000  0 10G29G21G18G17G 6G16G15G26G23G 2
  23529840.544      402379.43449    327692.77545  23529840.411    23529848.727
  20488961.513    -7249778.49649  -5634429.68047  20488961.127    20488966.827
  20604857.526   -19613065.09249 -15259476.75048  20604857.284    20604863.444
  20971013.695    -1141612.54749   -599033.24247  20971013.310    20971021.263
  21679752.399     5976902.64849   4664183.09047  21679752.310    21679760.490
  23498132.608    -9129453.45249  -7093434.76645  23498132.332    23498140.288
  21442230.965   -18414725.05049 -14331386.25347  21442230.483    21442238.446
  21600459.764   -10538067.14949  -8191490.92047  21600459.903    21600467.599
  22014597.526   -19075814.39049 -14831570.68847  22014597.132    22014605.502
  24889160.342    -8103113.91949  -5809268.85545  24889159.843    24889169.653
 03  6  8 18  7  0.0000000  0 10G29G21G18G17G 6G16G15G26G23G 2
  23542582.391      469338.68049    379868.78245  23542582.309    23542590.736
  20489164.006    -7248714.25549  -5633600.40547  20489163.657    20489169.350
  20599124.585   -19643191.85649 -15282952.13948  20599124.353    20599130.497
  20975459.289    -1118250.87649   -580829.35747  20975458.882    20975466.844
  21695335.383     6058791.44649   4727992.47647  21695335.302    21695343.502
  23504482.466    -9096084.73149  -7067433.20845  23504482.176    23504490.183
  21431214.542   -18472616.78849 -14376496.67047  21431214.039    21431221.997
  21607078.518   -10503285.18249  -8164388.09247  21607078.721    21607086.403
  22003411.036   -19134599.33949 -14877377.09447  22003410.616    22003418.988
  24887824.186    -8110134.82649  -5814739.72045  24887823.638    24887833.672
 03  6  8 18  7 30.0000000  0 10G29G21G18G17G 6G16G15G26G23G 2
  23555404.366      536719.06249    432372.94745  23555404.343    23555412.785
  20489415.922    -7247390.46349  -5632568.87947  20489415.543    20489421.232
  20593469.755   -19672908.12549 -15306107.66148  20593469.518    20593475.657
  20979949.159    -1094656.53249   -562444.17247  20979948.754    20979956.713
  21710988.948     6141051.22449   4792090.93647  21710988.885    21710997.082
  23510918.152    -9062265.39149  -7041080.52445  23510917.831    23510925.858
  21420227.785   -18530352.64549 -14421485.62347  21420227.275    21420235.177
  21613819.843   -10467859.33349  -8136783.54247  21613820.064    21613827.721
  21992288.138   -19193050.28049 -14922923.23247  21992287.706    21992296.153
  24886568.564    -8116733.37549  -5819881.48145  24886567.917    24886577.976
 03  6  8 18  8  0.0000000  0 11G 3G29G21G18G17G 6G16G15G26G23G 2
  24605545.246    -5416151.08349  -3836063.58045  24605545.295    24605554.548
  23568305.274      604514.58249    485200.59545  23568305.402    23568313.919
  20489716.609    -7245810.31549  -5631337.59647  20489716.255    20489721.937
  20587892.312   -19702217.92549 -15328946.45748  20587892.069    20587898.178
  20984482.617    -1070833.03449   -543880.42147  20984482.215    20984490.196
  21726712.034     6223676.33849   4856474.07047  21726711.970    21726720.168
  23517438.464    -9028000.88849  -7014380.97045  23517438.156    23517446.284
  21409270.116   -18587935.45249 -14466355.31747  21409269.621    21409277.482
  21620682.847   -10431794.41949  -8108681.01947  21620683.013    21620690.619
  21981228.190   -19251170.61149 -14968211.75947  21981227.793    21981236.152
  24885392.603    -8122913.66949  -5824697.33745  24885392.042    24885401.937
 03  6  8 18  8 30.0000000  0 11G 3G29G21G18G17G 6G16G15G26G23G 2
  24586639.360    -5515501.40449  -3913479.41045  24586639.434    24586648.538
  23581285.778      672727.26249    538353.29845  23581285.915    23581294.328
  20490067.082    -7243968.84049  -5629902.68447  20490066.702    20490072.344
  20582392.978   -19731117.22549 -15351465.38148  20582392.726    20582398.814
  20989060.624    -1046775.42149   -525134.24847  20989060.236    20989068.201
  21742505.092     6306669.09249   4921143.68547  21742505.027    21742513.253
  23524043.890    -8993289.28949  -6987333.01645  23524043.604    23524051.665
  21398342.555   -18645360.25449 -14511101.89047  21398342.066    21398349.882
  21627667.913   -10395087.57949  -8080078.29547  21627668.057    21627675.717
  21970231.938   -19308956.24249 -15013239.48947  21970231.515    21970239.834
  24884296.976    -8128672.10749  -5829184.46645  24884296.319    24884306.153
 03  6  8 18  9  0.0000000  0 11G 3G29G21G18G17G 6G16G15G26G23G 2
  24567765.666    -5614683.47749  -3990764.15645  24567765.819    24567774.586
  23594345.546      741355.91849    591830.14845  23594345.654    23594353.898
  20490467.488    -7241864.69449  -5628263.09447  20490467.105    20490472.758
  20576971.796   -19759605.68049 -15373664.16848  20576971.559    20576977.643
  20993683.457    -1022482.41549   -506204.65247  20993683.046    20993691.006
  21758367.910     6390028.46649   4986098.96447  21758367.845    21758376.081
  23530734.176    -8958131.73249  -6959937.57345  23530733.952    23530741.952
  21387445.403   -18702625.20849 -14555723.90547  21387444.910    21387452.697
  21634775.023   -10357739.44649  -8050975.86046  21634775.167    21634782.855
  21959299.562   -19366406.08949 -15058005.56547  21959299.153    21959307.437
  24883281.544    -8134008.42449  -5833342.66645  24883281.003    24883290.805
 03  6  8 18  9 30.0000000  0 11G 3G29G21G18G17G 6G16G15G26G23G 2
  24548924.452    -5713695.71949  -4067916.52245  24548924.513    24548933.322
  23607483.905      810397.79949    645628.99045  23607484.028    23607492.294
  20490917.971    -7239497.57749  -5626418.58847  20490917.583    20490923.233
  20571628.647   -19787684.15449 -15395543.48748  20571628.398    20571634.493
  20998350.937     -997954.54049   -487092.03747  20998350.554    20998358.537
  21774300.040     6473751.94049   5051337.97247  21774299.996    21774308.211
  23537508.767    -8922530.95849  -6932196.76845  23537508.482    23537516.493
  21376578.629   -18759730.40149 -14600221.42347  21376578.123    21376585.939
  21642003.841   -10319751.81149  -8021375.10946  21642003.992    21642011.619
  21948430.978   -19423520.55449 -15102510.29747  21948430.608    21948438.823
  24882346.089    -8138923.75749  -5837172.83345  24882345.541    24882355.652
 03  6  8 18 10  0.0000000  0 11G 3G29G21G18G17G 6G16G15G26G23G 2
  24530116.072    -5812535.31949  -4144934.36845  24530116.043    24530124.994
  23620700.572      879850.92149    699748.28445  23620700.530    23620708.842
  20491418.589    -7236866.79349  -5624368.63047  20491418.216    20491423.874
  20566363.460   -19815352.70849 -15417103.38748  20566363.213    20566369.338
  21003063.441     -973190.64249   -467795.51347  21003063.022    21003071.001
  21790301.061     6557837.78649   5116859.33847  21790300.989    21790309.255
  23544367.441    -8886488.81249  -6904112.03945  23544367.093    23544375.123
  21365742.412   -18816674.71749 -14644593.59147  21365741.925    21365749.769
  21649354.051   -10281125.98149  -7991277.06346  21649354.234    21649361.867
  21937626.373   -19480299.13849 -15146753.30547  21937625.988    21937634.142
  24881490.765    -8143418.44449  -5840675.22945  24881490.162    24881500.224
 03  6  8 18 10 30.0000000  0 11G 3G29G21G18G17G 6G16G15G26G23G 2
  24511340.574    -5911201.97349  -4221817.46045  24511340.502    24511349.368
  23633994.666      949710.97549    754184.66245  23633994.506    23634002.835
  20491968.976    -7233974.29349  -5622114.74447  20491968.605    20491974.272
  20561175.786   -19842614.02649 -15438345.96148  20561175.524    20561181.669
  21007820.444     -948192.27149   -448316.28447  21007820.059    21007828.065
  21806370.289     6642281.94549   5182659.90047  21806370.274    21806378.544
  23551309.126    -8850009.40149  -6875686.57545  23551308.818    23551317.050
  21354936.632   -18873459.37949 -14688841.35647  21354936.145    21354943.997
  21656825.011   -10241865.53449  -7960684.53046  21656825.242    21656832.901
  21926885.261   -19536743.82249 -15190736.13847  21926884.854    21926892.997
  24880714.994    -8147495.05749  -5843851.85245  24880714.420    24880724.435
 03  6  8 18 11  0.0000000  0 11G 3G29G21G18G17G 6G16G15G26G23G 2
  24492598.230    -6009693.35849  -4298563.96745  24492598.127    24492606.898
  23647365.682     1019975.26149    808936.02445  23647365.469    23647373.673
  20492569.306    -7230819.46149  -5619656.43847  20492568.940    20492574.629
  20556065.495   -19869468.71049 -15459271.67948  20556065.232    20556071.376
  21012622.140     -922959.42649   -428654.34747  21012621.744    21012629.720
  21822507.249     6727082.26449   5248737.99447  21822507.252    21822515.543
  23558333.558    -8813095.25049  -6846922.38445  23558333.305    23558341.659
  21344161.380   -18930083.79049 -14732964.25547  21344160.895    21344168.703
  21664416.445   -10201972.15949  -7929598.79246  21664416.706    21664424.343
  21916207.666   -19592854.76249 -15234458.91647  21916207.236    21916215.439
  24880018.641    -8151154.44449  -5846703.38845  24880018.082    24880028.116
 03  6  8 18 11 30.0000000  0 11G 3G29G21G18G17G 6G16G15G26G23G 2
  24473890.083    -6108004.83349  -4375170.29145  24473890.049    24473898.905
  23660813.563     1090644.09849    864002.61345  23660813.390    23660821.555
  20493220.167    -7227399.18749  -5616991.29947  20493219.809    20493225.493
  20551032.968   -19895914.72649 -15479878.95848  20551032.716    20551038.838
  21017468.939     -897489.47549   -408807.65047  21017468.549    21017476.506
  21838712.092     6812238.93849   5315093.75747  21838712.084    21838720.403
  23565440.887    -8775746.39049  -6817819.44045  23565440.644    23565449.043
  21333417.139   -18986545.09949 -14776960.05747  21333416.643    21333424.433
  21672128.524   -10161445.12149  -7898019.29447  21672128.797    21672136.434
  21905593.991   -19648629.57649 -15277919.77047  21905593.583    21905601.792
  24879402.089    -8154395.01949  -5849228.54445  24879401.558    24879411.428
 03  6  8 18 12  0.0000000  0 11G 3G29G21G18G17G 6G16G15G26G23G 2
  24455216.701    -6206133.83149  -4451634.39245  24455216.436    24455225.689
  23674337.889     1161715.68049    919383.03945  23674337.897    23674346.112
  20493921.725    -7223712.66949  -5614118.68047  20493921.343    20493927.014
  20546078.240   -19921951.92149 -15500167.66348  20546077.986    20546084.115
  21022361.062     -871781.45149   -388775.43647  21022360.643    21022368.601
  21854984.392     6897750.36849   5381725.97147  21854984.409    21854992.752
  23572630.729    -8737964.47449  -6788379.03745  23572630.496    23572638.765
  21322704.187   -19042841.93249 -14820827.69247  21322703.690    21322711.463
  21679960.986   -10120285.41349  -7865946.80247  21679961.255    21679968.915
  21895044.472   -19704067.73649 -15321118.29847  21895044.046    21895052.231
  24878865.045    -8157216.99049  -5851427.55545  24878864.561    24878874.490
 03  6  8 18 12 30.0000000  0 11G 3G29G21G18G17G 6G16G15G26G23G 2
  24436578.067    -6304080.27149  -4527956.25445  24436577.809    24436587.130
  23687938.066     1233185.27749    975073.59345  23687938.131    23687946.392
  20494673.582    -7219761.62949  -5611039.96147  20494673.193    20494678.876
  20541200.818   -19947583.13649 -15520140.02948  20541200.563    20541206.650
  21027298.115     -845837.04949   -368559.04547  21027297.725    21027305.647
  21871323.413     6983612.17949   5448631.19747  21871323.407    21871331.742
  23579902.078    -8699754.03149  -6758604.72945  23579901.823    23579909.928
  21312022.217   -19098975.81949 -14864568.36347  21312021.724    21312029.492
  21687913.110   -10078497.16149  -7833384.54747  21687913.290    21687920.998
  21884558.591   -19759171.47949 -15364056.25647  21884558.146    21884566.352
  24878407.322    -8159623.22149  -5853302.58745  24878406.717    24878416.668
 03  6  8 18 13  0.0000000  0 11G 3G29G21G18G17G 6G16G15G26G23G 2
  24417974.732    -6401841.12449  -4604133.47045  24417974.558    24417983.987
  23701613.679     1305051.39649   1031073.10145  23701613.814    23701621.999
  20495476.057    -7215544.66249  -5607754.01747  20495475.677    20495481.361
  20536400.617   -19972808.43249 -15539796.09348  20536400.356    20536406.446
  21032280.357     -819655.19649   -348157.62347  21032279.956    21032287.913
  21887728.869     7069823.03049   5515808.39747  21887728.860    21887737.176
  23587254.647    -8661116.68049  -6728497.75745  23587254.393    23587262.380
  21301371.560   -19154945.24349 -14908180.88047  21301371.058    21301378.815
  21695984.723   -10036081.12049  -7800333.09947  21695984.842    21695992.541
  21874136.417   -19813940.24049 -15406733.18147  21874135.961    21874144.166
  24878028.641    -8161613.96149  -5854853.85545  24878027.990    24878037.917
 03  6  8 18 13 30.0000000  0 11G 3G29G21G18G17G 6G16G15G26G23G 2
  24399407.571    -6499412.79249  -4680163.31045  24399407.381    24399416.763
  23715364.527     1377312.68349   1087380.55045  23715364.654    23715372.888
  20496329.403    -7211060.19149  -5604259.62747  20496329.027    20496334.741
  20531677.789   -19997627.09749 -15559135.30548  20531677.515    20531683.576
  21037307.961     -793234.80749   -327570.32547  21037307.565    21037315.562
  21904200.580     7156381.95649   5583256.82947  21904200.547    21904208.868
  23594688.236    -8622053.69049  -6698059.12445  23594687.937    23594695.862
  21290752.577   -19210748.48449 -14951663.89947  21290752.059    21290759.812
  21704175.668    -9993037.96049  -7766792.99346  21704175.702    21704183.402
  21863778.191   -19868372.84249 -15449148.15647  21863777.771    21863785.965
  24877728.871    -8163188.78049  -5856081.04745  24877728.327    24877738.391
 03  6  8 18 14  0.0000000  0 11G 3G29G21G18G17G 6G16G15G26G23G 2
  24380876.399    -6596794.50349  -4756045.10945  24380876.141    24380885.625
  23729189.899     1449965.44149   1143993.00645  23729189.894    23729198.215
  20497233.480    -7206309.18649  -5600557.54547  20497233.121    20497238.826
  20527031.978   -20022040.95649 -15578159.08448  20527031.702    20527037.770
  21042380.918     -766576.49349   -306797.63647  21042380.493    21042388.523
  21920737.863     7243285.36449   5650973.68347  21920737.789    21920746.161
  23602202.093    -8582568.72349  -6667291.68545  23602201.766    23602209.579
  21280165.079   -19266386.08349 -14995017.85847  21280164.569    21280172.300
  21712485.280    -9949370.75149  -7732766.61046  21712485.299    21712492.999
  21853483.694   -19922470.68949 -15491302.29547  21853483.288    21853491.485
  24877508.026    -8164349.83849  -5856985.81545  24877507.379    24877517.443
 03  6  8 18 14 30.0000000  0 11G 3G29G21G18G17G 6G16G15G26G23G 2
  24362382.188    -6693981.70549  -4831775.37745  24362382.004    24362391.537
  23743089.738     1523009.17649   1200910.12645  23743089.671    23743098.083
  20498188.805    -7201289.19149  -5596645.86147  20498188.419    20498194.122
  20522463.411   -20046048.92449 -15596866.58548  20522463.134    20522469.181
  21047499.471     -739678.29849   -285838.02147  21047499.060    21047507.098
  21937340.627     7330533.04149   5718958.79347  21937340.545    21937348.927
  23609795.991    -8542662.50649  -6636196.00545  23609795.649    23609803.539
  21269609.623   -19321855.24449 -15038240.56347  21269609.096    21269616.833
  21720913.537    -9905079.40149  -7698253.88546  21720913.664    21720921.333
  21843253.223   -19976232.01149 -15533194.20947  21843252.791    21843260.966
  24877365.963    -8165096.21449  -5857567.47045  24877365.268    24877375.261
 03  6  8 18 15  0.0000000  0 11G 3G29G21G18G17G 6G16G15G26G23G 2
  24343925.216    -6790973.33449  -4907353.23245  24343925.091    24343934.513
  23757063.328     1596440.53149   1258129.27245  23757063.187    23757071.585
  20499195.134    -7196000.85149  -5592525.08047  20499194.743    20499200.424
  20517971.765   -20069652.54549 -15615259.00848  20517971.494    20517977.544
  21052663.622     -712540.62549   -264691.79547  21052663.215    21052671.280
  21954008.243     7418121.69049   5787209.59947  21954008.157    21954016.563
  23617469.466    -8502338.25949  -6604774.58545  23617469.176    23617476.994
  21259086.117   -19377156.46449 -15081332.40347  21259085.611    21259093.379
  21729459.995    -9860166.82949  -7663257.08346  21729460.258    21729467.887
  21833086.598   -20029657.86849 -15574824.71647  21833086.159    21833094.301
  24877302.490    -8165429.90949  -5857827.55245  24877301.912    24877311.966
 03  6  8 18 15 30.0000000  0 11G 3G29G21G18G17G 6G16G15G26G23G 2
  24325505.611    -6887769.40449  -4982778.70645  24325505.453    24325514.871
  23771109.682     1670254.47049   1315646.55545  23771109.513    23771117.969
  20500252.175    -7190445.99249  -5588196.62047  20500251.801    20500257.470
  20513556.521   -20092854.63749 -15633338.55548  20513556.270    20513562.311
  21057872.907     -685165.73549   -243360.73547  21057872.508    21057880.595
  21970739.849     7506046.63049   5855722.44647  21970739.783    21970748.201
  23625221.523    -8461600.91249  -6573031.28045  23625221.190    23625229.176
  21248594.285   -19432291.24649 -15124294.55447  21248593.765    21248601.560
  21738123.896    -9814637.21849  -7627779.47746  21738124.230    21738131.833
  21822983.356   -20082750.79149 -15616195.78647  21822982.913    21822991.016
  24877316.867    -8165354.19249  -5857768.63045  24877316.222    24877326.525
 03  6  8 18 16  0.0000000  0 11G 3G29G21G18G17G 6G16G15G26G23G 2
  24307125.063    -6984359.70749  -5058043.83145  24307124.917    24307134.342
  23785230.106     1744456.92549   1373466.57345  23785229.898    23785238.269
  20501361.588    -7184616.05849  -5583653.82447  20501361.203    20501366.871
  20509219.102   -20115647.91649 -15651099.53948  20509218.853    20509224.909
  21063129.024     -657544.74949   -221837.90647  21063128.629    21063136.709
  21987536.617     7594313.81749   5924501.98046  21987536.535    21987544.976
  23633053.293    -8420444.61149  -6540961.50545  23633052.978    23633061.108
  21238135.832   -19487250.71149 -15167120.09947  21238135.335    21238143.110
  21746906.580    -9768484.32349  -7591816.20446  21746906.890    21746914.448
  21812944.974   -20135502.85849 -15657301.26947  21812944.523    21812952.576
  24877410.403    -8164862.04549  -5857385.19245  24877409.808    24877420.147
 03  6  8 18 16 30.0000000  0 11G 3G29G21G18G17G 6G16G15G26G23G 2
  24288782.799    -7080748.92049  -5133152.28045  24288782.646    24288792.004
  23799422.482     1819037.89249   1431581.54345  23799422.223    23799430.591
  20502522.065    -7178517.80249  -5578901.94447  20502521.689    20502527.368
  20504957.999   -20138040.13049 -15668548.01348  20504957.753    20504963.778
  21068430.629     -629684.66049   -200128.76647  21068430.229    21068438.275
  22004396.726     7682913.83149   5993540.85946  22004396.633    22004405.084
  23640962.967    -8378879.36649  -6508573.07645  23640962.722    23640970.749
  21227709.439   -19542041.63849 -15209814.31547  21227708.933    21227716.746
  21755806.185    -9721717.33249  -7555374.40546  21755806.349    21755813.899
  21802969.999   -20187921.37049 -15698146.83247  21802969.568    21802977.614
  24877581.771    -8163961.54749  -5856683.57045  24877581.309    24877591.690
 03  6  8 18 17  0.0000000  0 11G 3G29G21G18G17G 6G16G15G26G23G 2
  24270479.380    -7176933.32649  -5208101.12445  24270479.277    24270488.721
  23813686.725     1893997.03649   1489991.19645  23813686.577    23813694.938
  20503734.010    -7172149.00149  -5573939.24547  20503733.630    20503739.274
  20500773.399   -20160030.48349 -15685683.34548  20500773.130    20500779.196
  21073778.091     -601583.63349   -178231.88047  21073777.707    21073785.704
  22021319.961     7771846.17549   6062838.69846  22021319.917    22021328.391
  23648950.478    -8336905.54049  -6475866.28145  23648950.162    23648958.275
  21217315.646   -19596661.31949 -15252375.09647  21217315.148    21217322.957
  21764822.589    -9674336.34149  -7518454.17446  21764822.707    21764830.268
  21793058.865   -20240004.62949 -15738731.16447  21793058.470    21793066.491
  24877831.195    -8162651.70549  -5855662.99245  24877830.626    24877841.039
 03  6  8 18 17 30.0000000  0 11G 3G29G21G18G17G 6G16G15G26G23G 2
  24252215.824    -7272909.06449  -5282887.39245  24252215.761    24252225.115
  23828022.700     1969332.98149   1548694.45245  23828022.723    23828031.091
  20504997.882    -7165507.65049  -5568764.17547  20504997.466    20505003.094
  20496665.447   -20181617.92749 -15702504.72448  20496665.194    20496671.237
  21079171.689     -573240.19849   -156146.10447  21079171.323    21079179.259
  22038306.360     7861109.95149   6132394.79746  22038306.328    22038314.836
  23657015.473    -8294524.34349  -6442842.06645  23657015.159    23657023.363
  21206954.823   -19651107.64749 -15294800.79347  21206954.321    21206962.150
  21773955.677    -9626341.89749  -7481055.92646  21773955.714    21773963.300
  21783211.775   -20291751.51749 -15779053.39047  21783211.367    21783219.391
  24878158.516    -8160932.13349  -5854323.12045  24878157.899    24878168.190
 03  6  8 18 18  0.0000000  0 11G 3G29G21G18G17G 6G16G15G26G23G 2
  24233992.220    -7368674.55549  -5357509.81045  24233992.116    24234001.328
  23842429.831     2045042.78549   1607689.03545  23842429.968    23842438.265
  20506313.534    -7158593.89149  -5563376.83647  20506313.135    20506318.742
  20492633.905   -20202803.86549 -15719013.23848  20492633.625    20492639.683
  21084611.472     -544654.10349   -133871.24147  21084611.107    21084619.039
  22055355.276     7950702.30949   6202206.91946  22055355.235    22055363.798
  23665157.271    -8251739.01849  -6409502.93945  23665157.063    23665165.187
  21196627.099   -19705380.40149 -15337091.24547  21196626.571    21196634.368
  21783204.993    -9577736.57849  -7443181.67346  21783205.011    21783212.590
  21773428.522   -20343162.83949 -15819114.13647  21773428.119    21773436.140
  24878563.429    -8158804.59849  -5852665.37245  24878562.789    24878573.182
 03  6  8 18 18 30.0000000  0 11G 3G29G21G18G17G 6G16G15G26G23G 2
  24215809.277    -7464226.65549  -5431965.96245  24215809.174    24215818.398
  23856907.850     2121124.49049   1666973.42845  23856907.846    23856916.195
  20507681.148    -7151407.02749  -5557776.70047  20507680.738    20507686.328
  20488678.723   -20223588.39549 -15735208.97548  20488678.483    20488684.516
  21090097.636     -515824.39449   -111406.55547  21090097.239    21090105.211
  22072466.321     8040621.32649   6272273.57446  22072466.309    22072474.921
  23673375.640    -8208551.58749  -6375850.48445  23673375.413    23673383.544
  21186332.632   -19759478.32649 -15379245.46947  21186332.117    21186339.884
  21792570.213    -9528522.09949  -7404832.75946  21792570.257    21792577.844
  21763709.203   -20394238.35049 -15858913.21247  21763708.788    21763716.814
  24879045.803    -8156269.74049  -5850690.23045  24879045.225    24879055.530
 03  6  8 18 19  0.0000000  0 11G 3G29G21G18G17G 6G16G15G26G23G 2
  24197667.607    -7559561.86049  -5506253.11245  24197667.553    24197676.475
  23871456.264     2197576.80349   1726546.61445  23871456.294    23871464.691
  20509101.110    -7143945.08149  -5551962.21147  20509100.705    20509106.303
  20484800.039   -20243970.96349 -15751091.49048  20484799.778    20484805.838
  21095630.351     -486749.84349    -88751.07647  21095629.959    21095637.952
  22089639.475     8130866.25049   6342594.19446  22089639.440    22089648.095
  23681670.232    -8164963.37349  -6341885.71845  23681670.060    23681678.186
  21176071.810   -19813399.34449 -15421261.83447  21176071.301    21176079.041
  21802051.150    -9478699.15249  -7366009.70946  21802051.264    21802058.861
  21754053.957   -20444976.74749 -15898449.60047  21754053.522    21754061.613
  24879605.750    -8153326.91049  -5848397.18345  24879605.237    24879615.596
 03  6  8 18 19 30.0000000  0 11G 3G29G21G18G17G 6G16G15G26G23G 2
  24179567.137    -7654680.46749  -5580371.48945  24179567.064    24179575.939
  23886074.319     2274394.63649   1786404.62645  23886074.234    23886082.674
  20510573.092    -7136209.94649  -5545934.85747  20510572.686    20510578.282
  20480997.249   -20263954.77249 -15766663.28848  20480997.001    20481003.022
  21101209.247     -457432.62549    -65906.51347  21101208.857    21101216.877
  22106873.700     8221432.21549   6413164.96246  22106873.610    22106882.328
  23690040.157    -8120979.40149  -6307612.58445  23690039.936    23690048.036
  21165844.315   -19867145.16549 -15463141.68947  21165843.801    21165851.533
  21811647.052    -9428272.01849  -7326715.86546  21811647.261    21811654.864
  21744462.369   -20495380.78549 -15937725.44847  21744461.932    21744470.035
  24880242.798    -8149979.83449  -5845789.15345  24880242.307    24880252.548
 03  6  8 18 20  0.0000000  0 11G 3G29G21G18G17G 6G16G15G26G23G 2
  24161508.620    -7749578.62349  -5654318.09445  24161508.516    24161517.330
  23900761.801     2351577.27349   1846546.90745  23900761.737    23900770.067
  20512097.338    -7128199.91049  -5539693.28647  20512096.931    20512102.568
  20477270.452   -20283539.20049 -15781923.87548  20477270.201    20477276.200
  21106834.683     -427870.86249    -42871.39247  21106834.283    21106842.318
  22124168.830     8312318.44549   6483985.29846  22124168.806    22124177.457
  23698485.180    -8076600.47749  -6273031.69745  23698484.990    23698493.040
  21155650.570   -19920713.57749 -15504883.29847  21155650.038    21155657.801
  21821357.842    -9377241.40849  -7286951.79046  21821358.088    21821365.693
  21734934.613   -20545449.28449 -15976739.83147  21734934.158    21734942.276
  24880956.656    -8146228.15349  -5842865.85945  24880956.393    24880966.485
 03  6  8 18 20 30.0000000  0 11G 3G29G21G18G17G 6G16G15G26G23G 2
  24143492.444    -7844254.36149  -5728091.34845  24143492.278    24143500.992
  23915518.057     2429121.65149   1906971.05645  23915517.852    23915526.375
  20513673.962    -7119914.62449  -5533237.24447  20513673.549    20513679.227
  20473619.461   -20302725.32949 -15796874.11048  20473619.208    20473625.187
  21112506.571     -398064.73949    -19645.86847  21112506.166    21112514.258
  22141524.438     8403522.40649   6555053.20746  22141524.411    22141533.109
  23707004.766    -8031829.72249  -6238145.49145  23707004.612    23707012.792
  21145490.707   -19974104.11549 -15546486.31447  21145490.172    21145497.898
  21831183.004    -9325609.71249  -7246719.33446  21831183.306    21831190.953
  21725470.627   -20595182.82549 -16015493.22147  21725470.200    21725478.253
  24881747.427    -8142073.20449  -5839628.27945  24881747.115    24881757.218
 03  6  8 18 21  0.0000000  0 11G 3G29G21G18G17G 6G16G15G26G23G 2
  24125518.742    -7938706.36549  -5801690.28145  24125518.551    24125527.463
  23930342.456     2507024.29249   1967674.35945  23930342.268    23930350.790
  20515302.813    -7111354.88149  -5526567.34047  20515302.412    20515308.114
  20470043.901   -20321514.87449 -15811515.30848  20470043.644    20470049.632
  21118224.867     -368014.90349      3769.55647  21118224.448    21118232.590
  22158939.894     8495040.68449   6626366.04046  22158939.835    22158948.592
  23715598.194    -7986670.96549  -6202956.95045  23715598.043    23715606.370
  21135364.556   -20027317.17549 -15587951.02347  21135364.042    21135371.765
  21841121.918    -9273380.23149  -7206021.08446  21841122.246    21841129.931
  21716070.093   -20644582.76849 -16053986.66647  21716069.658    21716077.680
  24882614.553    -8137517.15449  -5836078.19345  24882614.145    24882624.475
 03  6  8 18 21 30.0000000  0 11G 3G29G21G18G17G 6G16G15G26G23G 2
  24107589.186    -8032925.89449  -5875108.07145  24107589.034    24107598.185
  23945235.714     2585288.91149   2028659.73245  23945235.519    23945244.019
  20516985.264    -7102513.50249  -5519677.97747  20516984.897    20516990.644
  20466544.926   -20339902.13949 -15825843.05148  20466544.666    20466550.665
  21123990.922     -337713.93949     27380.66547  21123990.526    21123998.703
  22176415.913     8586877.29549   6697926.92146  22176415.867    22176424.643
  23724266.249    -7941120.12049  -6167462.87945  23724266.122    23724274.454
  21125273.577   -20080345.46349 -15629271.76447  21125273.078    21125280.780
  21851175.420    -9220548.64749  -7164853.66846  21851175.736    21851183.498
  21706734.251   -20693642.84949 -16092215.28147  21706733.831    21706741.861
  24883558.918    -8132554.78049  -5832211.50345  24883558.451    24883568.927
 03  6  8 18 22  0.0000000  0 11G 3G29G21G18G17G 6G16G15G26G23G 2
  24089703.240    -8126917.16249  -5948347.98745  24089703.075    24089712.041
  23960195.995     2663906.55849   2089920.16845  23960195.971    23960204.591
  20518720.114    -7093396.82549  -5512574.10147  20518719.726    20518725.500
  20463121.120   -20357894.37949 -15839862.98148  20463120.856    20463126.882
  21129803.489     -307168.73749     51182.08247  21129803.102    21129811.311
  22193950.824     8679023.43749   6769728.98746  22193950.768    22193959.557
  23733007.219    -7895186.40149  -6131670.45845  23733007.041    23733015.465
  21115216.748   -20133194.41449 -15670452.75947  21115216.260    21115223.972
  21861341.973    -9167123.41849  -7123223.65446  21861342.208    21861350.018
  21697461.843   -20742369.67349 -16130184.21947  21697461.400    21697469.434
  24884579.293    -8127193.60749  -5828034.01245  24884578.934    24884589.154
 03  6  8 18 22 30.0000000  0 11G 3G29G21G18G17G 6G16G15G26G23G 2
  24071861.332    -8220676.41149  -6021407.09145  24071861.217    24071870.348
  23975223.428     2742876.27049   2151454.93945  23975223.378    23975232.012
  20520507.764    -7084002.68049  -5505254.00747  20520507.398    20520513.171
  20459772.616   -20375490.85249 -15853574.51748  20459772.354    20459778.385
  21135662.944     -276377.23849     75175.42547  21135662.545    21135670.799
  22211544.503     8771478.22349   6841771.57046  22211544.447    22211553.245
  23741820.892    -7848870.81449  -6095580.48945  23741820.699    23741829.176
  21105194.419   -20185861.86049 -15711492.31847  21105193.948    21105201.644
  21871621.305    -9113105.39049  -7081131.72346  21871621.511    21871629.343
  21688253.026   -20790762.19849 -16167892.65547  21688252.615    21688260.618
  24885675.601    -8121433.31949  -5823545.55845  24885675.105    24885685.510
 03  6  8 18 23  0.0000000  0 11G 3G29G21G18G17G 6G16G15G26G23G 2
  24054064.505    -8314199.07249  -6094281.85445  24054064.399    24054073.451
  23990317.778     2822197.59249   2213263.69145  23990317.679    23990326.311
  20522348.788    -7074328.35949  -5497715.59747  20522348.404    20522354.141
  20456499.689   -20392690.02949 -15866976.47748  20456499.440    20456505.475
  21141569.744     -245336.88749     99362.67247  21141569.366    21141577.597
  22229196.869     8864241.35849   6914054.39846  22229196.777    22229205.637
  23750707.052    -7802174.17349  -6059193.60445  23750706.847    23750715.347
  21095207.220   -20238345.02649 -15752388.28647  21095206.732    21095214.424
  21882013.445    -9058494.68749  -7038577.96546  21882013.597    21882021.421
  21679108.208   -20838818.44749 -16205339.06647  21679107.796    21679115.766
  24886848.123    -8115272.92449  -5818745.32345  24886847.514    24886857.755
 03  6  8 18 23 30.0000000  0 11G 3G29G21G18G17G 6G16G15G26G23G 2
  24036312.821    -8407484.20649  -6166971.51445  24036312.887    24036321.868
  24005478.185     2901866.33249   2275343.15545  24005478.193    24005486.877
  20524242.792    -7064375.20949  -5489959.91147  20524242.433    20524248.147
  20453301.913   -20409494.58449 -15880070.93648  20453301.654    20453307.684
  21147523.641     -214048.93949    123742.86147  21147523.274    21147531.495
  22246907.093     8957309.01449   6986574.53346  22246907.017    22246915.884
  23759665.001    -7755100.45649  -6022512.88745  23759664.846    23759673.345
  21085254.982   -20290644.54149 -15793141.14847  21085254.482    21085262.157
  21892517.644    -9003295.02649  -6995565.28546  21892517.795    21892525.606
  21670026.996   -20886540.33149 -16242524.92547  21670026.593    21670034.588
  24888095.981    -8108715.22649  -5813635.47945  24888095.390    24888105.524
 03  6  8 18 24  0.0000000  0 11G 3G29G21G18G17G 6G16G15G26G23G 2
  24018606.839    -8500529.22749  -6239474.06645  24018606.865    24018615.916
  24020704.289     2981880.41349   2337691.72945  24020704.413    24020713.028
  20526190.147    -7054142.23949  -5481986.18647  20526189.774    20526195.449
  20450179.167   -20425904.78349 -15892858.10448  20450178.916    20450184.931
  21153524.826     -182512.81549    148316.43247  21153524.450    21153532.671
  22264674.882     9050679.09649   7059330.30746  22264674.856    22264683.783
  23768694.339    -7707651.92649  -5985540.10445  23768694.085    23768702.663
  21075337.926   -20342758.99549 -15833749.80447  21075337.408    21075345.120
  21903133.608    -8947508.21149  -6952095.06846  21903133.716    21903141.509
  21661009.412   -20933927.84649 -16279450.23347  21661009.006    21661017.012
  24889419.137    -8101760.91149  -5808216.60745  24889418.704    24889429.010
 03  6  8 18 24 30.0000000  0 11G 3G29G21G18G17G 6G16G15G26G23G 2
  24000947.086    -8593331.95249  -6311787.82845  24000947.070    24000956.123
  24035995.668     3062236.98449   2400307.16045  24035995.776    24036004.311
  20528190.755    -7043628.90049  -5473793.99047  20528190.409    20528196.063
  20447131.266   -20441921.52549 -15905338.68048  20447131.006    20447137.037
  21159573.278     -150728.10349    173083.70847  21159572.912    21159581.126
  22282499.849     9144349.22949   7132319.89346  22282499.796    22282508.695
  23777794.378    -7659831.50849  -5948277.53845  23777794.195    23777802.596
  21065456.188   -20394687.62349 -15874213.66447  21065455.679    21065463.410
  21913860.764    -8891136.83749  -6908169.34446  21913860.860    21913868.683
  21652055.433   -20980981.45249 -16316115.36347  21652055.034    21652062.994
  24890817.581    -8094411.48449  -5802489.85845  24890817.196    24890827.662
 03  6  8 18 25  0.0000000  0 11G 3G29G21G18G17G 6G16G15G26G23G 2
  23983334.292    -8685888.22449  -6383909.54245  23983334.193    23983343.244
  24051352.223     3142935.59949   2463189.10545  24051352.225    24051360.798
  20530245.246    -7032832.92049  -5465381.56247  20530244.857    20530250.510
  20444158.435   -20457543.93149 -15917511.98848  20444158.164    20444164.195
  21165669.464     -118692.59949    198046.39947  21165669.072    21165677.291
  22300381.759     9238318.90449   7205542.88146  22300381.697    22300390.664
  23786964.897    -7611639.98149  -5910725.80245  23786964.647    23786973.108
  21055610.298   -20446427.93649 -15914530.79547  21055609.815    21055617.573
  21924699.064    -8834181.07249  -6863788.26446  21924699.216    21924706.985
  21643165.240   -21027699.63249 -16352519.12947  21643164.839    21643172.763
  24892291.499    -8086666.16149  -5796454.60145  24892291.035    24892301.504
 03  6  8 18 25 30.0000000  0 11G 3G29G21G18G17G 6G16G15G26G23G 2
  23965768.413    -8778197.88049  -6455839.08245  23965768.254    23965777.280
  24066772.855     3223971.74449   2526334.06645  24066772.950    24066781.518
  20532353.107    -7021755.96349  -5456750.18247  20532352.718    20532358.359
  20441260.136   -20472774.51749 -15929379.97648  20441259.860    20441265.895
  21171813.131      -86407.52349    223203.56847  21171812.739    21171820.929
  22318319.884     9332583.94049   7278996.02146  22318319.848    22318328.840
  23796205.215    -7563081.88249  -5872888.42945  23796204.920    23796213.374
  21045800.102   -20497980.76149 -15954701.82947  21045799.606    21045807.390
  21935647.758    -8776645.23149  -6818955.16446  21935647.967    21935655.717
  21634338.506   -21074084.43749 -16388663.11647  21634338.089    21634346.010
  24893840.324    -8078527.98749  -5790113.23745  24893839.863    24893850.212
 03  6  8 18 26  0.0000000  0 11G 3G29G21G18G17G 6G16G15G26G23G 2
  23948250.069    -8870256.95249  -6527573.36945  23948250.041    23948259.043
  24082257.618     3305344.14349   2589741.07645  24082257.640    24082266.334
  20534514.936    -7010395.55249  -5447897.93447  20534514.561    20534520.200
  20438436.459   -20487612.99949 -15940942.43148  20438436.195    20438442.220
  21178004.566      -53871.47949    248556.29847  21178004.193    21178012.359
  22336314.048     9427143.11349   7352678.36646  22336313.951    22336323.004
  23805515.032    -7514158.65649  -5834766.53645  23805514.715    23805523.202
  21036026.034   -20549344.02049 -15994725.14547  21036025.542    21036033.293
  21946706.685    -8718530.22949  -6773670.76546  21946706.931    21946714.669
  21625575.384   -21120134.91349 -16424546.59047  21625574.976    21625582.864
  24895463.709    -8069996.88249  -5783465.68445  24895463.239    24895473.748
 03  6  8 18 26 30.0000000  0 11G 3G29G21G18G17G 6G16G15G26G23G 2
  23930780.029    -8962062.66149  -6599110.21545  23930779.956    23930788.997
  24097805.925     3387050.52149   2653408.32445  24097805.806    24097814.729
  20536730.720    -6998751.47549  -5438824.64747  20536730.357    20536735.987
  20435687.362   -20502059.75949 -15952199.64348  20435687.098    20435693.140
  21184243.858      -21084.04449    274104.91647  21184243.444    21184251.612
  22354363.787     9521994.43649   7426588.35346  22354363.666    22354372.748
  23814893.947    -7464872.75949  -5796362.04245  23814893.742    23814902.101
  21026288.237   -20600516.39349 -16034599.71947  21026287.754    21026295.475
  21957875.515    -8659838.20549  -6727936.74146  21957875.699    21957883.453
  21616875.864   -21165851.12949 -16460169.60247  21616875.449    21616883.322
  24897161.894    -8061073.96349  -5776512.78945  24897161.344    24897171.757
 03  6  8 18 27  0.0000000  0 11G 3G29G21G18G17G 6G16G15G26G23G 2
  23913358.465    -9053613.75749  -6670448.65645  23913358.337    23913367.362
  24113417.023     3469087.15549   2717332.91545  24113416.999    24113425.914
  20539000.377    -6986824.36549  -5429530.81447  20538999.996    20539005.636
  20433012.411   -20516116.65349 -15963153.06248  20433012.140    20433018.194
  21190530.811       11953.92549    299848.76347  21190530.391    21190538.532
  22372468.377     9617134.36649   7500723.23346  22372468.293    22372477.310
  23824341.137    -7415227.95749  -5757677.89145  23824340.912    23824349.385
  21016586.755   -20651498.15249 -16074325.76147  21016586.250    21016593.981
  21969153.347    -8600572.62649  -6681755.78846  21969153.551    21969161.344
  21608239.658   -21211234.47949 -16495533.23247  21608239.247    21608247.128
  24898933.990    -8051761.67349  -5769256.51345  24898933.407    24898943.990
 03  6  8 18 27 30.0000000  0 11G 3G29G21G18G17G 6G16G15G26G23G 2
  23895985.938    -9144906.73749  -6741585.97145  23895985.783    23895994.801
  24129090.633     3551452.69749   2781513.81345  24129090.668    24129099.745
  20541324.240    -6974612.53349  -5420015.11847  20541323.858    20541329.509
  20430411.687   -20529783.57949 -15973802.60548  20430411.420    20430417.465
  21196865.752       45244.18849    325789.20047  21196865.325    21196873.491
  22390627.633     9712561.72349   7575082.06946  22390627.640    22390636.664
  23833856.254    -7365225.83749  -5718715.29845  23833856.015    23833864.576
  21006921.867   -20702287.41749 -16113901.80747  21006921.371    21006929.103
  21980540.165    -8540734.79549  -6635128.92746  21980540.319    21980548.147
  21599666.987   -21256284.25449 -16530636.93347  21599666.572    21599674.474
  24900780.145    -8042060.15649  -5761696.96045  24900779.688    24900790.244
 03  6  8 18 28  0.0000000  0 11G 3G29G21G18G17G 6G16G15G26G23G 2
  23878663.002    -9235939.11449  -6812520.19745  23878662.816    23878671.895
  24144826.526     3634144.83149   2845949.20545  24144826.584    24144835.592
  20543702.400    -6962115.17049  -5410276.93247  20543702.011    20543707.673
  20427885.143   -20543060.83149 -15984148.50948  20427884.860    20427890.877
  21203248.822       78787.47849    351926.79947  21203248.397    21203256.577
  22408841.316     9808274.45549   7649663.28146  22408841.312    22408850.310
  23843438.917    -7314868.88649  -5679476.21745  23843438.730    23843447.330
  20997293.912   -20752882.67749 -16153326.67747  20997293.386    20997301.137
  21992035.492    -8480326.55349  -6588057.59046  21992035.621    21992043.482
  21591157.790   -21301000.41349 -16565480.67647  21591157.353    21591165.279
  24902700.127    -8031970.46749  -5753834.89545  24902699.721    24902710.190
 03  6  8 18 28 30.0000000  0 11G 3G29G21G18G17G 6G16G15G26G23G 2
  23861390.026    -9326708.92849  -6883249.84445  23861389.824    23861398.865
  24160624.026     3717160.69649   2910636.84545  24160624.048    24160633.034
  20546134.993    -6949331.82449  -5400315.90447  20546134.627    20546140.293
  20425432.425   -20555949.95449 -15994191.97648  20425432.148    20425438.169
  21209680.102      112583.72749    378261.50247  21209679.644    21209687.825
  22427108.692     9904269.61649   7724464.55446  22427108.655    22427117.724
  23853088.605    -7264160.20149  -5639963.04945  23853088.410    23853096.950
  20987702.914   -20803283.56149 -16192600.09047  20987702.406    20987710.145
  22003638.793    -8419350.88449  -6540544.10946  22003638.898    22003646.752
  21582711.893   -21345383.76249 -16600065.08647  21582711.450    21582719.373
  24904693.494    -8021494.20249  -5745671.63845  24904693.109    24904703.689
 03  6  8 18 29  0.0000000  0 11G 3G29G21G18G17G 6G16G15G26G23G 2
  23844167.438    -9417213.41249  -6953772.72845  23844167.287    23844176.429
  24176482.664     3800497.98449   2975574.95445  24176482.630    24176491.572
  20548622.175    -6936261.79549  -5390131.48647  20548621.785    20548627.479
  20423053.431   -20568451.42749 -16003933.37948  20423053.155    20423059.191
  21216159.562      146633.27549    404793.59047  21216159.129    21216167.292
  22445429.464    10000545.08849   7799484.25946  22445429.392    22445438.488
  23862804.832    -7213102.01749  -5600177.54945  23862804.614    23862813.059
  20978149.171   -20853488.88349 -16231721.11147  20978148.670    20978156.404
  22015349.727    -8357809.82749  -6492590.06546  22015349.800    22015357.630
  21574329.287   -21389434.25949 -16634390.13147  21574328.873    21574336.788
  24906760.646    -8010632.42049  -5737207.97545  24906760.208    24906770.918
 03  6  8 18 29 30.0000000  0 11G 3G29G21G18G17G 6G16G15G26G23G 2
  23826995.795    -9507450.37249  -7024087.15645  23826995.605    23827004.826
  24192401.909     3884153.59049   3040761.13045  24192401.848    24192410.689
  20551163.855    -6922905.11149  -5379723.70447  20551163.456    20551169.192
  20420748.054   -20580566.26749 -16013373.51548  20420747.800    20420753.811
  21222687.255      180936.28449    431523.17247  21222686.829    21222694.981
  22463803.013    10097098.22749   7874720.32946  22463802.953    22463812.069
  23872586.799    -7161697.85849  -5560122.45645  23872586.522    23872594.998
  20968632.755   -20903498.05249 -16270689.28747  20968632.238    20968639.972
  22027167.794    -8295706.26649  -6444197.71446  22027167.789    22027175.583
  21566009.963   -21433152.77749 -16668456.48547  21566009.522    21566017.405
  24908900.425    -7999387.01749  -5728445.36245  24908899.928    24908910.688
 03  6  8 18 30  0.0000000  0 11G 3G29G21G18G17G 6G16G15G26G23G 2
  23809875.577    -9597416.88149  -7094190.85145  23809875.406    23809884.697
  24208381.375     3968125.76149   3106193.95645  24208381.266    24208390.138
  20553760.363    -6909260.50249  -5369091.56147  20553759.988    20553765.721
  20418516.196   -20592294.78149 -16022512.61548  20418515.936    20418521.956
  21229263.496      215494.43849    458451.57547  21229263.087    21229271.208
  22482229.092    10193927.33049   7950171.42346  22482229.066    22482238.153
  23882434.212    -7109949.50949  -5519799.17545  23882433.945    23882442.440
  20959153.997   -20953309.15249 -16309503.12647  20959153.490    20959161.221
  22039092.523    -8233041.83049  -6395368.32846  22039092.484    22039100.225
  21557753.813   -21476539.05149 -16702263.94847  21557753.348    21557761.258
  24911113.327    -7987758.41649  -5719384.17045  24911112.706    24911123.659
 03  6  8 18 30 30.0000000  0 11G 3G29G21G18G17G 6G16G15G26G23G 2
  23792807.424    -9687110.52049  -7164081.91645  23792807.163    23792816.542
  24224420.616     4052411.96749   3171871.49745  24224420.482    24224429.320
  20556411.783    -6895327.33049  -5358234.56547  20556411.402    20556417.146
  20416357.705   -20603637.86949 -16031351.38848  20416357.440    20416363.412
  21235888.289      250307.63449    485578.70647  21235887.851    21235896.000
  22500707.190    10291030.00749   8025835.70046  22500707.175    22500716.315
  23892346.616    -7057859.59249  -5479209.72045  23892346.282    23892355.050
  20949713.091   -21002921.33149 -16348161.95947  20949712.596    20949720.305
  22051123.504    -8169818.94049  -6346103.77246  22051123.455    22051131.192
  21549560.807   -21519593.43049 -16735812.80547  21549560.360    21549568.228
  24913399.056    -7975748.04849  -5710025.51045  24913398.304    24913409.265
 03  6  8 18 31  0.0000000  0 11G 3G29G21G18G17G 6G16G15G26G23G 2
  23775791.505    -9776528.93349  -7233758.51945  23775791.302    23775800.760
  24240519.163     4137009.82449   3237791.86645  24240519.068    24240527.809
  20559118.219    -6881105.09249  -5347152.32147  20559117.839    20559123.573
  20414272.338   -20614596.43649 -16039890.53248  20414272.074    20414278.039
  21242561.584      285376.06549    512904.72047  21242561.151    21242569.342
  22519236.874    10388403.97549   8101711.35546  22519236.896    22519246.083
  23902323.484    -7005430.99749  -5438356.38145  23902323.106    23902331.975
  20940310.243   -21052333.56049 -16386664.99447  20940309.755    20940317.429
  22063260.210    -8106040.07349  -6296405.99446  22063260.153    22063267.928
  21541430.892   -21562316.43049 -16769103.44047  21541430.448    21541438.322
  24915756.909    -7963357.19449  -5700370.37145  24915756.320    24915767.083
 03  6  8 18 31 30.0000000  0 11G 3G29G21G18G17G 6G16G15G26G23G 2
  23758828.473    -9865669.83149  -7303218.88345  23758828.335    23758837.651
  24256676.400     4221916.16349   3303952.60745  24256676.272    24256685.052
  20561879.778    -6866593.29349  -5335844.44347  20561879.387    20561885.077
  20412260.023   -20625171.39049 -16048130.75648  20412259.757    20412265.699
  21249283.597      320700.21849    540430.00047  21249283.118    21249291.382
  22537817.791    10486046.60849   8177796.37146  22537817.783    22537827.014
  23912364.223    -6952666.84349  -5397241.54945  23912363.905    23912372.703
  20930945.620   -21101545.14449 -16425011.67647  20930945.118    20930952.789
  22075502.179    -8041707.77349  -6246276.97046  22075502.188    22075509.978
  21533363.950   -21604708.37449 -16802136.10647  21533363.523    21533371.383
  24918187.110    -7950587.27349  -5690419.83145  24918186.448    24918197.165
 03  6  8 18 32  0.0000000  0 11G 3G29G21G18G17G 6G16G15G26G23G 2
  23741918.788    -9954530.60149  -7372460.96645  23741918.651    23741927.936
  24272891.925     4307129.00449   3370352.19345  24272891.768    24272900.567
  20564696.494    -6851791.35349  -5324310.48147  20564696.107    20564701.792
  20410320.508   -20635363.57149 -16056072.71348  20410320.239    20410326.164
  21256054.331      356280.86649    568155.14947  21256053.900    21256062.190
  22556449.385    10583955.70649   8254089.00946  22556449.325    22556458.703
  23922468.452    -6899569.51549  -5355867.11045  23922468.080    23922476.882
  20921619.415   -21150554.86949 -16463201.06547  20921618.905    20921626.528
  22087849.039    -7976824.53349  -6195718.63146  22087849.110    22087856.841
  21525359.994   -21646769.55449 -16834911.03747  21525359.554    21525367.388
  24920689.067    -7937439.46749  -5680174.84945  24920688.446    24920699.254
 03  6  8 18 32 30.0000000  0 11G 3G29G21G18G17G 6G16G15G26G23G 2
  23725062.922   -10043108.21949  -7441482.41545  23725062.801    23725072.129
  24289165.284     4392646.21349   3436988.90545  24289165.101    24289173.977
  20567568.690    -6836697.92249  -5312549.38647  20567568.299    20567574.028
  20408453.850   -20645172.83649 -16063716.29848  20408453.592    20408459.509
  21262874.060      392118.84349    596080.81147  21262873.669    21262881.978
  22575131.317    10682129.47049   8330587.90346  22575131.262    22575140.677
  23932635.617    -6846141.11549  -5314234.72345  23932635.451    23932644.122
  20912331.898   -21199360.96249 -16501231.77947  20912331.404    20912339.046
  22100300.504    -7911392.01249  -6144732.27146  22100300.551    22100308.255
  21517419.009   -21688499.62149 -16867427.96147  21517418.571    21517426.403
  24923262.882    -7923914.55749  -5669636.04845  24923262.444    24923273.138
 03  6  8 18 33  0.0000000  0 11G 3G29G21G18G17G 6G16G15G26G23G 2
  23708261.331   -10131400.66949  -7510281.67045  23708261.263    23708270.498
  24305496.024     4478464.79349   3503860.46845  24305495.856    24305504.730
  20570496.291    -6821313.22649  -5300561.33347  20570495.902    20570501.674
  20406659.733   -20654601.01049 -16071062.93448  20406659.464    20406665.413
  21269742.744      428213.74749    624206.67647  21269742.364    21269750.630
  22593863.012    10780564.77349   8407290.56746  22593862.954    22593872.497
  23942865.135    -6792385.05649  -5272346.98645  23942864.979    23942873.631
  20903083.247   -21247962.98149 -16539103.47847  20903082.737    20903090.381
  22112855.866    -7845413.53149  -6093320.49046  22112855.938    22112863.560
  21509540.778   -21729899.76749 -16899687.80447  21509540.345    21509548.208
  24925908.170    -7910014.72349  -5658805.03645  24925907.683    24925918.013
 03  6  8 18 33 30.0000000  0 11G 3G29G21G18G17G 6G16G15G26G23G 2
  23691514.395   -10219405.60449  -7578856.87545  23691514.366    23691523.616
  24321883.585     4564582.25949   3570964.89845  24321883.501    24321892.416
  20573479.460    -6805636.32449  -5288345.57947  20573479.087    20573484.883
  20404937.996   -20663648.86649 -16078113.21148  20404937.716    20404943.712
  21276660.438      464566.37349    652533.37047  21276660.045    21276668.298
  22612644.103    10879259.36449   8484195.29046  22612644.072    22612653.656
  23953156.586    -6738303.95949  -5230205.97145  23953156.305    23953164.998
  20893873.667   -21296359.85349 -16576815.31947  20893873.163    20893880.801
  22125514.623    -7778891.29949  -6041484.99446  22125514.745    22125522.356
  21501725.348   -21770970.00049 -16931690.56747  21501724.926    21501732.807
  24928624.214    -7895741.16949  -5647682.83945  24928623.813    24928634.171
 03  6  8 18 34  0.0000000  0 11G 3G29G21G18G17G 6G16G15G26G23G 2
  23674822.889   -10307119.99149  -7647205.68945  23674822.791    23674832.090
  24338327.743     4650996.49549   3638300.63345  24338327.646    24338336.569
  20576518.459    -6789666.42349  -5275901.51947  20576518.053    20576523.897
  20403288.580   -20672316.61249 -16084867.30448  20403288.317    20403294.317
  21283627.311      501177.46749    681061.46347  21283626.912    21283635.137
  22631474.158    10978211.48949   8561300.67546  22631474.146    22631483.816
  23963509.378    -6683900.25549  -5187813.59145  23963509.028    23963517.697
  20884703.368   -21344550.07549 -16614366.12847  20884702.841    20884710.486
  22138276.393    -7711827.48049  -5989227.48246  22138276.550    22138284.170
  21493972.709   -21811710.36649 -16963436.28947  21493972.293    21493980.162
  24931411.451    -7881094.88749  -5636270.20845  24931410.864    24931421.612
 03  6  8 18 34 30.0000000  0 11G 3G29G21G18G17G 6G16G15G26G23G 2
  23658187.029   -10394542.24149  -7715326.87845  23658186.818    23658196.055
  24354827.836     4737704.58949   3705865.35845  24354827.653    24354836.595
  20579613.154    -6773403.53449  -5263229.15347  20579612.780    20579618.606
  20401711.166   -20680605.85749 -16091326.45648  20401710.899    20401716.936
  21290643.392      538046.89749    709790.85047  21290642.975    21290651.183
  22650352.640    11077418.06449   8638604.33446  22650352.617    22650362.406
  23973922.763    -6629177.31249  -5145172.44845  23973922.408    23973931.303
  20875572.511   -21392533.06449 -16651755.45847  20875572.002    20875579.654
  22151140.597    -7644225.27549  -5936550.45246  22151140.775    22151148.523
  21486282.628   -21852122.07849 -16994925.92647  21486282.196    21486290.005
  24934268.975    -7866077.95149  -5624568.74845  24934268.435    24934279.389
 03  6  8 18 35  0.0000000  0 11G 3G29G21G18G17G 6G16G15G26G23G 2
  23641607.376   -10481668.98249  -7783217.79145  23641607.206    23641616.175
  24371383.349     4824704.26649   3773657.29845  24371383.162    24371392.090
  20582763.903    -6756846.41849  -5250327.51847  20582763.499    20582769.367
  20400205.752   -20688516.83649 -16097490.85948  20400205.492    20400211.539
  21297708.896      575176.12949    738722.68447  21297708.473    21297716.677
  22669279.173    11176877.16949   8716104.76046  22669279.174    22669289.004
  23984396.608    -6574137.34549  -5102284.25545  23984396.317    23984405.166
  20866481.366   -21440307.16049 -16688982.01447  20866480.856    20866488.524
  22164106.868    -7576086.58449  -5883455.37646  22164107.098    22164114.953
  21478655.143   -21892204.88949 -17026159.26947  21478654.717    21478662.515
  24937196.809    -7850691.07949  -5612579.03445  24937196.507    24937207.239
 03  6  8 18 35 30.0000000  0 11G 3G29G21G18G17G 6G16G15G26G23G 2
  23625084.415   -10568498.44649  -7850877.06245  23625084.134    23625092.975
  24387993.830     4911992.75649   3841674.30545  24387993.634    24388002.487
  20585970.682    -6739994.64849  -5237196.28247  20585970.299    20585976.135
  20398772.131   -20696050.61649 -16103361.34248  20398771.864    20398777.930
  21304823.742      612564.87449    767856.73447  21304823.328    21304831.562
  22688253.364    11276586.12249   8793799.86546  22688253.329    22688263.194
  23994930.135    -6518783.47149  -5059151.48145  23994929.905    23994938.785
  20857430.130   -21487871.68349 -16726045.26347  20857429.622    20857437.297
  22177174.646    -7507414.24649  -5829944.47746  22177174.971    22177182.864
  21471090.111   -21931959.39749 -17057136.78747  21471089.684    21471097.483
  24940195.021    -7834936.15349  -5600302.54245  24940194.553    24940205.415
 03  6  8 18 36  0.0000000  0 10G 3G29G21G18G17G 6G16G15G26G23
  23608618.573   -10655027.22549  -7918302.02745  23608618.303    23608627.023
  24404658.895     4999568.54349   3909915.20545  24404658.477    24404667.565
  20589233.821    -6722847.00849  -5223834.50147  20589233.420    20589239.257
  20397410.249   -20703207.34449 -16108938.01848  20397409.977    20397416.038
  21311988.238      650214.39649    797193.98947  21311987.838    21311996.089
  22707274.767    11376543.60149   8871688.62546  22707274.740    22707284.603
  24005523.025    -6463117.34049  -5015775.38445  24005522.853    24005531.848
  20848419.159   -21535224.64749 -16762943.66447  20848418.630    20848426.299
  22190343.788    -7438210.01149  -5776019.11946  22190344.134    22190352.023
  21463587.628   -21971385.14849 -17087858.13547  21463587.198    21463594.977
 03  6  8 18 36 30.0000000  0 11G 3G29G21G18G17G 6G16G15G26G14G23
  23592209.560   -10741256.90649  -7985493.94045  23592209.293    23592217.965
  24421377.213     5087424.91449   3978374.68345  24421376.903    24421386.187
  20592552.558    -6705407.10549  -5210244.97647  20592552.163    20592557.983
  20396119.192   -20709992.14549 -16114224.87448  20396118.921    20396124.941
  21319201.617      688120.98949    826731.56147  21319201.204    21319209.493
  22726342.184    11476742.89749   8949765.82846  22726342.140    22726352.022
  24016174.151    -6407146.25449  -4972161.67845  24016173.918    24016182.928
  20839447.899   -21582368.83649 -16799679.38047  20839447.381    20839455.028
  22203612.880    -7368480.65149  -5721684.57246  22203613.199    22203621.096
  24650125.712    -5088369.91249  -3943324.92145  24650125.504    24650138.921
  21456146.829   -22010486.83249 -17118326.96247  21456146.389    21456154.145
